GFSCGP_500_spd_000.txt.gz
Wind_Speed
24 24 26 23 17 14 5 3 6 7 3 7 13 13 13 7 7 8 11 13 16 19 21 21 22 27 29 28 33 40 41 43 49 47 40 39 39 41 49 49 51 50 50 51
22 21 21 18 14 10 10 8 8 7 4 9 17 14 14 15 13 11 11 10 16 21 22 24 26 27 25 35 40 41 43 46 45 44 42 40 45 48 48 48 52 55 56 58
16 12 14 11 10 10 17 15 12 7 4 9 12 13 15 16 16 11 8 12 18 21 20 19 24 28 35 38 40 42 43 44 43 42 45 48 45 46 48 52 55 58 60 63
13 12 9 8 8 7 10 19 20 13 10 14 16 18 21 23 21 20 19 15 17 23 16 20 28 34 37 38 40 42 45 46 46 45 44 45 46 49 51 54 57 61 64 68
11 12 12 11 11 10 12 14 16 17 15 15 20 24 26 27 26 23 19 16 16 27 25 30 38 38 38 37 39 39 40 42 43 42 44 45 48 50 53 58 62 65 69 73
11 11 11 11 11 11 11 12 14 16 16 16 21 24 28 28 26 26 25 26 31 34 33 34 37 40 39 42 36 36 39 39 39 41 43 44 48 53 57 61 65 69 72 76
10 9 9 9 11 12 11 12 14 14 15 16 18 22 27 30 33 31 30 32 33 35 39 35 40 41 41 31 29 33 36 39 40 40 42 48 53 57 61 66 71 74 81 84
11 9 8 8 7 5 5 5 6 8 9 13 16 22 25 29 31 34 37 29 30 33 38 45 43 40 35 29 28 28 31 34 39 46 53 58 63 66 71 74 76 82 84 87
10 9 8 7 5 3 2 2 3 5 9 14 19 23 27 29 31 32 30 29 39 43 43 29 36 32 32 31 33 35 38 43 50 56 63 66 69 74 78 81 84 85 86 87
11 8 7 8 7 4 2 3 4 5 5 11 15 18 23 26 31 34 37 37 39 34 29 33 31 31 33 38 40 43 48 53 58 64 68 71 75 79 83 86 88 87 85 85
11 10 9 7 6 4 4 5 6 11 11 12 15 17 20 25 29 31 29 28 29 29 36 35 35 39 42 45 46 49 54 59 64 67 69 74 79 83 84 86 85 84 86 87
10 9 9 6 4 1 3 6 9 10 12 14 16 18 23 26 29 30 30 31 30 32 38 40 41 44 46 48 51 55 59 64 67 69 73 79 83 86 88 88 87 88 89 88
10 8 6 5 4 2 4 7 10 13 15 16 17 20 25 23 25 27 31 32 31 32 38 43 43 48 49 51 54 58 64 67 70 73 79 84 88 90 90 89 89 89 90 83
11 9 6 6 5 6 10 11 12 15 17 19 21 21 27 26 27 29 30 31 32 37 43 44 48 50 51 54 59 63 67 70 75 80 84 86 88 89 89 90 91 90 79 73
12 10 9 8 10 12 13 15 19 21 23 23 25 27 26 23 24 27 31 36 39 41 43 46 50 51 55 59 63 66 70 75 80 83 86 87 88 90 91 94 92 80 72 65
15 13 12 12 13 15 17 18 21 24 27 29 31 32 32 33 33 34 37 39 41 42 45 48 51 55 59 61 63 68 74 78 81 85 87 90 90 91 95 93 84 71 63 57
19 17 17 17 19 21 22 23 25 29 29 31 34 36 37 38 36 36 38 39 41 44 47 51 54 59 62 63 67 72 75 80 84 86 88 89 90 94 93 82 69 59 53 41
22 21 22 22 24 25 27 26 29 32 31 35 37 38 41 40 39 42 43 43 45 48 50 53 57 59 62 67 71 74 77 81 83 85 88 90 93 92 81 68 56 51 39 32
25 25 25 25 27 29 31 31 33 35 35 39 39 44 44 44 44 46 47 47 49 50 51 55 57 61 65 68 71 74 78 80 82 86 90 91 90 82 67 56 45 35 28 29
29 28 29 30 32 34 34 35 36 38 38 41 43 45 45 45 46 48 49 50 51 51 54 57 61 65 67 70 74 77 80 81 86 88 90 89 81 70 57 47 37 30 31 32
33 34 34 34 36 37 39 40 41 41 43 48 49 48 48 48 48 49 51 51 51 52 56 60 64 66 70 74 78 79 80 85 87 88 90 83 72 58 49 40 33 31 32 33
37 40 38 39 39 41 41 43 44 45 45 48 52 49 50 52 50 52 52 50 53 56 59 63 66 70 75 78 78 78 83 86 85 87 85 74 60 50 42 34 29 30 33 32
39 40 41 40 40 41 45 46 46 46 47 54 53 53 55 53 54 55 53 54 57 60 63 67 71 75 76 76 78 82 84 83 84 82 76 66 53 44 36 30 29 31 33 30
41 43 44 43 42 43 45 46 50 52 56 59 56 56 56 55 57 57 57 58 61 65 68 71 74 74 73 75 79 82 82 84 82 75 69 58 46 37 32 28 28 31 31 30
39 44 44 47 45 48 46 47 51 56 59 56 55 56 56 57 57 58 59 61 64 69 72 74 73 71 73 77 78 79 82 81 75 68 62 51 38 33 29 29 29 31 32 31
35 39 42 42 42 43 44 47 51 55 56 55 55 55 56 59 59 60 62 66 70 72 73 72 70 72 76 77 78 82 81 77 68 61 52 44 33 30 29 29 29 30 32 31

GFSCGP_500_spd_003.txt.gz
Wind_Speed
12 16 18 23 21 20 21 24 12 14 10 6 3 0 1 3 5 7 9 11 11 12 16 17 16 20 21 21 27 32 36 39 41 44 44 44 37 45 36 47 45 48 48 46
25 24 29 24 21 18 12 20 11 7 3 6 3 4 6 5 5 5 8 9 11 16 19 19 18 20 23 27 29 33 39 43 45 44 45 42 42 42 47 50 50 50 51 53
24 27 29 21 18 13 7 10 9 7 5 8 9 12 11 11 9 7 6 10 15 19 19 18 19 22 29 32 35 38 38 41 45 45 44 45 47 46 47 49 50 52 55 59
18 19 19 15 13 14 13 15 15 14 14 15 17 19 18 18 18 16 14 15 16 19 19 21 30 32 35 37 40 42 43 47 48 46 44 45 44 45 47 49 53 58 62 65
14 15 16 16 14 11 11 16 17 18 19 23 24 24 22 23 21 19 18 18 23 19 24 33 36 37 38 38 42 45 47 43 40 39 40 41 43 44 49 55 59 62 65 68
16 15 15 15 14 13 12 14 17 20 23 27 27 28 28 26 22 21 20 23 23 28 31 32 34 39 39 43 44 44 41 40 38 39 39 40 44 48 52 56 60 62 66 70
15 15 15 14 13 13 14 15 17 20 22 25 26 26 27 24 23 26 30 29 27 28 33 30 33 45 46 43 36 35 32 32 34 37 39 43 48 52 57 60 64 69 76 83
13 13 12 10 9 12 14 14 15 14 14 16 18 21 22 24 27 30 30 31 28 26 31 37 44 41 35 34 29 29 33 37 40 44 47 51 57 62 65 69 73 78 81 85
12 10 10 9 8 8 8 9 9 11 13 14 15 16 20 20 21 22 24 24 25 31 30 34 31 34 35 30 32 37 40 42 45 49 54 58 62 64 68 72 77 82 86 90
14 12 11 11 10 9 7 4 3 4 6 5 6 7 11 12 15 16 18 20 24 26 29 31 35 38 38 39 43 46 49 51 53 56 60 63 66 70 75 79 83 86 89 93
15 14 13 12 9 7 6 5 1 2 3 5 8 9 12 14 17 19 19 21 24 29 33 37 41 43 45 47 50 53 54 56 58 61 64 66 70 75 80 84 86 89 92 94
15 15 14 10 9 7 3 2 2 4 7 9 12 13 16 18 20 23 24 25 27 31 34 38 43 47 46 51 52 54 56 59 62 65 66 69 75 79 83 87 89 91 93 94
16 15 13 12 10 7 7 5 6 6 8 10 15 16 19 22 24 26 28 29 31 32 35 39 43 46 48 50 53 55 59 62 64 66 69 73 77 80 85 88 90 93 95 96
17 15 14 12 11 11 11 11 11 11 11 13 17 21 24 26 28 30 32 33 34 35 37 40 42 45 48 51 54 58 61 63 64 69 72 76 80 83 88 90 93 96 97 101
18 17 14 13 14 15 16 16 16 16 18 19 20 22 25 27 29 32 34 36 37 39 41 44 46 49 51 54 57 59 61 63 69 72 76 79 83 87 89 91 95 96 98 89
20 19 18 18 18 19 19 21 22 21 23 24 23 25 27 29 33 35 38 40 41 43 45 47 49 52 53 54 57 60 63 68 71 75 80 84 87 88 90 94 96 98 88 69
25 23 23 22 22 24 22 25 27 26 25 28 28 28 30 33 37 40 41 42 43 46 48 49 51 52 53 55 58 62 67 70 73 79 83 84 86 89 95 95 95 85 67 51
28 28 28 27 27 30 26 27 30 31 30 31 34 34 34 38 41 43 45 47 48 50 50 52 53 54 54 56 61 65 68 72 77 82 83 84 88 93 95 94 85 68 52 44
29 31 32 33 31 33 29 29 33 35 34 35 37 37 37 41 44 46 50 49 50 50 52 56 55 53 55 59 63 67 71 76 80 81 83 88 93 95 93 86 72 55 44 38
31 32 34 35 37 38 33 35 38 39 37 39 40 41 41 42 46 47 50 52 52 53 56 56 54 56 59 62 66 71 75 78 79 82 87 91 94 91 87 75 59 47 40 34
33 36 37 40 42 42 39 40 41 42 42 41 42 43 43 44 49 52 52 53 54 56 58 56 57 59 62 67 71 74 77 78 80 84 88 93 91 87 76 64 51 41 35 31
35 39 40 42 44 46 42 45 44 43 44 45 46 45 44 49 52 53 55 55 55 58 59 58 60 63 67 70 74 76 77 79 81 86 91 89 86 77 67 55 42 36 31 30
37 39 41 43 43 44 45 47 45 46 47 47 47 45 48 52 55 56 56 56 57 60 60 61 64 67 70 74 77 76 77 80 84 89 88 84 79 68 59 47 36 33 31 31
42 43 44 44 43 44 46 47 46 47 48 48 48 51 53 54 57 57 57 58 60 61 61 64 66 68 73 76 76 76 79 83 88 86 82 78 68 60 51 39 34 33 32 32
42 40 42 46 44 45 44 43 44 46 47 48 51 52 54 56 57 58 58 59 61 61 62 65 68 72 75 75 75 77 82 87 85 81 77 67 61 51 41 34 33 32 31 30
36 38 43 43 42 44 43 44 46 47 48 50 53 54 56 56 58 58 59 60 62 63 65 69 73 75 74 73 74 81 87 85 81 76 67 59 52 42 35 32 31 29 28 29

GFSCGP_500_spd_006.txt.gz
Wind_Speed
19 16 13 8 12 11 20 16 15 14 17 17 13 9 7 5 4 6 9 8 8 12 12 14 17 20 21 19 22 26 30 30 36 43 51 50 48 42 39 41 47 53 52 48
14 22 17 16 20 20 23 20 16 19 17 13 6 6 4 2 2 3 6 7 8 12 15 17 20 18 19 24 28 29 34 39 43 47 50 49 48 48 49 47 45 45 46 47
16 21 24 26 25 19 19 23 18 11 8 8 5 7 5 3 6 7 9 10 14 18 17 17 18 20 29 33 37 37 39 41 43 47 46 41 40 41 42 42 43 43 48 53
17 21 23 25 21 21 21 19 19 12 14 13 13 13 11 12 12 13 14 15 18 18 19 22 21 26 30 35 34 39 40 45 46 45 43 42 41 41 41 42 46 50 54 59
16 20 23 21 21 19 18 16 13 15 16 18 19 19 18 17 18 19 20 21 22 22 23 25 32 35 36 32 38 40 49 48 45 45 44 42 42 44 47 49 53 56 57 58
18 15 18 21 17 14 13 15 14 16 18 21 18 21 20 21 21 22 21 22 25 28 26 26 33 39 39 40 43 47 39 40 41 38 39 42 44 47 48 52 56 59 61 65
17 15 16 17 16 15 15 15 16 19 20 21 21 25 23 22 19 20 23 26 28 30 28 24 29 37 39 42 42 37 41 38 39 41 45 47 49 52 55 58 61 63 66 72
17 17 17 17 17 17 16 16 17 18 20 20 20 17 14 14 16 19 21 23 23 22 21 22 28 32 36 38 39 41 39 41 46 49 51 51 51 53 57 60 63 67 72 77
16 14 13 13 14 14 14 14 12 12 14 15 14 7 5 3 6 7 9 11 15 17 20 23 27 32 36 35 36 39 42 41 44 47 49 51 55 58 60 63 67 72 76 80
16 14 12 12 11 11 11 9 8 7 8 6 2 1 4 2 5 7 10 13 17 19 22 25 27 29 32 35 39 42 47 50 53 54 55 58 60 62 64 69 73 76 82 87
16 15 14 13 12 11 9 7 6 4 4 4 3 4 7 9 11 13 16 19 21 24 26 30 32 35 37 40 44 47 51 54 57 58 59 61 64 66 70 74 76 82 86 89
15 17 15 14 13 11 8 7 7 7 7 8 9 7 11 14 17 19 21 24 27 30 34 36 39 42 43 46 49 51 54 56 59 60 62 64 67 70 74 76 81 85 87 90
17 18 18 16 14 12 9 8 9 10 11 11 13 14 16 16 18 20 23 26 31 35 37 40 43 45 46 48 51 53 57 58 61 62 63 66 69 72 75 79 83 86 90 93
19 17 17 15 16 16 13 13 14 16 17 17 18 19 21 19 21 23 27 30 33 36 39 42 45 47 49 51 53 55 59 60 61 62 65 68 72 74 77 82 85 88 92 99
20 19 19 18 18 18 18 19 19 21 21 22 23 23 26 25 26 27 30 33 36 40 42 45 47 49 51 52 55 59 58 59 60 63 67 71 74 77 80 83 87 91 98 98
22 21 22 22 21 21 22 22 23 25 27 28 28 27 29 30 31 33 35 37 40 42 45 48 51 53 53 55 57 58 58 59 62 65 69 73 76 79 82 86 89 98 99 95
24 25 26 27 27 28 27 24 28 29 31 32 32 33 34 33 34 35 38 40 42 44 47 50 55 56 55 56 59 58 58 60 63 69 72 75 78 81 86 90 97 98 93 84
25 28 31 32 31 35 28 29 32 35 36 34 36 39 39 39 39 39 42 43 44 48 50 52 56 55 55 58 59 58 60 63 68 71 75 78 81 84 88 95 97 93 83 70
27 31 33 36 36 38 37 34 37 39 40 37 42 44 44 43 43 42 46 44 48 50 51 53 53 54 56 59 58 59 63 67 70 74 78 81 83 85 94 94 90 84 71 59
26 30 34 37 40 43 41 39 41 44 45 43 46 46 46 46 47 47 48 48 52 54 52 53 54 54 58 60 60 63 66 69 73 78 79 80 83 92 93 89 84 72 60 49
29 31 34 37 41 45 43 44 44 47 48 50 49 48 48 49 50 49 49 50 54 55 55 55 55 57 59 61 62 64 68 73 77 78 78 82 91 93 87 82 71 61 52 41
30 34 36 38 42 46 44 46 47 49 49 50 50 50 50 51 50 50 50 53 56 57 56 56 58 59 61 63 64 67 72 78 78 77 80 90 92 88 80 70 61 52 44 36
35 35 39 41 42 44 47 49 50 49 49 49 50 50 50 49 50 51 54 56 58 57 58 58 60 61 63 66 68 72 76 79 76 79 89 90 88 80 68 61 53 44 38 35
40 41 42 42 42 45 48 49 48 49 48 48 48 48 48 50 52 55 57 58 58 60 59 59 60 62 66 70 72 75 79 74 80 87 88 88 79 68 61 53 45 39 36 33
43 40 41 44 42 45 44 44 45 46 46 46 47 48 49 52 55 55 56 57 58 58 58 59 62 64 69 71 74 78 73 80 84 85 85 77 67 62 55 45 38 35 32 30
36 36 41 43 42 43 42 42 43 43 43 46 49 51 54 56 55 55 55 55 56 55 59 62 65 68 71 73 75 71 79 81 82 83 74 66 62 58 48 39 34 33 33 33

GFSCGP_500_spd_009.txt.gz
Wind_Speed
11 21 22 12 7 7 5 13 14 13 12 13 10 8 7 8 9 12 13 12 12 14 14 15 15 18 19 18 19 23 25 32 37 38 41 44 45 49 52 49 43 40 41 43
16 11 15 13 11 11 16 18 12 13 13 13 11 11 7 8 6 7 6 9 11 12 13 16 18 17 19 18 23 29 34 36 39 43 45 49 51 49 47 44 42 42 42 42
12 10 12 12 15 13 22 18 13 10 7 9 10 9 5 3 3 5 7 10 13 14 16 15 18 20 22 24 29 34 38 33 36 41 46 49 46 44 41 41 42 45 48 50
15 12 19 17 18 19 19 20 19 14 13 11 10 10 6 6 7 10 13 14 15 15 12 15 18 22 22 32 33 37 40 40 45 49 45 44 46 44 45 47 49 51 53 55
21 22 18 20 20 23 18 17 18 22 22 16 13 12 8 9 11 14 15 15 15 16 17 21 22 24 25 29 35 39 42 42 42 41 45 43 42 43 46 48 51 53 55 57
21 17 14 19 20 17 18 18 17 17 18 16 13 16 11 13 16 15 14 14 15 16 19 22 24 24 26 30 34 33 35 38 41 43 43 44 46 50 53 55 55 56 58 60
17 15 14 17 21 18 18 16 15 16 17 15 13 19 15 15 13 12 13 12 13 16 17 19 22 23 24 28 30 33 36 40 42 44 46 49 51 52 53 56 57 59 61 64
17 19 18 16 17 18 18 17 17 17 17 16 17 11 11 9 9 9 9 8 9 11 13 15 18 22 25 28 31 33 36 40 43 46 49 51 53 55 56 58 60 62 65 69
15 15 14 15 18 19 18 18 17 16 13 11 10 6 6 6 7 4 4 6 8 11 13 16 20 24 27 30 33 36 39 42 46 49 52 55 58 58 59 61 62 65 68 71
14 16 15 15 17 16 16 12 11 8 7 5 2 3 3 4 4 5 7 9 11 14 15 19 22 26 28 31 33 37 41 45 47 50 55 57 58 61 61 61 64 67 71 74
17 17 17 15 14 13 11 10 9 7 5 5 4 4 7 7 7 9 12 14 15 18 20 24 27 30 33 36 40 45 48 51 53 53 55 58 60 60 60 62 66 70 74 78
18 17 17 17 15 14 11 10 9 8 9 9 9 8 9 12 13 14 16 18 20 23 25 28 32 35 38 41 45 49 50 52 54 54 59 62 61 61 62 65 69 73 77 82
16 16 17 16 15 14 12 12 11 11 11 11 12 14 17 18 19 21 23 25 27 29 32 34 36 38 41 44 48 50 52 54 54 57 61 62 61 62 65 70 72 77 81 84
17 16 16 17 17 18 15 16 16 15 15 17 17 20 24 24 24 25 27 30 33 34 36 38 39 41 43 47 50 52 53 54 56 59 62 62 62 64 69 71 75 80 83 85
17 17 18 20 21 20 20 20 20 19 21 23 23 24 31 30 30 31 33 35 37 39 41 42 42 44 47 50 52 52 55 56 58 61 61 61 63 67 70 74 78 81 85 91
18 19 21 22 22 23 24 23 22 25 26 28 30 28 35 36 37 36 37 40 42 44 45 47 47 48 52 54 54 55 56 57 59 61 60 62 65 69 73 76 79 83 91 97
20 21 23 25 26 28 30 23 27 30 31 34 34 36 38 39 40 41 42 44 45 47 49 50 51 52 55 55 56 57 58 59 61 60 62 65 68 73 76 79 82 89 95 95
20 22 25 28 30 34 28 28 32 36 37 39 40 41 43 44 45 44 45 47 48 50 52 53 53 54 56 57 58 58 58 60 60 61 64 68 72 77 77 80 87 94 93 80
20 23 26 30 31 34 34 34 37 40 42 44 45 47 48 49 49 48 50 49 51 52 53 53 53 55 56 58 58 58 59 60 61 64 69 72 77 77 79 85 91 90 79 71
21 24 26 28 32 34 34 37 39 42 45 44 48 49 50 51 52 50 51 52 53 53 53 53 54 56 57 58 58 58 58 61 64 69 73 75 78 79 85 90 88 79 72 66
20 23 25 28 32 34 35 38 39 42 45 47 48 50 50 51 51 51 52 52 52 51 52 53 55 56 58 58 58 57 61 64 66 72 75 77 78 84 89 86 79 72 67 58
24 26 28 31 34 39 39 41 43 46 48 50 50 50 50 50 50 51 50 49 50 51 52 54 55 58 58 57 57 60 64 67 71 73 77 77 82 86 86 77 72 66 61 48
30 32 35 36 37 40 43 45 47 47 48 48 48 48 48 48 48 48 48 50 51 54 57 57 58 59 59 58 60 63 66 70 73 74 76 81 84 85 77 71 67 61 51 41
38 39 40 40 38 41 44 45 44 45 45 46 47 47 47 47 47 48 51 54 58 59 57 58 60 60 59 61 63 64 67 70 73 75 80 82 83 78 69 68 62 53 43 36
41 39 38 40 39 42 40 40 41 43 44 44 45 45 45 46 50 53 56 56 56 56 54 58 62 59 61 65 68 66 70 73 75 78 80 82 79 70 65 63 55 45 38 34
33 36 40 41 39 40 38 39 41 41 41 43 44 46 49 52 54 54 53 53 54 56 60 59 57 62 66 67 69 68 73 76 76 78 81 78 72 64 62 56 48 40 36 34

GFSCGP_500_spd_012.txt.gz
Wind_Speed
25 19 13 14 18 13 9 13 10 8 9 12 12 11 8 7 8 11 11 11 13 13 14 14 14 17 19 22 23 22 21 27 30 36 38 39 42 45 50 47 44 42 40 40
20 20 18 15 12 8 7 15 11 10 12 13 12 10 7 9 10 10 10 13 15 14 12 13 16 18 19 20 19 21 25 30 35 39 41 43 45 48 46 47 46 44 45 48
11 10 17 18 12 7 8 16 10 4 5 7 11 10 11 9 9 8 9 10 12 13 13 13 16 18 19 23 23 26 30 34 35 40 40 42 45 45 46 48 48 48 50 52
17 9 10 10 11 13 11 19 15 10 9 6 8 10 12 11 9 10 13 14 14 15 14 15 18 19 21 23 24 27 30 30 32 34 34 36 40 44 48 50 51 54 54 55
14 9 7 12 17 14 15 13 17 13 15 15 13 15 19 15 12 13 16 17 17 15 15 17 19 21 20 18 18 19 22 25 29 31 35 39 42 45 48 51 54 56 57 58
20 16 14 18 17 15 17 12 15 17 19 20 22 20 18 15 15 18 19 18 16 15 17 17 17 14 13 15 18 20 23 27 31 35 39 43 45 49 52 54 57 58 58 59
23 23 20 15 11 14 14 13 15 17 18 18 17 21 17 16 17 20 19 17 15 15 14 13 12 13 15 18 21 24 27 31 36 40 43 46 49 52 52 54 57 58 59 60
20 19 17 12 14 17 20 16 18 19 17 16 16 17 15 15 17 17 16 13 11 10 10 13 15 16 19 23 25 27 30 34 37 41 44 47 50 52 53 56 58 61 62 62
17 18 17 15 16 17 17 18 17 19 18 17 13 10 13 13 13 11 8 8 9 11 13 15 17 21 24 27 29 31 34 37 40 43 46 48 54 54 57 58 62 63 62 62
15 17 17 18 19 20 20 18 18 16 13 11 5 5 6 6 6 8 10 11 13 15 17 19 22 25 28 31 33 34 38 41 43 46 49 53 56 58 58 61 63 61 62 64
16 18 18 20 19 18 18 15 13 13 10 7 6 7 9 11 12 12 14 16 18 20 21 24 27 30 32 35 37 38 41 45 48 51 53 56 59 59 60 62 62 62 64 68
18 19 18 19 19 17 15 14 13 13 11 10 11 10 13 13 15 17 19 20 23 25 27 30 33 36 39 41 42 43 46 48 52 55 57 59 60 60 61 62 62 65 68 72
20 21 20 20 17 15 15 14 14 15 14 12 13 13 16 17 19 21 23 25 28 30 33 36 39 42 45 47 48 50 51 53 55 57 59 61 61 61 63 63 65 68 72 77
18 16 16 16 18 18 18 18 18 17 16 16 13 20 22 24 24 26 29 31 33 35 38 41 44 47 50 51 52 54 55 55 57 59 61 62 62 63 64 64 67 72 76 80
17 15 16 17 19 21 20 21 21 21 21 22 21 23 26 32 31 33 35 38 39 42 43 45 48 50 53 54 55 56 57 58 59 60 62 63 62 63 63 66 71 76 79 84
17 16 17 18 19 22 23 23 22 24 25 27 30 28 34 36 38 38 40 42 44 46 47 49 51 53 55 56 57 58 57 58 59 61 62 62 61 62 65 68 74 79 83 87
18 17 18 19 21 24 26 21 25 28 29 32 36 37 39 42 44 46 47 48 49 50 51 51 53 55 57 58 58 56 57 58 60 62 61 60 61 65 67 72 78 80 87 88
15 17 20 20 23 28 23 25 28 32 33 37 41 44 46 49 50 50 51 52 51 52 52 52 54 56 57 56 54 56 58 59 61 60 58 60 64 67 72 76 78 84 87 92
15 18 21 24 25 26 28 29 31 34 37 40 44 47 49 51 52 51 53 52 53 53 53 54 54 54 53 54 55 56 61 60 61 59 60 63 66 68 72 75 80 86 90 90
14 18 20 22 25 26 25 28 30 33 37 38 41 45 47 49 50 52 53 53 53 52 53 53 51 51 52 54 56 56 57 60 60 61 63 67 68 70 75 78 83 88 90 81
14 17 19 22 25 27 29 30 32 36 40 42 44 46 48 49 51 51 51 50 49 48 47 47 49 52 55 56 58 54 58 61 61 63 67 70 70 74 78 83 86 86 83 75
19 21 23 26 29 33 34 38 40 42 44 45 47 48 48 48 47 47 46 46 44 43 46 49 54 56 55 56 54 59 63 64 64 67 71 72 72 75 82 85 84 82 76 68
26 28 30 31 33 38 42 44 45 45 44 44 44 45 45 45 45 44 43 43 44 49 52 55 55 55 56 57 58 58 65 63 65 70 73 73 73 78 85 84 83 77 67 61
31 34 35 37 38 43 46 45 43 42 42 42 42 43 44 43 42 43 46 49 52 54 57 55 54 56 60 62 59 58 63 69 70 72 73 75 76 82 83 85 78 68 60 54
35 37 40 42 43 44 40 39 40 40 41 41 42 43 43 44 45 48 50 52 54 55 53 54 56 59 59 59 66 67 75 73 73 71 73 75 73 76 79 77 69 60 55 49
38 42 43 41 39 38 37 38 40 41 42 42 43 44 44 46 48 50 50 50 50 52 54 57 59 58 61 66 68 70 72 69 68 70 72 72 72 74 71 67 60 54 51 44

GFSCGP_500_spd_015.txt.gz
Wind_Speed
27 30 25 17 19 4 6 6 7 11 7 12 11 11 8 9 8 7 8 8 10 12 11 12 12 14 17 20 22 22 24 22 25 29 33 36 38 37 35 40 44 45 46 46
13 17 8 12 17 11 7 8 13 10 7 10 12 10 7 7 9 10 11 12 12 12 13 13 14 17 19 21 25 24 26 28 31 33 35 33 32 33 36 38 41 43 46 49
19 15 15 16 11 6 6 9 11 4 2 7 10 13 9 8 10 10 11 12 11 11 13 16 18 19 20 24 25 26 26 28 30 29 28 28 30 34 37 39 42 45 48 51
17 9 24 17 10 11 10 11 6 11 3 5 10 11 21 12 12 9 10 13 16 17 19 21 22 21 25 27 27 23 21 21 22 24 27 30 34 38 41 45 48 51 52 53
8 9 6 5 9 6 17 2 14 12 8 12 10 14 28 10 16 16 15 17 20 22 24 24 22 24 27 23 17 17 18 21 24 27 30 33 36 40 43 47 51 53 55 56
19 11 12 10 9 11 10 9 8 10 8 16 13 15 14 16 21 27 23 24 24 25 25 25 26 25 20 16 17 19 21 23 27 30 33 36 40 44 47 50 50 54 57 58
13 16 15 14 15 13 13 10 7 9 15 14 16 20 16 17 16 26 27 28 28 27 26 26 23 18 17 16 19 23 25 28 31 35 37 41 45 49 50 51 56 59 60 61
15 15 20 20 15 9 10 10 12 14 11 11 18 21 16 24 29 27 27 28 24 23 21 18 18 18 19 22 25 27 30 33 36 39 42 45 48 51 53 56 60 61 63 63
13 19 14 16 14 12 14 18 19 19 18 19 20 17 21 19 23 24 20 17 16 16 16 17 19 22 24 28 31 33 36 39 41 44 47 49 51 53 54 57 60 63 64 64
17 17 19 16 17 16 18 18 16 19 21 19 6 13 12 13 11 10 10 12 15 17 21 22 25 28 31 34 37 39 42 44 47 50 53 55 56 57 58 60 62 64 65 65
18 18 18 18 18 15 18 19 18 19 17 14 11 6 13 11 11 13 15 17 20 23 25 27 30 33 36 39 42 45 48 50 53 55 58 60 60 60 59 61 63 65 64 65
19 19 21 16 19 19 19 18 18 18 18 15 13 12 13 15 17 17 19 21 23 25 29 32 34 37 41 44 47 49 52 54 56 58 60 60 61 61 62 63 64 64 65 64
19 21 21 21 19 18 18 18 18 19 18 15 16 13 17 19 20 22 24 26 28 31 34 37 39 42 45 48 50 52 55 56 58 60 61 62 61 61 62 63 64 64 64 66
23 23 22 21 15 18 18 19 19 20 19 17 17 18 21 25 25 27 28 32 34 36 40 42 44 46 49 51 54 55 56 58 60 61 61 61 59 61 63 65 64 63 66 69
22 20 19 19 19 19 20 19 21 22 19 23 18 26 24 32 34 34 36 37 40 43 45 48 50 51 53 55 56 57 57 59 60 60 59 59 60 61 64 64 64 66 69 72
20 19 18 18 19 19 21 21 21 21 22 25 26 30 30 34 38 40 43 45 47 49 50 51 52 54 55 55 55 56 58 58 56 56 58 59 60 61 63 63 65 69 72 75
19 18 20 19 17 20 20 18 22 23 25 27 31 31 39 40 43 45 49 51 51 52 53 53 53 53 54 55 55 55 54 53 54 57 58 59 59 63 63 64 67 72 76 78
17 18 20 17 19 23 19 19 23 27 28 31 35 36 43 45 47 50 51 53 53 53 53 53 53 53 53 53 52 50 53 55 58 60 59 56 59 63 66 67 70 76 79 79
14 16 18 20 20 22 21 22 24 27 29 35 36 39 43 46 47 48 52 51 53 54 54 53 52 51 49 48 50 52 57 59 58 59 59 63 71 73 75 71 73 78 80 78
11 14 16 17 19 20 21 21 23 26 30 33 35 38 42 45 48 49 52 53 53 52 51 49 49 47 47 49 53 57 57 55 56 59 58 65 71 79 81 80 80 79 79 81
8 10 12 15 17 19 21 24 26 31 35 37 40 43 45 46 48 48 48 49 48 47 46 44 45 47 51 54 56 54 55 60 59 63 70 67 75 82 85 85 76 77 74 76
14 15 17 20 23 26 27 30 33 36 39 42 45 47 47 46 46 46 46 46 45 44 44 44 48 51 53 55 52 54 57 58 59 71 70 75 79 81 81 71 76 77 80 77
20 22 24 26 29 32 34 36 39 41 44 45 46 44 46 46 46 47 47 45 45 47 48 50 52 51 52 53 54 56 58 61 67 72 82 85 88 74 68 75 75 76 74 70
27 27 29 31 33 37 39 41 43 45 45 44 43 43 45 45 46 46 47 46 47 49 50 50 52 54 56 58 59 60 62 62 62 76 87 81 70 71 73 72 70 69 70 63
32 34 36 36 37 41 41 45 43 45 43 41 43 45 45 45 46 47 48 48 49 49 51 53 55 57 59 59 62 61 63 67 77 81 78 75 73 74 71 68 67 64 58 55
37 39 39 40 43 42 44 44 40 41 43 44 44 46 47 47 47 48 47 48 51 54 56 58 60 60 62 60 62 59 60 71 77 75 76 77 74 71 69 66 60 55 53 53

GFSCGP_500_spd_018.txt.gz
Wind_Speed
27 25 23 20 9 14 11 8 6 9 6 10 9 13 10 11 7 7 6 9 3 1 3 5 7 11 14 17 17 21 22 20 23 27 29 29 30 23 25 30 33 36 39 41
24 23 11 11 12 7 3 2 12 15 11 11 12 14 9 6 6 5 8 4 7 6 6 7 10 14 17 22 20 23 24 27 27 27 26 25 23 25 28 32 35 38 42 43
18 19 14 11 12 10 4 9 14 9 5 9 16 14 17 7 8 7 5 8 9 9 8 12 14 17 20 23 23 25 28 27 23 21 21 23 25 29 32 36 38 42 45 47
13 17 19 10 8 5 12 14 14 12 3 3 10 10 15 24 9 10 10 10 13 18 15 16 21 22 23 25 28 29 22 20 20 22 25 28 31 35 37 39 43 47 49 50
10 19 20 15 15 15 8 18 12 5 13 17 23 16 22 22 15 14 13 14 19 23 24 23 25 25 26 28 27 20 18 19 23 26 28 33 36 40 43 46 49 51 54 56
12 15 8 17 6 7 8 4 5 11 11 17 11 12 22 19 24 19 19 17 21 27 30 30 29 28 28 25 20 19 20 24 27 30 34 38 41 45 47 50 52 54 56 56
13 7 9 8 9 9 12 6 3 12 15 8 6 20 17 21 16 22 15 15 22 30 32 33 29 26 21 20 21 22 25 29 32 35 39 43 46 48 51 54 56 58 60 60
18 12 12 16 12 16 3 15 11 17 19 10 16 13 11 19 25 30 33 32 23 27 28 25 19 17 19 22 24 28 32 35 38 41 45 48 51 53 55 57 59 61 62 59
25 23 20 11 13 18 11 12 16 18 15 10 14 14 14 19 22 22 31 25 21 19 16 16 18 22 23 27 30 34 38 41 43 47 50 53 55 57 58 59 61 61 61 60
25 15 4 11 13 12 13 15 12 16 18 16 8 2 15 22 14 15 16 12 13 15 17 21 24 26 29 32 35 39 43 46 47 51 53 56 58 59 60 61 61 60 59 61
20 11 13 13 13 13 14 16 16 18 19 16 11 10 15 21 15 13 16 17 18 20 24 25 28 31 34 36 39 43 47 49 49 52 55 58 60 61 61 61 60 58 60 62
23 22 22 11 18 13 18 14 15 20 18 18 14 14 19 16 17 18 19 22 25 27 29 31 32 35 39 42 45 46 50 52 53 55 57 59 60 61 62 60 58 59 61 62
23 17 17 16 17 13 14 17 17 21 16 15 17 13 19 18 21 22 23 24 29 31 35 38 39 40 43 47 49 51 53 55 56 55 57 58 60 59 59 59 59 61 61 60
22 19 21 20 13 16 15 19 18 19 18 16 18 16 19 24 28 27 26 28 33 36 38 43 47 49 50 51 52 53 54 53 55 56 57 59 58 57 59 62 63 61 62 64
25 24 24 23 19 23 24 19 19 21 19 21 16 20 17 20 31 39 38 39 35 40 47 48 51 55 56 54 54 54 55 55 54 54 54 54 56 58 61 61 62 59 66 72
21 23 23 20 20 22 22 21 20 21 20 21 20 24 24 34 38 39 40 43 46 45 48 50 50 53 54 55 56 55 53 52 52 49 51 55 60 60 57 59 62 62 69 76
21 21 21 21 20 21 19 16 20 19 21 23 27 26 30 36 42 40 39 45 49 48 50 51 52 54 55 57 56 54 52 50 51 51 55 59 57 60 62 60 61 65 69 77
20 22 21 22 20 21 16 16 19 21 22 26 29 32 35 38 41 41 45 47 49 52 52 54 55 55 54 53 53 51 49 50 54 56 58 56 57 61 64 69 74 76 77 79
19 21 20 21 20 18 18 18 18 22 23 29 30 31 34 37 40 44 47 48 51 54 55 54 52 50 49 49 48 47 51 55 57 57 54 58 60 62 65 74 84 84 82 74
15 16 17 17 18 19 19 18 19 21 24 25 27 31 35 38 41 46 48 51 51 50 49 50 46 47 46 47 49 52 55 54 54 56 59 61 63 74 70 69 85 87 86 76
10 10 12 13 13 13 17 15 20 23 27 30 32 35 39 43 46 48 48 47 47 49 50 49 48 47 49 50 52 51 53 55 56 60 61 62 64 67 74 85 77 80 71 69
9 10 11 13 15 18 21 23 25 28 31 34 37 40 43 45 43 44 45 48 42 45 50 48 47 49 50 50 52 54 57 59 60 63 65 65 69 78 80 79 79 70 72 78
15 14 17 18 22 24 26 28 31 33 35 39 42 43 44 45 44 46 47 50 45 48 47 48 48 48 51 54 56 58 59 60 63 62 67 71 72 76 80 83 76 75 75 66
22 21 24 25 28 32 34 34 37 38 41 43 43 44 44 41 45 47 47 48 49 49 47 46 48 51 54 57 60 62 65 65 64 60 65 69 73 77 78 73 78 70 63 61
29 29 31 32 33 37 40 43 43 41 44 44 43 43 42 44 44 47 48 47 46 46 47 50 52 56 59 63 65 67 65 64 59 56 59 63 69 74 76 74 60 60 60 59
34 36 37 38 40 40 44 46 45 46 46 43 43 45 44 45 47 47 46 46 47 48 51 55 59 62 65 66 66 66 63 58 56 57 60 65 71 75 65 59 56 59 60 55

GFSCGP_500_spd_021.txt.gz
Wind_Speed
11 13 13 10 18 13 12 6 3 6 1 5 9 3 10 9 8 7 3 1 2 8 2 3 4 8 4 6 15 15 16 17 22 21 21 19 18 18 21 24 28 33 36 39
13 17 11 14 15 14 12 8 4 9 11 4 9 12 2 4 8 9 7 5 2 2 4 6 9 11 11 13 16 14 17 22 23 18 16 17 19 22 25 29 34 38 40 43
7 14 9 18 15 14 4 5 16 10 10 9 15 14 9 5 6 12 10 4 2 3 4 7 11 18 19 20 21 19 23 21 16 16 19 21 24 27 30 34 38 42 45 48
6 19 11 15 14 9 3 9 14 10 6 5 7 11 21 23 15 9 17 12 12 5 4 9 15 22 24 25 23 25 23 18 17 20 23 25 29 31 35 38 41 44 47 50
4 10 19 17 13 11 3 10 9 8 5 8 15 16 23 25 16 14 12 13 19 18 15 14 16 21 25 26 24 23 20 19 20 24 27 31 35 38 41 45 47 50 52 55
9 14 19 11 10 13 5 1 11 15 17 17 11 16 12 12 19 13 16 17 19 22 23 23 21 22 21 21 19 17 19 20 24 29 33 36 39 42 46 50 52 55 58 59
13 19 9 5 2 2 11 12 14 13 17 15 18 20 6 8 11 13 17 12 17 22 22 22 22 17 15 14 17 19 20 24 29 34 38 42 45 49 51 54 56 57 58 59
15 16 14 11 5 8 9 13 16 15 15 17 21 16 12 8 9 13 14 13 15 16 17 15 12 11 13 17 21 24 26 30 33 38 43 47 50 52 54 55 57 58 59 61
22 22 21 20 19 19 13 13 14 18 19 12 7 11 15 13 14 19 16 14 10 8 8 8 10 13 17 22 26 29 31 34 37 41 46 50 52 53 55 57 58 59 59 61
20 23 23 27 18 10 12 14 17 18 19 13 7 11 12 12 13 16 16 8 9 11 13 14 17 19 21 27 31 35 37 39 41 43 48 50 52 53 56 56 57 59 60 58
18 20 20 6 4 11 16 17 18 18 19 16 8 14 13 14 18 20 19 17 16 16 19 22 24 26 28 30 34 38 42 45 46 45 49 52 53 55 56 56 58 58 56 57
15 22 19 17 8 10 17 13 15 17 15 20 12 11 18 17 20 20 21 24 22 23 24 27 30 31 33 36 39 43 47 50 49 48 50 53 54 56 55 55 57 55 57 60
19 21 18 17 19 17 16 16 19 20 16 14 13 10 16 18 20 23 22 24 26 28 32 35 37 38 40 42 44 46 47 50 51 50 51 54 56 55 55 53 54 57 58 56
21 22 21 21 18 19 19 14 18 20 21 15 12 12 15 19 25 27 26 23 24 32 37 40 43 45 46 46 44 45 50 53 53 52 51 54 54 53 52 54 58 59 57 59
25 25 24 24 20 24 23 16 18 19 20 18 11 16 14 22 25 31 35 34 35 37 42 47 48 46 46 50 49 49 51 53 54 50 50 51 52 53 56 59 58 58 61 64
29 29 29 26 25 26 25 23 24 20 17 18 16 18 18 24 29 33 36 38 39 43 44 47 49 52 53 48 50 50 53 52 50 49 49 53 55 56 58 57 59 62 66 68
25 24 24 23 23 24 23 13 21 18 19 20 20 22 24 29 32 33 36 38 40 44 44 44 47 50 53 55 54 50 50 49 48 50 53 55 55 56 56 59 64 65 67 69
20 23 26 23 24 25 16 19 16 16 20 22 24 25 27 30 33 37 39 40 41 44 46 48 50 51 50 48 47 47 48 49 51 53 54 53 55 58 62 64 66 69 69 70
19 24 24 24 24 20 19 18 17 19 23 23 24 27 28 31 34 37 40 42 45 48 50 51 49 45 44 44 45 47 49 51 52 52 54 57 59 61 65 64 68 76 82 80
20 22 23 22 21 19 20 19 18 21 24 21 23 26 29 31 34 37 41 45 47 48 46 46 43 45 46 48 49 49 50 49 52 54 57 60 63 61 65 66 70 75 77 78
16 16 15 15 16 17 17 15 17 18 20 21 24 27 30 34 38 41 44 45 46 42 43 47 45 47 49 49 49 48 50 53 56 58 62 64 66 65 66 69 74 70 69 70
10 9 10 10 11 12 13 15 17 20 22 25 29 33 36 39 42 43 46 45 42 41 42 45 47 48 47 47 46 49 51 55 59 61 66 67 66 65 64 63 66 66 68 71
13 12 11 12 13 16 17 20 21 24 27 31 35 37 41 43 44 45 43 42 44 44 45 47 47 45 44 46 49 52 56 60 61 63 64 65 65 65 64 64 64 67 72 64
17 17 17 17 20 22 25 28 30 32 33 36 39 43 44 45 43 43 45 46 46 48 49 47 45 46 48 51 55 59 61 62 62 62 63 64 65 65 63 63 66 65 56 54
23 23 25 24 28 31 34 36 39 41 42 43 45 45 45 43 43 44 46 47 49 50 48 47 48 50 53 58 61 62 62 61 60 62 65 67 68 68 66 66 57 54 55 56
30 31 30 32 32 34 37 40 43 45 47 48 49 47 45 45 45 47 49 50 50 48 47 48 52 56 59 62 62 61 60 61 63 66 68 69 68 65 62 57 56 59 58 58

GFSCGP_500_spd_024.txt.gz
Wind_Speed
7 14 17 13 13 13 16 21 17 15 10 3 4 2 4 6 4 4 5 4 5 2 2 6 6 5 5 7 10 13 11 14 15 17 13 10 10 12 14 18 22 26 29 32
8 9 16 12 17 13 10 11 8 12 8 7 8 9 2 3 2 6 4 4 7 6 4 3 6 6 5 9 9 8 10 16 16 12 10 12 15 17 21 25 29 32 36 39
1 5 10 12 20 17 14 16 11 8 5 2 11 11 6 5 3 2 3 3 4 7 1 3 2 4 6 10 13 6 13 12 11 11 12 16 19 23 27 30 33 37 39 42
2 7 8 12 18 15 11 13 14 11 11 12 9 15 7 7 8 8 5 3 4 5 3 8 8 11 12 11 12 11 15 10 10 14 17 21 25 29 32 35 38 41 44 47
5 10 13 18 18 11 3 8 13 11 13 14 9 11 13 15 17 14 12 10 3 2 2 6 8 11 14 15 14 12 9 12 14 17 22 26 30 34 37 40 43 46 48 50
9 9 22 20 18 12 8 5 11 12 15 18 16 19 16 15 4 4 7 10 11 10 8 8 8 10 11 14 15 11 14 16 19 22 27 32 36 39 42 45 48 51 52 55
8 14 20 16 13 10 14 9 13 16 21 23 21 20 10 12 10 4 5 13 7 7 8 11 9 8 8 9 12 12 16 20 25 28 32 37 41 45 48 51 53 56 57 59
9 17 25 18 19 15 16 14 17 21 22 19 14 23 14 6 6 8 5 11 8 8 8 5 4 4 8 13 15 17 20 25 29 33 38 42 45 48 51 53 55 57 59 59
17 18 21 13 17 19 14 11 15 22 23 18 16 14 14 9 8 6 4 4 4 2 4 4 6 8 13 18 21 22 25 30 34 38 42 45 49 51 52 53 55 56 57 59
24 23 20 19 19 23 14 18 16 18 21 17 14 16 16 15 11 9 6 5 6 7 10 9 10 12 17 23 26 29 32 35 39 42 45 46 48 51 53 54 56 57 57 59
26 25 20 22 9 20 22 19 18 17 20 17 15 16 17 16 17 17 12 10 11 12 14 14 14 16 21 27 32 35 38 41 42 41 42 44 48 50 53 54 55 55 55 54
17 20 16 9 10 11 19 15 18 22 21 22 19 15 16 20 22 22 18 14 14 15 17 18 19 22 28 31 34 37 40 40 41 39 41 45 49 53 53 52 51 51 51 56
19 20 22 23 19 18 15 17 20 24 23 22 18 12 15 18 23 26 24 20 17 19 21 24 28 31 32 33 35 33 35 41 42 43 45 48 52 53 52 50 48 52 57 59
20 23 21 16 14 20 21 21 22 24 24 22 15 14 15 19 24 26 25 24 20 20 24 29 32 34 35 38 40 44 45 44 40 42 48 53 52 51 50 51 53 55 57 58
22 22 22 22 21 22 25 24 24 26 22 23 15 20 16 22 23 25 26 27 25 25 27 32 35 36 40 44 47 48 44 40 41 48 49 51 50 51 52 53 54 56 59 63
26 26 26 26 25 27 30 31 23 22 24 24 18 18 21 26 26 25 26 29 30 32 33 36 40 43 46 48 50 41 44 47 49 51 51 50 50 51 52 53 56 59 62 67
28 29 30 32 32 33 34 25 26 24 28 26 23 20 22 25 26 27 28 31 34 37 39 41 42 44 47 49 50 47 48 49 50 50 50 50 50 51 54 57 61 66 68 66
29 27 30 31 30 33 21 24 25 22 23 23 23 22 23 25 26 28 31 34 37 38 41 43 45 47 49 48 47 48 50 49 50 50 49 48 51 55 58 64 67 70 69 67
29 26 29 30 28 28 22 22 23 22 23 22 22 22 24 26 28 30 32 34 38 41 44 46 48 49 48 47 48 49 47 49 49 47 47 51 56 58 65 57 70 80 73 75
24 25 27 25 25 25 19 21 22 23 24 22 22 24 26 26 27 31 34 37 41 44 46 48 50 49 47 48 47 48 48 48 46 48 52 55 50 58 69 61 60 77 75 73
25 25 24 22 22 21 18 20 22 23 20 21 21 23 24 27 30 34 37 40 43 46 48 48 46 48 49 49 51 50 48 46 49 52 55 57 58 61 62 62 64 69 72 72
19 19 18 18 17 15 16 17 17 16 17 18 21 24 28 31 34 38 41 43 45 45 45 45 47 47 49 51 50 47 46 47 51 55 58 58 59 60 60 62 66 69 71 69
19 16 14 14 12 14 14 13 14 15 18 23 27 30 34 36 38 41 44 45 46 46 46 47 48 50 51 51 48 47 48 52 55 57 59 59 58 60 62 65 68 71 70 65
21 18 17 16 15 16 17 17 20 23 26 29 32 35 38 40 43 45 47 47 48 48 48 50 52 53 52 49 48 50 54 57 59 60 59 59 60 63 67 70 72 71 66 61
25 23 21 20 20 24 25 28 29 31 34 36 39 42 44 45 46 47 48 48 48 49 50 52 53 51 49 49 52 56 58 60 63 61 60 62 65 69 72 73 71 68 63 60
29 28 27 26 28 29 31 33 36 39 41 43 46 47 49 49 50 51 51 49 50 52 54 53 51 50 51 54 57 60 62 64 61 61 64 68 70 72 73 72 69 66 63 60

GFSCGP_500_spd_027.txt.gz
Wind_Speed
4 9 13 16 15 18 16 16 13 13 12 10 11 5 9 7 5 6 6 10 10 7 5 7 9 9 8 5 1 2 3 1 4 6 3 2 3 6 8 13 17 21 24 28
4 8 16 18 12 13 12 13 16 13 4 3 6 5 3 5 7 5 4 6 7 6 4 5 5 4 4 3 1 1 2 4 4 4 5 5 7 10 14 18 22 26 29 33
5 8 13 14 9 14 16 18 18 13 5 2 1 2 5 8 6 3 2 5 3 5 8 6 4 4 5 5 3 2 5 7 5 9 9 9 14 17 22 26 30 33 36 40
7 11 11 9 14 17 14 13 14 13 10 8 4 3 9 10 7 2 5 5 1 4 5 5 4 3 7 8 5 6 8 11 9 12 14 15 19 24 30 33 35 37 41 45
11 11 11 8 23 17 14 15 13 12 13 10 10 8 12 11 8 6 7 3 7 13 8 7 7 6 8 9 5 6 10 13 12 14 18 18 24 30 35 38 39 43 46 49
10 16 12 17 21 16 10 12 15 17 14 15 17 16 12 9 6 8 10 11 6 10 9 7 5 7 9 12 7 11 11 13 12 17 21 24 30 36 39 41 44 47 50 51
18 13 13 18 20 19 14 14 13 19 19 17 20 21 16 17 15 9 9 10 8 9 10 9 6 8 8 9 8 7 11 17 19 22 25 29 36 41 43 45 48 49 50 51
17 12 16 19 18 17 22 18 19 19 20 22 22 13 7 18 9 16 12 7 8 10 10 7 8 7 8 9 9 11 14 20 24 28 31 35 40 45 47 49 49 51 51 50
19 13 20 23 21 19 17 18 19 22 22 24 20 15 12 8 14 11 12 7 8 8 7 6 6 8 11 13 11 16 20 24 28 33 37 42 45 45 48 50 51 51 51 50
23 19 19 27 18 18 17 20 24 24 22 22 17 17 14 13 18 17 17 12 10 8 7 7 8 12 16 15 18 22 25 29 34 38 42 45 44 47 50 51 50 52 52 52
32 29 25 27 24 18 18 26 26 25 27 21 18 17 15 16 16 18 18 15 13 12 11 12 13 17 17 19 23 27 32 36 40 42 42 44 43 46 49 51 53 55 53 53
29 32 31 25 19 27 26 14 26 27 23 22 21 15 15 18 18 20 19 18 15 14 15 17 19 19 21 25 28 31 33 36 39 43 41 40 44 45 47 51 56 53 52 53
24 28 28 23 22 20 20 14 19 23 25 25 23 16 15 22 24 24 21 15 15 16 18 21 21 22 28 32 33 33 34 33 38 38 40 42 41 45 49 54 51 49 51 53
22 23 24 21 18 17 23 24 24 26 26 25 26 20 24 23 24 25 24 19 16 17 19 22 24 28 32 33 32 34 35 38 40 37 44 41 47 49 50 51 49 50 51 52
25 25 24 23 22 21 21 23 24 23 24 25 23 24 22 25 27 26 25 21 21 21 22 25 28 28 30 32 34 36 36 39 45 48 48 48 51 51 52 51 49 50 53 56
25 24 23 25 25 25 26 27 28 24 26 29 30 26 22 24 24 25 26 26 25 25 28 30 29 31 34 36 39 43 42 50 49 48 49 52 53 52 50 49 50 53 58 61
27 27 24 24 26 30 31 29 29 31 33 32 35 29 28 27 26 25 26 28 29 30 31 31 33 36 39 43 46 49 50 49 49 50 53 53 54 53 50 50 53 57 61 62
28 24 26 29 32 38 30 30 30 32 32 31 33 28 26 25 24 25 26 28 30 31 32 34 37 40 44 47 50 50 49 49 51 53 54 55 53 50 51 54 57 60 64 66
29 27 30 33 35 34 30 28 26 27 29 27 25 25 24 24 24 26 28 30 30 32 34 37 41 45 48 50 51 51 49 51 53 54 54 52 49 50 55 57 62 64 63 65
29 29 31 34 35 33 22 27 27 27 30 24 22 22 24 26 27 27 27 29 31 34 38 42 45 48 49 50 49 49 50 52 53 53 51 48 51 53 59 62 64 64 63 65
30 30 33 35 35 30 23 26 29 28 19 22 22 25 26 25 25 26 29 32 35 39 42 46 48 48 48 49 49 50 52 54 55 53 50 51 53 58 61 63 63 63 64 66
30 32 32 30 29 25 19 24 22 18 19 19 20 21 23 23 25 29 32 35 39 41 43 44 46 47 48 48 49 52 54 56 53 50 51 54 58 60 61 61 61 63 65 66
32 30 27 28 24 20 16 14 14 13 15 18 19 21 24 26 29 32 35 37 40 43 44 46 47 47 48 50 51 54 53 51 49 51 55 58 60 61 60 61 63 65 68 72
32 30 27 25 21 17 14 13 14 16 18 21 23 26 28 31 33 36 40 42 44 45 47 48 48 49 51 53 54 54 53 52 54 56 59 61 61 62 63 65 68 72 75 76
30 30 27 26 22 22 21 20 21 22 24 26 29 31 34 36 39 42 44 45 46 47 49 50 50 51 53 54 54 54 55 56 58 60 62 62 63 64 66 70 74 76 77 78
32 31 30 27 27 27 26 27 28 29 31 33 36 38 41 44 46 47 47 49 50 51 52 52 53 54 56 56 55 55 56 59 62 64 64 64 65 68 72 75 76 78 78 76

GFSCGP_500_spd_030.txt.gz
Wind_Speed
3 3 5 12 14 14 15 16 12 13 8 10 13 10 8 8 7 6 5 11 6 6 5 6 9 9 11 11 8 7 8 5 4 7 5 5 6 5 6 8 12 16 20 24
5 2 6 12 9 9 14 11 9 11 11 5 10 12 11 9 11 9 5 5 10 8 7 7 8 7 6 5 4 6 9 4 5 4 5 6 6 9 11 13 17 21 26 29
8 6 7 13 5 5 12 11 13 13 10 7 5 8 11 12 12 8 6 6 4 6 10 11 10 9 7 4 5 6 9 8 7 9 8 11 13 16 18 18 22 26 31 34
8 7 9 13 11 12 13 16 16 17 13 7 5 6 9 15 15 5 9 9 6 8 10 9 9 8 9 7 7 8 11 9 10 12 11 13 16 19 21 21 28 33 36 40
12 9 12 11 11 15 17 19 17 16 15 9 8 7 7 13 10 7 11 11 14 15 13 10 9 8 10 11 11 12 16 14 11 13 13 14 18 22 24 27 36 39 42 45
17 14 14 14 9 15 16 17 17 16 16 14 10 7 7 7 8 7 11 12 14 16 16 16 16 16 17 16 13 17 24 7 7 12 16 17 22 25 28 32 39 43 46 47
19 16 16 15 12 20 18 12 16 19 19 17 16 14 6 13 16 13 13 15 14 15 19 19 19 20 21 16 12 13 13 14 12 16 19 24 28 30 34 38 44 46 46 47
26 23 17 16 19 23 24 23 18 18 18 19 21 17 8 10 12 7 14 13 12 11 16 19 22 22 19 13 9 9 15 14 16 20 24 27 33 37 40 45 43 42 46 48
26 24 19 18 22 22 21 20 19 20 19 23 23 20 13 13 11 16 9 11 13 16 16 15 15 12 11 10 10 14 17 17 19 23 29 34 38 42 40 39 43 48 47 47
25 23 20 23 26 25 19 18 20 22 24 25 24 22 15 16 13 13 15 16 17 16 15 14 13 12 12 12 14 18 18 22 26 30 34 39 42 40 40 45 42 44 46 53
29 27 21 23 27 25 20 21 22 24 31 29 21 19 14 15 16 17 20 21 19 17 18 16 16 16 18 17 20 23 25 28 31 36 39 40 37 37 42 39 41 51 53 55
29 32 29 24 24 29 25 24 25 25 25 29 24 13 15 16 17 19 21 19 20 20 20 20 19 20 22 23 26 29 29 31 35 38 40 40 38 40 45 50 49 53 55 57
26 28 30 30 30 26 30 24 22 30 22 22 20 11 15 17 18 22 25 23 19 21 21 21 22 23 25 28 30 31 33 34 37 38 39 39 44 49 51 50 53 55 55 56
27 25 24 25 20 24 28 27 29 30 28 22 21 17 17 22 25 27 26 23 21 17 19 21 24 26 28 31 31 32 33 34 38 40 41 47 47 50 50 52 54 52 54 55
29 27 22 21 23 27 28 28 30 29 28 26 21 25 20 23 25 27 27 23 22 21 21 24 25 27 30 32 32 32 33 35 37 41 42 45 48 50 52 55 54 56 56 56
28 26 24 23 25 27 27 25 26 28 28 27 26 26 22 25 24 22 23 25 24 25 26 27 29 30 31 30 31 33 37 41 44 46 47 46 48 52 54 53 55 56 55 55
30 31 30 26 25 26 30 24 27 27 27 28 29 27 28 29 27 28 28 29 27 27 28 30 31 32 30 32 35 39 43 46 48 49 49 47 51 51 50 52 55 57 57 58
30 28 32 30 30 33 21 22 25 30 30 32 33 32 29 29 27 25 26 27 29 29 28 30 30 31 33 36 40 44 47 48 49 50 50 50 52 54 53 55 57 57 57 60
33 30 32 31 28 29 23 23 29 35 29 30 29 29 27 25 24 24 24 26 28 28 29 29 31 34 37 40 44 46 47 48 49 50 50 52 54 56 56 55 54 53 56 64
35 37 34 30 28 29 26 27 27 29 29 25 28 28 24 23 24 25 25 27 28 27 28 31 33 37 40 42 44 45 46 48 49 50 52 54 56 56 55 53 55 59 60 63
34 34 30 28 31 32 29 27 29 34 22 26 25 25 25 25 25 26 25 24 25 28 31 34 37 39 41 42 44 46 48 50 51 52 54 55 55 54 53 56 60 63 66 67
32 33 33 32 34 31 28 28 27 25 26 25 24 25 24 23 22 21 22 25 28 30 34 36 38 39 42 44 46 48 49 51 52 54 54 54 53 54 57 60 63 66 66 66
33 33 32 33 30 30 27 24 22 21 20 19 20 20 17 17 20 23 25 29 32 35 37 39 41 43 45 47 49 51 52 52 53 54 54 54 54 56 59 63 65 66 66 67
30 33 34 31 29 27 24 20 18 17 16 16 16 17 20 22 24 28 31 34 36 39 42 43 44 46 48 50 52 53 54 55 56 57 55 53 56 61 64 66 67 67 68 71
28 30 32 33 29 26 24 23 23 20 19 19 21 22 24 27 30 33 36 38 41 43 45 46 47 49 51 53 55 55 56 57 57 55 54 57 62 65 67 68 68 69 72 76
31 31 33 31 27 31 28 27 26 25 25 26 26 27 30 34 37 39 42 45 47 48 49 50 51 52 55 56 56 58 58 57 54 55 59 62 67 70 70 70 70 73 76 79

GFSCGP_500_spd_033.txt.gz
Wind_Speed
12 8 6 8 14 16 10 7 11 8 5 15 12 11 9 6 7 11 11 13 12 11 11 12 13 12 11 10 8 8 9 7 7 7 6 7 9 9 8 8 9 10 12 16
12 8 6 5 6 7 11 7 8 10 8 10 10 8 6 8 7 8 7 8 9 10 10 10 11 11 12 10 8 7 9 10 8 8 7 9 10 10 13 15 13 13 16 20
11 9 7 6 3 2 12 13 11 12 7 8 11 10 8 11 9 7 6 5 3 5 8 12 15 14 14 13 13 12 16 16 14 14 12 11 13 15 16 18 18 22 23 23
10 11 8 7 5 5 7 14 13 12 12 10 8 11 12 13 11 7 3 5 6 7 9 10 11 11 12 12 12 16 19 18 13 12 11 11 10 13 18 21 21 23 30 30
13 12 8 10 9 7 14 12 14 15 14 11 7 4 7 15 13 8 10 9 9 13 15 14 14 13 14 15 14 15 16 16 15 14 14 11 11 16 17 21 24 27 32 34
14 12 9 12 11 10 17 14 15 16 15 14 11 7 5 11 14 11 12 15 17 19 19 19 19 18 19 18 16 17 19 18 21 20 17 14 15 19 21 24 26 32 34 39
15 16 16 16 14 14 16 15 17 20 21 17 13 10 2 10 16 15 15 17 21 23 25 24 23 22 24 23 19 19 22 20 20 23 16 15 18 20 24 28 31 32 36 38
17 20 18 21 18 16 18 19 18 15 14 14 17 14 10 15 13 13 18 15 18 18 18 23 25 26 27 24 20 20 21 20 21 12 10 16 21 26 29 32 32 31 35 42
17 21 24 22 21 22 22 24 22 20 21 19 17 17 13 16 14 10 11 15 19 17 18 19 25 25 26 24 20 19 19 20 22 21 21 24 27 30 32 33 33 33 38 42
21 22 25 27 26 26 26 25 22 22 21 21 20 17 13 14 16 14 16 17 14 16 17 14 17 17 17 17 18 17 20 21 23 25 28 30 32 33 34 34 36 36 38 46
22 24 26 27 28 28 30 26 24 23 21 20 23 20 14 15 18 16 19 19 18 19 19 18 17 16 18 20 21 22 24 24 28 31 32 33 35 37 37 39 38 40 44 53
23 26 29 25 23 26 31 29 26 21 18 24 21 14 15 14 17 19 20 23 23 23 23 22 21 21 21 22 24 26 26 28 33 32 35 35 36 39 40 41 40 49 51 55
24 27 29 32 30 28 23 27 26 23 28 29 25 15 12 15 16 19 19 21 20 21 24 25 25 24 24 25 26 28 28 31 31 36 35 37 39 42 41 44 46 55 56 56
26 27 28 24 23 26 28 25 29 30 31 31 27 21 19 19 20 19 22 24 20 20 20 22 25 25 26 28 30 30 32 33 36 36 36 39 40 39 45 47 51 53 54 55
26 22 22 19 23 28 27 31 30 29 28 31 26 22 16 20 22 20 23 25 22 22 21 22 24 26 27 28 31 31 33 34 34 35 37 38 39 38 43 48 51 53 54 57
26 23 22 21 23 27 29 28 27 27 28 26 24 22 20 24 24 24 23 24 22 21 23 26 27 27 28 29 30 32 32 32 33 35 39 42 45 47 49 50 51 53 55 55
29 26 24 24 23 28 28 25 25 24 24 26 27 25 26 26 26 28 28 27 26 26 25 26 27 28 29 29 30 30 31 33 36 39 42 44 47 49 50 51 52 54 55 54
31 29 28 29 28 29 15 19 21 22 22 26 27 28 30 29 27 27 28 28 27 26 25 25 27 28 28 28 29 31 33 36 39 41 43 46 48 50 51 52 54 56 55 57
33 33 31 32 30 24 23 21 21 25 21 24 24 25 27 27 27 26 26 25 24 22 22 23 25 25 26 28 30 33 36 38 40 42 45 47 50 51 52 54 55 56 56 55
31 31 31 34 31 25 16 21 21 24 19 20 26 26 26 27 27 26 26 23 20 20 22 23 23 25 28 30 33 36 38 40 42 45 47 49 51 53 55 57 57 56 55 57
33 32 32 33 33 22 21 20 22 25 24 24 26 26 26 26 26 25 23 21 21 21 21 23 25 28 31 34 36 38 40 43 45 48 50 52 54 56 57 58 58 56 56 58
34 33 30 30 30 27 22 23 24 26 25 25 25 24 23 22 22 21 19 19 19 21 23 25 28 32 35 37 39 41 43 45 47 49 52 54 55 57 57 57 54 55 58 61
32 28 28 31 28 26 26 25 24 25 25 23 23 23 18 17 16 15 17 19 21 24 26 30 33 36 39 42 44 45 47 47 49 53 56 57 57 58 56 55 57 60 63 68
35 34 32 30 27 25 27 27 26 25 23 21 18 16 15 15 17 19 21 23 26 28 32 35 39 42 44 46 47 48 49 51 54 57 58 59 59 57 55 57 60 65 69 73
37 39 33 32 29 28 31 28 29 26 25 23 21 20 21 21 22 24 26 29 32 35 39 42 45 47 48 49 50 52 53 56 59 60 60 61 59 58 59 62 66 70 75 77
38 35 33 28 24 29 28 29 30 27 27 28 28 27 27 28 29 31 33 36 39 42 45 48 50 51 52 53 55 55 57 60 61 62 63 61 59 61 64 68 72 74 76 77

GFSCGP_500_spd_039.txt.gz
Wind_Speed
14 13 8 5 12 14 12 18 8 7 6 8 3 3 11 19 13 7 1 2 2 4 7 7 7 6 6 6 5 5 6 8 7 9 9 7 9 9 10 11 12 13 12 13
15 11 10 11 14 16 18 12 11 15 14 8 3 6 8 18 10 6 4 2 2 3 4 4 4 5 5 3 2 2 2 4 4 4 5 8 11 13 14 16 16 15 15 17
16 12 10 9 10 12 15 12 11 17 12 8 8 5 13 17 13 7 4 6 4 4 5 5 6 6 7 7 7 8 7 7 8 8 9 9 11 13 16 17 16 15 16 17
15 14 11 8 10 8 9 13 26 16 12 11 6 13 13 15 18 11 8 8 8 6 5 6 7 9 10 11 10 10 10 11 12 13 13 12 14 15 18 18 19 20 20 22
15 15 12 9 11 13 12 18 18 19 11 15 6 5 11 10 20 15 12 10 9 8 8 8 9 11 12 11 12 13 14 15 17 17 20 21 19 20 21 22 22 22 20 21
20 16 15 11 19 16 15 14 11 15 10 14 9 10 12 11 11 10 19 12 9 9 10 12 13 14 14 16 16 17 19 19 19 19 22 27 26 30 28 26 28 24 21 21
21 16 16 18 18 19 16 12 6 10 14 10 13 15 12 15 7 18 20 14 19 20 16 17 18 17 18 20 22 23 22 21 19 24 19 31 36 26 32 30 22 18 22 27
25 20 19 17 19 16 17 13 14 13 14 15 15 16 9 18 19 13 18 22 24 30 25 21 21 18 17 18 20 23 24 23 22 24 29 24 36 11 5 13 18 21 24 29
26 22 22 22 22 25 17 21 16 25 22 20 13 13 15 16 19 19 20 21 23 22 26 24 21 21 22 24 25 24 25 25 29 22 24 25 22 20 17 21 24 26 29 30
30 23 29 24 26 28 27 19 24 27 20 19 15 16 16 11 18 20 19 20 22 19 20 22 21 20 21 24 27 27 26 26 23 27 23 29 22 23 25 28 28 33 29 32
32 30 29 31 25 28 30 28 25 21 20 19 16 14 13 23 18 23 19 18 23 23 21 21 22 23 22 25 26 25 25 27 26 25 27 27 29 31 32 31 33 32 32 35
36 34 34 30 24 24 24 26 25 27 23 27 31 25 21 19 19 21 20 24 22 24 26 25 23 24 26 26 28 28 27 29 30 28 30 31 33 35 34 36 37 35 35 38
36 41 35 29 26 28 32 27 26 26 28 33 27 23 18 20 19 19 19 22 21 21 24 25 28 29 31 32 32 32 31 32 33 35 34 34 35 36 37 37 37 37 40 41
39 42 37 33 25 21 25 29 28 30 32 31 33 26 19 18 21 24 22 28 25 23 22 25 25 27 31 33 33 35 37 36 36 36 37 37 35 36 36 37 39 40 40 44
47 44 40 35 31 24 21 22 26 29 29 29 23 25 23 24 26 24 28 33 25 25 25 24 26 27 30 29 30 32 32 33 35 34 36 35 36 37 36 38 40 42 43 46
48 46 40 35 34 31 31 33 30 29 28 32 29 27 25 24 31 30 30 30 29 28 26 25 27 27 28 30 30 29 30 32 31 34 34 35 35 36 38 40 41 44 47 49
51 47 44 42 35 31 41 33 30 28 28 28 29 25 23 26 28 29 29 31 29 31 31 30 30 30 30 32 31 31 31 31 33 33 34 34 35 37 39 42 45 48 50 53
53 49 43 40 38 43 25 24 20 27 26 26 23 21 23 25 31 27 29 32 32 35 35 36 35 34 33 34 34 33 33 33 33 33 33 35 37 39 42 45 48 50 53 55
51 44 42 41 42 36 30 25 21 22 24 23 23 20 24 27 27 26 32 33 33 34 34 34 33 33 32 32 31 31 32 32 32 32 34 36 38 41 44 47 49 52 54 57
50 44 43 41 41 39 24 24 18 23 21 25 24 23 27 30 26 28 26 29 30 31 33 33 31 30 29 29 30 31 30 30 31 33 35 38 41 44 47 49 52 55 57 59
42 46 48 41 40 31 27 20 21 29 9 20 20 25 28 29 28 27 27 27 27 29 29 29 27 27 28 29 29 27 28 30 32 35 38 42 45 48 51 53 55 57 60 62
29 49 48 41 39 36 27 19 24 20 30 33 30 28 29 29 26 26 26 26 26 27 27 26 28 29 29 27 27 28 30 33 35 39 44 47 50 52 54 56 58 60 61 61
35 36 44 43 42 32 27 25 21 22 27 35 35 34 33 28 26 25 26 25 24 26 27 27 28 26 27 28 30 31 34 38 42 46 49 52 54 56 57 58 60 61 60 61
54 41 46 45 39 34 32 26 27 26 29 33 35 36 32 29 27 25 26 24 25 26 26 26 27 29 31 33 35 38 41 44 48 51 54 56 57 57 59 60 62 61 62 64
50 44 44 45 41 39 37 28 27 30 33 33 35 37 32 31 28 28 27 27 27 28 29 31 32 34 37 39 42 45 48 51 54 56 57 57 58 59 62 62 61 63 64 67
44 47 50 46 41 44 36 33 31 30 31 31 32 34 34 34 34 31 30 31 32 33 35 37 39 41 43 46 48 51 53 56 58 58 58 58 59 62 61 62 64 66 66 69

GFSCGP_500_spd_042.txt.gz
Wind_Speed
20 17 14 14 13 10 14 13 4 22 20 18 5 24 22 21 20 16 9 6 6 5 10 7 7 6 7 8 9 11 11 12 7 8 10 9 8 10 11 9 11 13 12 14
23 17 15 13 12 10 22 17 9 16 19 23 14 2 22 20 19 17 14 6 5 4 4 4 4 4 4 3 5 6 7 5 4 7 7 6 6 3 3 8 10 12 15 13
22 20 15 11 12 12 16 24 14 21 18 14 11 3 8 22 21 23 16 11 6 6 3 2 3 3 3 4 5 7 8 8 8 6 6 7 7 6 9 13 14 14 16 12
23 19 16 14 12 11 10 11 17 20 13 18 12 10 14 24 22 18 16 10 11 9 7 6 5 4 5 5 5 7 8 10 11 10 10 11 10 10 11 15 16 16 18 17
17 20 18 16 12 11 11 18 21 16 21 13 13 12 9 12 17 22 14 11 9 7 9 6 6 8 7 5 7 8 9 10 13 14 13 15 16 18 17 19 22 23 22 23
25 23 19 16 16 14 14 18 17 19 18 20 12 14 17 15 17 17 21 11 10 8 8 10 8 9 9 10 12 11 12 12 12 12 15 15 14 16 26 29 29 29 27 26
26 29 20 18 19 17 17 14 13 13 11 11 7 15 13 24 4 3 17 20 19 12 15 17 18 13 12 10 11 11 13 14 12 10 17 19 23 17 26 25 33 32 31 29
27 28 24 20 19 19 18 16 15 21 20 19 26 18 13 16 19 15 14 14 21 24 21 19 19 19 15 14 13 13 13 14 13 14 15 23 15 20 20 18 14 13 11 17
33 29 21 25 21 24 20 22 9 23 21 17 4 8 10 16 21 21 21 21 20 23 29 23 18 20 21 19 16 15 16 17 17 18 15 14 20 20 19 18 18 20 23 25
35 29 26 28 23 28 29 18 23 29 23 19 16 16 16 25 13 24 20 22 21 21 22 26 31 16 17 25 23 19 17 20 22 20 18 18 19 20 19 22 24 24 26 28
38 34 25 26 35 27 30 32 28 29 26 28 24 17 26 21 21 10 23 24 26 19 21 22 23 23 26 25 28 33 22 25 25 21 26 26 25 24 24 26 28 27 30 31
41 39 38 31 34 31 29 28 32 31 28 26 27 21 20 17 18 19 20 19 22 16 19 22 23 24 23 23 26 32 30 32 29 26 28 29 30 28 30 30 30 30 33 32
40 44 40 41 28 36 28 28 30 35 30 35 33 23 28 28 25 24 26 24 24 20 21 20 23 24 27 27 29 34 33 35 34 33 30 31 30 32 33 33 34 35 34 35
44 47 46 47 41 26 24 27 28 35 35 29 38 31 30 22 23 28 21 28 31 27 23 23 23 24 27 28 31 36 36 37 40 38 38 32 32 33 33 33 34 36 37 38
47 53 46 47 36 35 29 26 23 29 25 34 36 36 30 27 24 29 11 24 35 34 27 28 26 26 27 27 28 31 34 35 38 38 35 31 32 33 35 36 35 36 37 39
45 51 48 47 42 42 36 31 27 25 28 33 31 29 23 21 31 33 37 29 27 28 31 27 29 33 27 27 27 27 28 32 34 37 35 33 33 35 35 36 37 37 39 41
47 49 52 54 47 44 47 43 35 28 26 30 30 29 30 31 28 30 37 38 31 30 27 30 33 34 32 32 31 31 32 32 33 34 33 34 34 34 34 35 36 38 40 43
44 47 49 48 41 51 44 40 39 42 40 40 36 32 31 29 31 32 34 35 29 28 27 30 33 37 37 36 36 35 34 35 34 33 34 34 34 33 34 36 38 41 44 47
52 49 58 58 52 47 47 40 37 35 32 27 25 31 27 24 23 34 32 28 31 32 33 33 33 33 36 36 35 35 35 35 34 34 34 34 33 34 36 38 41 44 48 51
45 52 54 51 51 54 47 37 32 30 35 23 32 30 30 29 36 35 28 27 27 31 32 30 31 31 33 34 34 35 34 34 34 34 34 33 34 36 38 41 45 49 51 54
44 50 54 58 55 50 42 32 30 33 26 20 22 21 27 32 41 32 27 30 31 30 30 31 30 30 31 32 33 33 33 33 34 34 34 35 36 39 42 46 50 53 55 57
50 48 51 47 52 51 39 36 36 27 19 25 29 26 33 36 37 33 31 32 32 31 30 30 29 29 30 30 30 31 32 33 33 35 37 38 41 45 49 53 56 59 59 59
48 42 37 45 47 45 40 34 29 23 27 30 28 26 33 36 35 33 33 34 34 33 31 30 28 29 30 30 30 32 32 34 36 39 42 45 48 51 55 58 60 61 60 60
43 42 44 35 35 37 26 36 38 36 35 30 30 36 33 40 41 35 35 36 34 33 33 32 30 30 31 32 32 33 37 39 42 45 48 51 54 57 60 62 64 63 62 59
42 50 47 44 46 46 43 24 36 42 39 39 33 37 36 38 38 39 38 37 36 35 34 34 34 34 33 34 37 40 43 45 48 51 53 56 58 61 62 64 64 64 63 63
42 43 50 47 37 34 35 42 40 35 41 37 37 37 35 35 35 38 39 38 38 38 38 37 38 39 41 42 44 47 49 51 53 56 58 60 63 65 67 67 66 65 68 72

GFSCGP_500_spd_045.txt.gz
Wind_Speed
22 18 11 12 14 16 12 8 6 7 16 17 23 19 11 7 13 20 20 7 6 8 10 14 12 10 8 11 15 17 18 22 20 18 15 17 16 15 16 14 18 19 17 13
20 12 15 14 14 15 12 11 11 5 10 19 19 15 19 10 12 15 20 15 8 7 5 5 4 4 5 9 10 12 15 13 13 13 15 13 11 11 8 7 8 11 10 9
22 14 20 17 17 13 11 10 15 17 19 25 15 8 19 11 14 9 17 8 9 8 7 8 5 4 6 6 9 11 12 12 13 12 11 10 9 9 5 3 7 9 9 12
25 20 22 19 14 13 10 14 19 28 27 25 19 11 18 17 15 7 7 8 5 2 5 6 6 7 5 4 6 7 9 9 10 9 6 5 8 8 6 5 6 7 10 14
17 20 21 19 12 15 10 13 16 22 25 19 17 17 8 11 19 15 5 10 4 4 4 3 4 5 2 2 2 2 4 5 4 3 2 5 5 7 8 9 16 17 17 19
27 25 26 19 18 18 16 14 20 21 24 20 12 19 9 22 20 16 23 12 10 4 3 4 6 3 5 5 3 4 3 3 3 4 4 4 4 8 9 11 17 15 20 23
29 28 25 24 24 21 20 17 16 19 20 6 20 22 16 15 23 14 16 12 9 10 4 3 4 9 7 6 6 4 7 7 10 11 10 10 10 10 9 13 16 17 14 24
33 30 27 22 25 21 23 19 18 17 17 16 18 17 13 11 11 18 18 16 11 15 18 15 12 9 13 11 10 9 11 13 12 14 14 13 14 14 7 10 8 11 13 9
34 30 24 25 24 23 20 21 17 23 23 22 19 20 18 12 20 22 20 20 22 20 20 24 23 17 12 13 11 9 9 10 11 10 12 13 14 13 14 12 11 12 13 14
33 33 30 28 26 27 26 22 26 26 26 19 13 13 19 19 21 25 21 19 18 18 23 23 25 26 20 10 20 17 14 13 13 12 13 17 18 16 17 17 18 17 18 20
33 36 35 35 36 32 28 32 31 26 30 26 25 17 18 22 24 28 26 27 15 13 20 20 24 24 25 22 15 25 20 26 26 17 17 19 26 25 24 20 20 20 24 25
32 38 41 36 37 32 32 32 31 35 28 31 32 24 29 23 26 28 21 25 19 16 12 15 21 24 25 28 26 26 21 12 23 25 19 24 29 34 34 25 16 22 26 27
31 40 44 41 36 42 38 36 30 33 37 36 38 24 20 29 23 26 20 20 28 22 17 10 14 20 25 30 31 27 25 24 24 22 24 27 32 28 24 26 27 27 27 27
35 40 45 45 40 37 40 33 33 33 41 37 42 34 31 28 17 21 27 26 31 35 29 23 18 15 20 24 28 31 28 27 26 27 30 31 33 33 31 33 31 29 29 32
44 44 45 46 40 44 38 32 35 30 32 38 32 33 27 32 33 31 36 34 32 32 25 25 22 18 17 22 26 30 32 31 30 32 32 32 34 32 33 33 33 33 34 35
49 47 48 49 46 45 48 48 31 34 31 28 34 32 27 27 28 26 27 32 33 27 34 25 27 27 22 19 24 27 30 32 34 33 33 32 34 36 35 35 35 37 35 35
50 48 49 48 45 43 52 50 48 41 38 29 34 32 28 27 30 32 30 36 34 35 31 24 28 31 28 23 25 29 32 33 34 34 34 34 33 31 34 36 36 35 34 34
52 46 48 51 48 52 43 45 49 48 37 34 36 33 32 31 33 32 33 41 35 37 30 24 28 31 31 32 32 34 35 34 33 34 36 37 35 33 33 32 33 34 35 36
32 40 40 47 51 48 48 49 42 48 46 41 41 39 34 33 37 43 37 35 41 39 37 32 30 32 31 31 33 32 31 31 33 34 35 35 35 35 35 36 36 36 37 39
49 34 47 62 49 49 47 48 43 46 50 45 46 42 45 38 39 41 37 35 35 33 35 33 32 34 33 32 31 32 30 31 33 34 35 35 36 37 38 37 38 39 42 45
50 34 33 55 56 41 46 41 36 45 41 33 32 39 42 36 34 35 40 41 41 37 35 32 33 35 35 33 33 32 31 32 33 35 35 36 38 39 38 40 41 44 47 51
57 49 38 48 44 44 44 35 39 43 36 27 30 32 27 31 40 41 37 37 39 34 34 34 35 35 36 34 33 32 32 33 34 35 37 39 39 39 41 43 46 49 52 56
52 52 44 32 42 40 40 40 40 35 40 42 39 40 38 40 37 40 35 42 42 36 34 37 37 37 37 36 35 34 33 34 36 39 39 40 41 43 45 47 50 53 57 61
32 45 50 38 28 44 47 44 40 46 43 40 30 40 35 36 35 38 36 40 40 40 41 41 40 39 39 37 35 35 35 38 40 41 42 43 46 48 50 53 57 60 63 64
37 41 47 45 37 31 37 46 48 43 44 47 47 45 42 44 41 43 39 40 42 44 44 43 41 40 40 37 37 37 39 41 41 43 45 49 52 54 56 60 64 66 68 70
40 37 39 40 37 42 34 40 42 44 46 49 49 45 47 48 51 39 36 38 40 41 44 45 44 42 40 40 40 41 43 44 45 47 50 54 58 60 62 66 70 72 73 71

GFSCGP_500_spd_048.txt.gz
Wind_Speed
23 13 9 20 18 17 15 14 16 19 13 12 9 6 8 1 8 10 14 8 6 5 8 9 8 6 9 12 12 18 27 24 14 8 16 20 20 21 23 21 18 19 22 26
25 11 18 23 20 19 16 14 15 19 14 13 11 7 8 1 5 10 11 5 4 7 5 3 3 4 5 7 11 16 18 21 19 15 15 18 17 19 17 13 16 17 20 18
25 14 26 23 23 21 16 16 13 14 20 23 21 11 16 8 2 3 5 4 3 5 5 3 3 3 6 9 9 14 14 14 13 15 16 15 12 14 12 11 9 12 11 13
30 24 27 26 22 21 19 18 13 19 21 26 20 19 14 12 8 2 1 6 4 4 5 4 6 7 5 6 9 11 11 9 9 10 12 13 13 13 14 12 10 9 9 13
23 24 26 27 20 25 21 19 14 16 22 21 13 23 14 18 6 4 4 6 3 2 5 5 4 2 2 2 3 4 5 4 5 6 6 7 8 7 7 4 1 4 11 16
32 29 32 28 26 27 22 18 19 18 19 18 13 23 14 19 12 6 6 2 3 2 2 5 6 6 5 2 3 1 0 1 0 2 1 1 0 0 1 1 1 5 7 17
30 32 31 31 30 27 26 21 23 22 21 13 17 22 9 18 18 12 5 5 2 2 3 3 6 9 9 8 4 3 3 3 5 5 5 4 7 6 10 9 9 8 6 7
33 32 30 27 26 26 27 25 24 23 22 18 22 19 7 20 18 16 9 6 7 6 9 5 8 10 10 13 13 10 11 9 7 6 7 7 9 9 10 10 9 10 8 7
32 32 28 30 27 28 27 31 22 29 25 21 21 20 19 20 20 19 15 8 8 8 9 8 9 12 9 14 14 15 15 13 11 12 8 9 11 11 12 14 14 14 14 14
28 32 29 32 31 34 31 24 29 32 26 24 20 27 18 25 23 18 18 11 13 11 7 11 13 12 11 12 10 12 20 16 16 23 22 18 17 16 18 20 21 20 20 17
31 32 27 35 41 37 35 34 33 35 33 29 21 23 20 22 13 20 20 17 24 16 16 14 10 10 10 9 15 17 19 15 18 21 27 24 18 20 23 26 29 28 25 22
37 30 33 35 38 39 38 36 36 40 36 29 30 23 25 21 26 26 24 24 25 18 15 17 14 11 9 8 10 12 16 21 22 25 24 23 18 21 23 30 31 38 26 22
44 42 39 37 41 42 44 42 40 38 39 37 37 28 25 27 23 26 27 33 26 23 19 17 20 21 17 14 12 13 14 16 17 21 24 25 20 21 25 28 22 15 29 26
48 51 49 45 38 42 44 42 40 40 41 39 38 29 31 33 25 22 28 32 37 32 25 24 27 26 27 24 19 18 19 20 19 23 24 25 25 27 29 28 25 23 28 28
40 46 51 51 44 44 44 42 39 42 41 43 36 35 28 33 33 33 32 37 39 33 34 35 28 17 20 20 22 25 27 27 28 27 26 27 28 29 26 28 29 30 31 29
43 35 47 54 52 48 48 46 45 45 44 44 43 39 30 32 32 32 30 36 38 37 37 34 28 30 29 26 21 23 29 31 32 32 32 30 29 30 29 29 30 33 33 35
50 43 50 52 49 49 54 50 49 46 46 46 46 38 24 31 33 36 36 38 39 37 34 30 30 30 30 28 27 26 29 30 32 33 34 32 30 30 30 31 33 34 36 38
50 43 36 50 53 49 48 48 48 48 47 46 46 38 34 31 35 38 38 37 31 36 41 35 34 32 35 30 27 29 33 35 35 36 34 34 34 33 34 34 34 36 36 37
57 44 43 36 55 50 52 45 43 47 46 50 47 40 40 38 38 37 34 35 36 37 38 38 33 38 32 26 28 29 30 32 33 34 34 35 36 37 37 35 37 39 38 39
66 59 49 30 41 52 47 43 45 50 47 48 48 50 47 41 42 39 37 37 40 41 40 39 34 31 33 33 32 32 32 32 32 33 35 36 38 38 38 41 42 42 43 43
64 62 64 53 37 33 53 47 45 47 50 48 46 48 50 50 51 49 43 46 43 43 43 37 36 37 36 38 34 32 33 33 33 33 34 35 37 40 43 44 44 45 46 47
45 54 60 51 46 21 20 35 52 45 49 49 49 47 47 55 55 50 43 38 41 44 43 40 36 35 39 39 37 34 34 34 34 35 36 37 39 41 42 43 45 47 48 50
40 43 56 57 55 30 25 22 50 47 40 40 43 45 50 45 46 43 40 32 39 44 43 43 41 43 44 42 41 38 37 37 38 39 39 39 41 42 43 45 47 48 51 53
35 32 34 35 39 37 35 22 38 40 42 36 35 36 44 47 42 44 43 38 39 45 45 42 43 41 40 42 44 43 41 40 42 43 43 43 43 44 46 46 49 52 55 57
34 44 41 26 26 35 32 32 28 37 34 35 39 38 35 45 48 52 46 44 48 41 41 45 44 46 44 46 47 47 45 44 44 46 46 45 46 47 49 52 55 58 60 62
34 44 38 33 31 33 32 33 31 29 41 48 47 44 37 38 43 42 41 43 41 40 39 40 39 42 40 41 44 46 48 47 47 47 47 48 51 53 55 58 60 62 65 68

GFSCGP_500_spd_054.txt.gz
Wind_Speed
34 31 20 18 21 26 34 29 24 22 25 20 19 19 23 20 12 10 12 9 6 6 6 4 5 7 7 7 12 18 20 25 26 20 26 22 25 25 23 24 24 22 25 27
37 24 21 25 24 23 26 27 23 23 25 25 21 18 17 22 12 9 12 9 9 8 8 9 9 9 9 7 12 15 11 26 33 24 27 26 26 30 30 34 27 21 26 27
35 27 28 28 27 25 22 20 23 23 28 27 25 18 20 20 12 10 8 8 9 8 8 9 10 8 7 5 5 10 11 9 11 18 30 32 34 33 33 32 29 27 25 30
40 35 33 32 30 28 19 22 27 26 28 26 30 17 21 18 14 12 8 6 7 8 7 8 8 6 5 2 3 4 6 9 10 13 12 16 24 29 33 30 29 30 28 30
41 34 36 35 27 31 14 29 29 30 28 28 25 25 10 18 13 15 12 10 7 9 6 6 6 4 3 4 3 2 2 4 4 7 9 9 9 12 23 22 17 16 16 15
44 39 41 34 32 36 27 34 33 33 29 28 21 30 14 14 15 18 15 13 12 11 9 6 6 5 4 4 5 6 4 3 4 6 7 10 13 16 18 17 18 20 19 21
41 41 41 39 39 39 31 34 35 35 30 26 23 33 17 13 14 18 19 16 11 11 11 10 7 5 6 6 5 6 6 5 5 6 6 7 7 10 12 14 12 15 18 18
38 39 39 37 36 33 32 34 36 33 35 30 29 33 21 15 15 14 20 19 14 13 13 12 12 10 10 11 6 10 11 10 9 7 7 8 9 11 16 17 17 17 14 15
37 36 37 37 33 35 35 38 30 35 36 36 32 30 23 19 17 10 16 22 16 13 18 17 16 12 12 13 14 9 10 15 15 13 10 9 10 12 16 18 16 19 20 18
38 36 35 37 37 39 40 37 37 39 40 40 36 29 22 23 17 16 14 19 18 17 19 16 16 13 12 12 14 14 14 16 17 16 15 14 14 17 19 19 18 20 21 22
40 42 38 40 40 39 38 40 40 39 41 41 38 29 21 21 22 19 18 22 18 19 20 14 14 15 12 13 12 13 17 17 18 21 20 21 16 19 16 17 21 23 25 25
40 41 39 43 42 37 39 41 43 44 42 41 39 35 23 18 17 19 24 19 25 21 23 18 17 18 14 18 18 15 14 18 21 22 19 17 20 23 25 19 19 26 31 28
44 46 44 39 41 44 44 45 44 44 44 43 42 40 22 24 23 20 20 19 21 27 26 25 25 21 21 20 23 21 20 20 21 24 22 23 23 26 24 24 25 19 27 23
47 48 47 45 42 45 45 45 46 46 46 46 43 41 28 25 24 25 28 27 25 26 27 27 29 22 21 23 22 26 27 29 26 26 27 27 26 26 26 29 31 24 26 29
50 49 50 49 45 47 47 48 47 48 48 46 44 44 35 32 32 30 31 35 32 31 31 28 25 22 25 27 28 29 29 25 24 24 25 26 28 29 29 28 30 31 32 36
48 45 45 48 49 46 48 49 48 49 51 50 49 46 41 34 33 36 30 29 34 31 34 35 35 33 32 28 28 23 28 28 27 27 26 30 35 33 31 30 30 32 34 33
47 47 47 47 45 47 49 50 50 53 52 53 53 51 46 42 37 35 39 36 35 34 32 31 32 34 29 23 28 29 24 30 35 37 35 34 35 38 36 36 37 37 36 38
49 43 48 43 40 45 44 42 48 49 49 50 54 54 51 49 44 37 39 38 36 36 35 30 32 33 29 26 21 23 26 31 37 39 40 37 35 36 35 36 35 37 38 40
55 53 54 50 56 46 42 36 35 42 46 45 54 55 55 54 49 41 38 42 42 37 36 32 28 27 32 29 25 26 29 30 35 34 36 39 39 37 34 36 36 35 38 39
25 30 42 42 54 54 44 50 45 40 40 29 45 53 55 52 50 48 38 44 45 43 41 39 36 34 33 31 32 34 32 29 30 28 31 34 34 36 34 35 36 37 38 41
24 24 21 25 31 26 29 53 58 57 49 42 34 41 47 49 44 45 37 38 44 42 40 40 40 38 38 34 36 39 37 32 31 36 37 38 37 38 38 38 39 38 39 41
24 23 20 21 23 23 26 31 38 44 57 51 37 43 46 42 45 49 44 39 37 42 43 45 47 45 46 42 41 41 38 38 37 36 37 39 41 42 43 44 43 45 43 43
31 30 29 26 21 24 26 31 35 36 44 58 44 42 45 44 45 41 42 39 36 40 40 41 41 39 42 46 49 46 46 40 40 40 42 43 42 44 45 46 46 46 48 47
36 37 35 31 29 27 28 32 28 28 30 44 44 30 32 44 48 52 47 43 36 39 40 42 43 45 46 44 41 40 40 42 47 45 42 41 43 44 44 46 49 50 51 53
38 39 39 37 36 32 32 36 33 33 32 30 38 59 40 34 45 44 43 40 36 36 41 43 45 47 44 44 43 42 47 47 48 47 48 46 47 48 47 48 50 51 52 54
40 39 39 39 38 36 37 35 31 28 26 23 27 28 33 35 35 41 40 40 41 39 41 43 44 42 48 44 50 47 51 55 56 58 51 47 46 48 52 52 54 56 57 58

GFSCGP_500_spd_057.txt.gz
Wind_Speed
37 36 26 21 20 27 30 28 24 22 25 21 16 14 17 12 14 21 21 16 16 13 11 10 12 10 10 12 12 16 19 21 23 26 26 22 19 23 21 24 24 26 29 30
42 35 25 29 26 28 30 28 22 21 26 25 17 15 16 14 12 19 22 17 13 16 14 11 13 13 11 10 12 19 11 23 26 28 24 24 28 23 30 25 24 29 24 28
40 32 34 32 27 27 28 24 23 21 25 26 18 15 14 14 13 17 21 16 11 13 14 11 10 11 11 9 10 13 14 9 25 23 30 25 27 26 29 27 26 27 31 30
43 39 37 34 31 29 29 25 24 22 28 27 19 9 8 17 12 16 22 19 10 10 12 10 8 7 6 8 9 8 7 8 3 14 26 22 27 25 26 29 29 34 25 25
40 35 37 36 30 33 28 27 29 29 30 23 22 18 3 11 10 15 22 22 14 8 10 9 7 8 7 6 6 7 6 1 4 4 5 9 15 27 29 35 32 34 29 24
45 41 42 38 32 35 33 33 35 33 31 24 19 21 4 6 12 17 22 21 17 11 11 10 7 5 4 5 7 7 5 5 5 5 8 8 9 6 17 25 23 23 24 19
42 43 42 38 38 38 37 39 37 38 32 22 24 25 9 8 12 18 21 22 20 11 12 12 10 7 4 5 7 7 7 7 6 7 9 8 8 8 10 14 16 16 17 19
33 39 43 41 40 35 36 37 40 35 34 29 28 28 13 9 12 19 20 22 20 13 8 11 13 12 9 11 11 11 12 12 9 7 8 10 9 10 12 13 15 15 17 19
29 29 35 39 38 38 39 42 36 37 39 34 31 30 15 12 12 20 20 20 22 19 15 15 17 16 16 14 13 14 13 12 11 13 12 10 8 9 11 14 17 19 19 21
34 31 31 34 38 40 41 39 39 42 40 35 35 32 17 17 14 14 18 18 24 25 18 17 17 16 16 15 15 12 13 13 13 11 14 14 15 15 15 15 17 18 18 21
37 38 39 39 38 38 37 40 41 39 39 38 38 34 19 19 13 13 18 18 19 22 20 17 17 15 15 15 13 12 13 16 16 16 16 17 16 21 20 19 16 15 22 24
35 41 38 39 38 34 34 38 39 42 42 40 38 38 25 19 14 12 17 21 21 25 26 21 23 20 18 19 15 13 14 13 14 18 19 21 22 23 23 19 24 24 21 21
36 38 37 39 38 35 37 37 39 41 42 43 41 40 27 22 20 18 17 20 22 26 30 29 25 23 23 24 20 20 19 20 21 20 20 18 19 20 23 28 31 27 27 22
38 38 38 38 38 39 43 43 43 44 44 44 43 41 37 25 28 23 22 23 26 29 29 30 27 25 26 27 28 25 23 21 22 25 27 24 22 22 24 27 28 31 31 32
44 43 40 39 38 36 38 39 41 44 45 46 45 44 42 33 32 31 31 25 28 30 30 31 32 32 31 33 33 33 30 31 30 30 28 22 23 22 23 25 29 34 37 36
50 47 46 44 43 41 42 41 42 43 45 48 48 47 47 42 35 35 35 33 32 30 33 34 31 32 34 33 34 33 32 32 33 31 28 28 26 24 25 28 30 32 34 36
45 44 43 43 43 43 46 44 40 39 43 45 45 47 48 46 41 36 40 37 37 33 30 29 30 29 30 32 32 30 31 33 34 33 33 31 32 32 33 35 37 40 38 37
48 46 44 41 35 41 39 37 40 41 41 44 46 49 51 52 46 41 39 42 42 39 34 28 32 34 30 29 27 26 30 28 27 30 30 34 38 41 42 41 42 40 39 39
47 45 43 44 44 43 41 36 35 35 33 32 43 50 54 54 53 46 41 42 43 41 39 35 31 31 28 29 26 26 26 27 28 26 32 35 38 40 44 47 44 42 37 37
36 43 44 42 46 41 39 41 42 40 40 43 42 43 47 51 55 54 49 45 40 42 45 44 37 35 33 31 30 30 29 33 34 33 32 33 35 37 36 37 37 38 36 35
20 20 20 22 22 20 19 27 35 44 51 52 52 50 48 44 48 51 44 43 44 39 43 46 45 40 38 35 37 36 34 36 39 36 35 37 39 42 40 37 37 40 40 40
20 19 18 16 14 15 20 26 26 28 29 39 52 56 54 54 47 45 41 39 38 37 35 38 41 44 45 40 38 38 40 40 43 41 40 44 42 41 42 40 43 44 43 44
21 20 20 18 18 17 19 22 23 23 25 30 30 34 51 56 52 49 48 38 39 34 36 37 41 43 41 43 45 41 41 43 44 43 44 45 46 43 41 45 47 46 44 46
26 24 23 23 23 24 23 25 26 27 27 29 29 30 32 36 57 49 46 42 41 40 37 35 37 38 41 44 43 38 37 38 40 41 40 43 48 43 48 50 51 51 49 50
30 29 29 28 29 30 30 30 31 32 32 32 31 28 30 33 33 49 44 41 48 47 49 47 42 41 41 42 42 44 41 37 40 42 42 42 49 51 50 51 53 51 46 49
28 29 30 30 31 33 34 34 36 36 36 34 35 32 30 33 27 32 42 41 38 44 50 43 47 40 43 40 42 41 41 45 41 48 49 49 52 56 57 59 59 58 54 55

GFSCGP_500_spd_060.txt.gz
Wind_Speed
38 39 37 26 28 26 24 27 25 27 27 21 17 13 16 17 13 17 16 14 17 20 16 13 14 12 11 11 9 10 16 21 21 22 20 20 21 30 34 34 29 30 27 33
43 42 31 31 33 30 28 30 26 25 24 25 20 16 14 18 15 16 13 14 17 19 18 12 12 12 10 10 10 11 20 18 25 28 26 23 22 28 31 30 32 32 31 32
44 36 34 34 35 32 28 29 24 22 23 26 21 19 16 16 13 16 16 15 17 17 19 11 12 11 10 8 9 11 15 5 17 28 27 25 23 23 28 22 26 26 24 24
44 40 37 38 37 31 32 28 28 25 25 25 22 20 10 12 14 16 19 16 18 16 18 12 10 11 8 7 8 8 9 10 3 18 19 22 21 25 23 14 19 22 19 28
42 42 39 36 31 33 26 35 30 27 28 29 23 20 11 12 16 16 18 19 21 17 14 13 8 8 6 4 5 6 5 4 2 5 10 17 26 25 25 29 27 25 27 26
41 42 42 42 36 35 36 38 33 31 32 30 24 18 13 9 15 17 19 21 19 16 15 13 11 8 7 5 5 6 5 3 3 4 5 5 6 11 19 29 28 27 30 33
40 43 42 42 41 39 39 38 35 36 41 29 31 17 17 13 13 17 17 17 17 18 13 14 13 10 8 7 9 7 7 6 5 6 7 7 8 10 8 14 30 29 24 26
36 40 42 46 41 36 34 34 35 40 40 30 36 27 18 14 13 16 20 18 17 19 15 16 15 12 10 11 12 9 8 9 8 6 8 10 9 10 9 7 6 11 15 16
37 35 38 46 44 39 39 45 40 40 41 37 39 34 17 18 15 12 15 18 17 20 16 16 18 17 13 14 15 12 11 10 9 9 13 10 9 11 12 12 11 15 15 15
34 34 32 32 41 43 43 45 42 43 43 42 38 34 20 17 17 12 15 17 22 20 22 21 19 23 17 15 15 14 13 9 9 8 10 15 14 13 13 14 16 19 21 21
28 29 33 31 35 33 39 42 42 44 43 40 34 31 23 21 18 14 16 17 18 21 24 24 22 22 21 16 14 16 12 12 12 12 11 11 14 16 15 14 18 21 20 21
24 28 28 31 31 31 33 37 39 42 41 41 39 32 31 21 16 15 18 19 19 19 21 24 24 24 24 18 15 17 15 14 15 14 14 12 15 15 15 16 21 21 23 23
24 30 31 30 37 37 33 34 36 39 39 44 39 38 34 27 21 19 20 22 22 21 22 25 27 28 28 27 24 21 23 20 21 20 17 18 18 17 16 17 19 22 26 27
32 24 30 34 37 37 32 32 32 34 36 36 37 37 35 28 28 27 28 28 26 28 29 30 31 33 30 29 29 27 26 28 27 26 22 21 22 24 25 26 24 23 25 25
34 34 28 32 34 36 35 34 33 35 34 36 36 37 35 32 27 29 28 28 31 33 33 35 34 34 34 31 31 32 34 34 35 32 34 31 30 29 31 28 27 27 26 26
44 37 34 32 30 32 34 32 29 30 31 35 36 37 39 35 33 32 33 31 32 36 39 38 37 37 35 35 35 37 37 36 37 37 38 36 34 31 31 30 30 31 29 29
42 40 39 35 35 36 36 31 31 33 31 32 34 37 40 39 38 36 34 37 37 35 36 40 42 41 41 39 39 40 40 40 39 39 41 40 37 34 35 37 37 35 35 36
44 41 39 36 31 38 38 33 34 34 35 40 41 41 41 42 43 41 40 35 37 37 38 37 37 41 41 41 42 38 39 40 43 43 44 37 36 32 34 37 41 41 42 42
46 46 39 37 39 40 38 33 27 29 33 33 37 43 46 45 44 43 47 43 43 41 42 41 38 36 32 33 43 40 37 38 42 40 41 36 33 34 35 35 37 42 46 43
48 47 45 45 46 42 38 37 36 31 33 39 40 42 44 44 41 39 44 46 45 43 44 43 40 37 38 39 37 40 37 34 36 38 40 40 38 40 39 38 37 36 38 36
30 35 36 39 40 40 33 36 37 39 40 38 40 44 44 44 47 46 46 44 44 41 39 40 45 44 42 39 42 42 42 39 38 40 41 42 43 44 44 43 43 43 40 43
20 19 18 18 19 20 18 19 21 25 24 25 28 32 37 39 44 51 55 54 51 45 40 38 38 43 46 42 44 46 46 47 44 43 45 45 44 49 49 49 49 48 47 45
20 18 18 19 20 19 17 16 15 14 14 15 18 24 31 35 35 36 37 39 49 53 50 44 41 42 46 46 43 46 44 48 49 48 54 52 48 51 54 56 55 49 51 48
22 21 20 18 19 19 20 18 17 18 19 19 20 22 25 29 31 31 34 39 39 42 51 45 43 44 46 46 47 47 46 46 48 52 53 49 47 51 52 52 51 56 65 66
23 21 21 20 21 22 23 24 24 25 25 25 27 28 26 27 31 32 33 36 37 42 38 47 42 48 48 44 46 48 47 48 49 51 50 48 49 50 51 53 54 55 59 66
22 22 24 25 25 27 27 27 28 30 31 32 33 33 33 32 33 34 36 34 34 31 38 38 40 47 49 54 47 48 50 48 50 51 49 52 48 50 54 64 63 58 54 58

GFSCGP_500_spd_063.txt.gz
Wind_Speed
51 51 48 43 39 32 32 21 19 24 20 28 20 19 18 22 18 21 18 17 14 15 12 10 13 11 11 13 13 13 14 15 20 21 21 18 18 16 24 29 35 41 39 30
56 53 50 46 40 37 34 28 28 27 25 25 21 22 21 23 20 20 21 19 16 14 11 9 11 11 11 12 12 12 16 21 23 24 26 25 20 20 21 25 27 32 35 31
46 50 49 48 43 39 32 29 28 28 22 25 23 24 22 22 23 21 19 19 19 11 12 8 8 11 9 9 11 12 14 20 15 15 25 24 19 17 21 27 29 28 23 23
42 49 50 46 43 40 33 29 29 34 28 26 19 22 21 20 22 22 21 17 18 12 12 9 7 9 5 7 10 10 12 13 14 2 13 16 17 17 22 17 19 21 21 22
41 46 46 45 43 39 32 33 36 36 27 28 28 23 14 16 19 22 22 19 18 13 10 12 8 8 5 4 6 10 9 9 8 6 7 12 15 21 24 19 16 20 15 16
46 47 51 45 42 40 34 38 39 35 26 33 26 24 15 11 16 19 23 19 19 11 10 12 11 10 8 4 5 8 8 7 6 5 4 5 8 12 18 21 18 19 21 23
43 51 49 44 42 41 40 38 34 31 31 31 26 23 20 15 20 20 20 19 17 12 11 12 12 11 11 7 7 7 7 7 8 6 8 7 7 8 6 8 11 25 29 29
35 47 48 46 48 44 40 39 37 30 28 29 27 29 17 19 19 22 21 20 18 11 14 14 16 13 13 11 11 10 8 7 8 7 8 8 10 10 8 7 8 8 23 25
22 30 35 43 44 46 41 42 35 30 22 30 26 26 23 26 18 17 19 22 20 16 16 15 18 15 14 15 15 12 11 10 8 8 8 11 10 10 10 11 10 8 8 9
13 25 30 35 39 44 43 35 37 37 35 31 24 14 14 24 20 18 20 21 23 18 18 18 19 19 18 17 16 15 15 12 9 9 9 9 11 15 13 12 11 12 13 15
16 14 26 32 37 36 40 44 42 39 43 32 29 25 25 28 23 19 20 24 25 22 22 21 23 24 23 19 19 18 16 15 15 12 11 11 11 13 17 15 15 17 18 18
22 18 19 16 23 29 32 40 40 37 29 37 36 25 22 26 29 24 19 20 24 24 23 23 25 25 26 25 23 20 17 18 19 20 17 14 15 15 13 19 22 22 21 22
30 22 15 18 22 30 35 27 29 35 40 26 29 33 25 21 30 26 26 26 25 25 25 24 27 28 28 29 27 25 22 21 25 23 23 20 18 17 16 17 18 19 21 24
31 28 22 25 25 16 30 25 32 33 34 35 36 29 25 27 34 34 29 24 24 24 27 28 29 30 31 31 30 28 29 30 28 25 26 25 24 21 24 25 25 25 24 23
30 26 26 23 24 32 23 30 33 31 27 30 28 27 31 35 36 27 28 31 31 31 29 32 33 33 35 35 34 34 32 33 32 31 30 30 31 32 33 31 33 32 32 31
32 28 27 28 24 23 25 25 24 24 22 21 20 23 18 33 29 27 27 27 32 35 36 35 36 37 37 37 37 37 36 36 37 36 33 33 33 34 36 37 33 36 35 37
40 36 30 33 27 27 25 24 25 24 25 22 20 20 31 31 30 29 30 30 30 30 32 35 41 43 43 42 41 42 42 42 42 39 39 37 36 37 38 39 39 38 38 40
47 46 45 37 26 28 29 28 25 25 24 26 28 31 31 33 31 30 34 30 32 32 33 36 39 41 47 47 48 48 47 48 46 44 44 44 42 42 43 42 40 39 38 39
54 44 38 43 41 39 38 32 29 25 22 27 32 34 36 35 29 33 41 37 35 34 36 36 36 36 38 43 47 51 53 50 50 48 47 47 46 47 47 42 42 40 38 36
52 53 47 46 44 40 37 41 30 24 24 36 34 33 32 32 28 34 42 38 37 37 37 38 40 39 39 38 39 45 42 38 55 50 50 50 48 50 50 46 46 46 45 43
51 52 51 48 45 41 34 41 32 32 35 44 39 38 35 34 39 36 44 44 42 42 42 41 41 41 39 38 40 44 45 45 45 44 51 53 50 49 50 51 51 50 51 52
30 36 40 42 43 45 47 43 39 41 39 36 37 35 35 33 32 31 33 37 41 41 42 45 48 49 44 41 38 40 46 48 48 47 49 52 52 51 54 56 54 54 54 58
22 23 23 27 29 28 28 25 25 24 23 24 22 18 19 21 24 27 31 33 35 37 39 42 43 43 48 53 47 44 44 45 49 51 52 56 55 56 58 58 58 59 62 65
11 21 19 17 16 21 19 19 18 16 16 17 18 19 22 24 24 23 25 30 34 39 40 43 46 47 45 46 50 45 45 46 51 54 57 57 62 62 64 64 67 70 72 71
22 20 23 21 22 21 22 21 22 22 21 21 22 22 23 25 27 28 29 31 33 35 39 39 41 44 46 46 46 43 45 49 54 55 56 55 56 57 60 64 66 65 65 64
24 24 22 22 22 21 21 23 24 24 25 26 27 28 29 32 33 33 32 34 34 35 38 44 44 37 37 41 41 44 39 35 55 55 57 53 52 55 59 62 63 64 63 63

GFSCGP_500_spd_069.txt.gz
Wind_Speed
39 42 38 34 37 38 39 45 37 36 28 36 29 22 21 19 21 25 22 19 22 21 11 13 15 14 14 8 10 7 8 11 14 14 18 20 17 17 15 17 20 25 28 34
39 38 30 31 40 38 37 43 39 32 30 31 29 20 23 26 30 28 22 21 19 21 12 12 14 14 14 11 7 8 7 8 12 17 19 18 17 17 14 15 15 15 22 20
36 29 26 32 37 39 41 43 34 30 38 38 25 28 31 21 19 25 26 20 20 19 9 6 13 12 13 12 7 6 8 9 13 16 17 13 8 14 13 9 8 9 15 19
30 26 25 33 37 35 37 48 39 38 43 41 26 26 33 30 27 21 21 22 21 19 18 4 14 14 12 13 8 5 9 12 13 11 11 4 3 7 6 6 8 7 10 16
25 27 27 31 34 37 37 50 48 50 52 41 36 33 26 27 26 21 19 16 22 21 20 12 16 15 13 12 9 8 10 13 11 9 8 5 1 5 6 9 7 10 6 18
22 25 25 30 32 40 36 51 51 51 47 53 40 42 27 20 13 15 19 15 20 20 19 8 14 15 15 13 10 10 11 12 9 8 6 6 5 3 2 6 7 7 6 2
20 20 25 25 31 36 37 44 51 51 49 55 39 40 23 15 18 17 14 17 24 16 16 10 12 17 17 16 15 12 10 12 11 10 7 5 5 3 3 3 2 4 12 13
15 17 26 24 23 23 35 39 45 46 46 49 34 43 19 16 23 20 21 27 29 20 20 13 14 19 17 18 17 13 12 11 12 10 9 5 5 6 3 2 2 4 6 14
15 12 18 16 26 24 24 36 35 45 50 41 39 28 19 22 17 20 27 27 27 22 20 16 18 19 19 19 18 14 14 12 11 11 10 6 3 3 7 6 4 5 7 8
15 11 10 15 28 30 20 20 35 39 41 41 33 32 21 20 18 23 19 20 26 24 22 21 17 20 22 22 20 17 16 14 12 12 11 8 6 6 6 6 9 8 7 5
17 11 12 15 11 30 24 27 36 35 39 36 30 32 33 28 28 28 27 29 31 28 24 22 17 22 23 24 23 22 17 16 14 13 11 10 10 10 11 9 8 9 11 10
20 14 14 11 11 17 25 36 32 42 42 35 29 32 39 31 32 34 33 33 30 26 23 21 21 20 24 26 25 26 22 19 18 16 15 13 12 12 13 12 10 8 9 9
25 19 16 14 16 16 21 20 37 39 43 40 40 35 44 29 44 39 34 32 24 27 25 26 27 26 25 28 31 27 28 27 22 20 19 18 17 15 16 17 15 14 14 13
26 21 20 20 18 15 20 25 27 42 39 24 42 40 23 33 34 36 38 36 31 31 32 26 25 26 28 31 32 31 31 31 27 26 23 23 23 24 21 20 19 20 20 19
25 22 23 20 18 19 12 23 24 35 38 33 28 46 39 25 31 40 39 39 39 35 34 31 27 29 29 26 27 29 29 30 29 26 25 26 26 27 27 26 25 25 24 24
26 25 24 20 17 22 16 17 19 35 45 37 27 36 39 42 32 39 44 48 47 38 38 34 31 32 34 34 32 29 30 27 28 28 27 27 28 29 29 32 32 30 28 27
29 26 26 23 22 20 20 18 18 22 20 23 28 31 40 31 26 30 40 43 43 43 41 38 39 41 39 37 38 37 37 35 35 32 33 34 34 35 33 35 36 37 36 36
31 29 28 27 29 25 21 23 22 18 31 29 18 24 36 29 28 32 36 33 30 33 37 35 36 41 41 42 40 40 41 42 41 39 39 39 41 42 42 42 41 40 43 44
31 33 29 35 31 28 22 25 20 26 22 29 24 22 37 23 23 35 32 22 25 28 30 31 33 36 39 45 46 47 47 48 47 47 46 44 45 47 47 47 48 47 46 47
31 34 35 38 31 25 27 29 27 26 25 23 21 22 27 34 31 34 25 23 26 28 27 29 30 33 34 33 32 32 37 41 43 44 45 46 45 44 44 44 47 46 47 48
14 27 35 38 41 34 28 27 29 35 31 30 26 30 29 25 27 31 32 31 28 26 27 30 32 34 34 35 36 39 41 43 45 48 50 51 52 52 50 49 48 46 49 50
13 12 20 36 47 37 27 23 24 32 34 30 33 30 30 28 26 28 33 34 35 33 34 35 35 35 36 37 39 40 40 42 43 45 47 50 52 54 56 55 55 54 52 54
15 11 9 15 28 45 34 32 24 27 29 32 30 29 31 36 36 36 38 42 40 34 32 32 32 33 34 34 36 38 40 43 45 48 49 51 53 55 56 57 59 59 61 61
16 18 18 12 21 34 35 39 39 32 28 29 30 31 36 39 43 46 44 40 35 29 26 27 28 29 30 32 33 35 38 40 42 44 47 50 52 54 57 59 62 64 65 66
12 18 12 15 11 18 32 35 34 36 41 43 45 46 47 48 44 37 33 30 28 27 28 29 31 32 32 33 35 36 38 39 40 43 47 49 50 51 54 56 60 66 66 68
13 19 16 24 18 19 20 27 36 32 28 30 30 32 31 29 29 29 28 28 28 29 30 32 34 35 36 37 39 41 42 43 44 45 47 48 50 50 51 53 57 59 62 51

GFSCGP_500_spd_072.txt.gz
Wind_Speed
37 38 39 41 40 41 36 35 36 34 29 32 30 34 35 42 40 32 33 23 25 24 13 8 21 15 15 14 14 13 11 10 9 11 11 13 15 15 13 19 26 25 36 34
35 32 38 40 39 37 33 31 33 31 31 36 30 38 38 39 41 30 29 25 27 23 12 6 17 12 15 14 14 14 10 8 10 13 16 15 12 16 19 20 22 19 19 27
30 30 35 38 39 32 34 34 31 33 37 36 33 40 38 39 36 30 27 22 22 26 15 6 12 12 15 14 13 12 9 8 12 17 15 13 6 9 19 19 19 19 20 20
30 29 31 35 34 29 34 33 37 32 37 40 44 44 38 41 38 28 24 25 24 21 15 8 10 12 14 15 12 11 9 9 14 12 12 10 5 10 16 15 12 12 13 19
29 28 30 28 27 29 25 33 32 31 40 46 46 42 36 39 38 26 22 22 23 21 18 9 7 15 14 15 13 12 9 9 11 9 8 7 5 4 10 11 13 12 14 21
27 24 27 25 26 27 24 36 30 30 41 52 46 47 31 37 31 22 23 27 27 22 18 12 11 17 17 17 15 13 11 9 7 9 6 6 4 2 4 8 11 12 13 18
24 26 23 23 25 21 28 33 32 32 39 52 44 47 35 19 14 18 24 29 31 26 22 15 14 16 20 20 17 16 14 12 8 7 6 4 2 3 2 2 3 7 15 11
21 26 20 23 23 18 24 26 33 34 34 49 43 52 38 28 21 24 30 22 24 28 18 15 10 18 22 21 18 18 17 16 12 8 5 5 3 3 3 5 5 6 8 12
21 23 19 18 16 13 15 18 25 30 28 41 42 44 40 37 29 29 27 28 28 26 15 14 12 17 21 19 19 19 18 18 15 10 7 6 4 5 4 4 3 4 6 7
25 19 20 16 10 8 17 17 20 24 31 34 35 37 36 31 35 30 34 31 30 27 25 20 17 16 20 22 23 21 21 19 17 14 10 9 7 6 5 4 4 4 5 4
23 18 21 15 6 5 17 22 19 21 30 32 31 30 30 27 25 29 31 32 28 25 17 14 13 15 19 23 25 24 23 22 19 17 13 11 11 11 10 9 8 9 7 6
22 19 17 17 13 6 10 23 23 19 30 29 31 30 30 34 37 40 42 33 30 25 21 19 19 21 21 23 26 26 26 25 24 20 17 16 16 14 11 10 9 9 9 7
22 19 17 18 19 13 10 18 31 25 30 34 31 33 30 37 41 40 40 40 37 28 23 19 19 18 18 26 28 29 29 29 30 28 21 20 21 20 18 14 13 13 13 13
28 25 22 20 21 18 13 18 29 35 35 39 37 46 18 41 43 42 43 44 40 31 28 23 20 21 22 24 30 33 31 31 31 31 28 26 24 25 25 22 20 19 17 17
30 27 26 25 22 26 18 16 22 33 33 40 40 46 35 23 40 51 49 38 38 33 34 27 23 25 23 22 25 31 34 34 32 27 27 29 28 28 27 26 25 25 24 24
29 27 28 26 23 24 28 22 17 21 29 36 39 45 42 33 25 32 47 48 41 36 35 37 30 30 30 27 27 28 25 25 26 27 28 27 28 30 31 31 31 29 28 28
28 28 28 26 25 24 24 19 16 13 24 29 43 33 28 47 37 31 28 34 37 47 39 31 30 33 35 34 32 32 37 39 37 33 31 31 30 32 34 34 34 33 34 34
29 29 28 27 27 24 21 19 22 18 18 22 34 28 34 35 35 28 41 40 41 42 45 45 39 36 36 40 41 43 43 42 42 41 39 38 38 37 38 39 40 40 40 40
30 29 29 29 27 25 25 23 21 19 20 24 24 27 28 29 27 28 26 31 33 36 32 33 34 34 37 41 44 44 44 49 47 45 44 44 46 44 42 44 46 46 47 46
30 32 32 31 31 30 27 26 23 26 25 17 19 26 20 20 24 30 31 37 32 32 34 31 30 32 35 37 40 38 45 51 51 52 51 52 54 54 51 48 46 46 46 48
30 32 32 32 34 32 29 32 23 26 25 23 19 25 29 22 21 25 26 29 28 26 29 31 36 38 37 38 39 39 39 40 39 39 42 45 48 50 51 51 50 50 51 52
17 19 20 29 35 36 35 30 29 29 29 26 28 23 21 31 32 25 18 20 30 29 27 32 31 33 35 37 39 40 43 45 46 47 47 50 52 54 55 56 57 57 57 58
17 12 12 12 15 24 34 35 29 32 28 26 22 28 38 28 20 27 25 25 27 30 31 35 37 38 40 42 42 43 44 45 45 45 46 47 50 53 55 58 59 62 63 63
14 9 20 15 13 28 40 40 38 29 30 25 24 27 25 27 28 30 30 31 33 35 38 40 42 45 45 43 42 40 38 39 40 42 44 46 48 50 51 54 56 58 60 63
12 15 16 17 16 13 28 44 30 31 31 33 31 27 26 29 31 35 36 37 39 45 47 45 43 39 37 37 37 37 38 39 40 41 43 45 46 48 50 52 54 55 57 58
10 19 20 20 20 13 12 29 35 35 32 37 38 36 35 37 39 42 44 47 47 45 39 35 34 35 36 37 39 39 39 41 43 46 48 50 52 53 55 57 58 59 60 60

GFSCGP_500_spd_075.txt.gz
Wind_Speed
34 33 28 35 35 37 42 43 42 40 38 37 42 43 38 33 38 36 37 37 46 43 31 28 19 16 17 16 14 17 15 16 13 10 13 17 20 21 17 11 14 30 44 46
31 27 33 32 35 36 39 39 36 38 38 34 43 40 36 35 38 34 39 36 39 35 35 24 18 13 16 16 13 15 15 15 12 10 16 21 23 22 19 14 19 24 34 39
31 29 30 31 32 35 38 38 34 33 36 37 37 34 33 36 36 34 34 35 34 39 32 22 18 10 17 15 11 15 13 13 11 15 16 17 17 17 16 19 24 26 26 22
30 27 30 32 29 35 38 38 35 37 33 37 35 34 34 35 35 35 37 39 36 35 31 22 16 10 19 14 12 15 11 10 12 14 11 11 9 7 12 16 16 21 21 22
28 28 30 30 27 32 33 30 32 33 34 37 33 37 31 36 35 33 33 30 39 32 28 21 15 11 19 16 14 14 11 9 11 11 9 7 7 4 6 13 15 15 21 22
30 32 30 31 27 26 27 29 28 27 31 35 30 37 26 39 33 35 35 33 32 24 25 20 20 17 18 19 16 15 12 10 8 9 9 5 2 1 5 11 13 14 17 21
31 29 28 28 28 25 27 25 23 28 31 33 23 32 24 32 30 32 34 35 27 26 26 26 23 18 15 19 18 16 14 12 9 7 10 7 3 3 5 6 9 14 17 15
28 27 27 27 29 24 24 25 23 31 36 33 23 33 31 27 32 28 32 34 31 29 27 22 20 18 14 19 20 18 16 13 12 8 8 9 7 4 4 7 5 5 5 12
26 25 26 28 26 23 19 18 19 27 31 30 27 27 32 31 34 30 32 32 32 32 27 21 21 18 15 22 22 20 18 14 14 11 8 9 9 7 5 5 6 8 8 8
25 26 27 26 25 22 17 16 17 22 25 24 21 15 25 33 40 33 26 27 26 26 25 23 20 16 16 21 23 21 19 16 15 14 11 10 9 7 7 7 6 7 8 9
28 27 27 23 24 22 15 14 17 19 19 20 14 15 22 30 40 37 30 32 28 27 30 27 23 22 23 23 23 25 23 20 20 19 16 14 12 13 11 11 12 11 11 11
28 26 26 23 25 21 16 15 19 20 16 14 19 15 20 21 31 38 39 38 34 33 24 23 27 25 24 23 22 23 24 26 27 24 23 20 18 17 16 13 13 14 13 12
30 28 24 25 25 20 18 15 17 24 23 13 20 19 25 20 28 30 40 39 36 34 29 27 23 23 27 25 21 20 24 26 27 26 26 26 24 22 22 21 18 13 13 15
27 26 22 21 22 22 21 18 15 21 28 22 24 28 23 26 27 34 37 45 39 33 33 30 28 28 30 29 26 26 24 27 29 29 29 28 26 24 23 23 24 22 19 17
33 28 27 23 23 24 24 21 20 20 22 34 25 32 34 27 27 36 44 41 40 37 36 35 31 30 30 30 30 30 31 33 35 35 34 32 26 27 25 26 26 27 26 24
35 31 29 27 27 28 27 25 25 29 26 30 32 40 42 37 19 19 33 46 46 46 40 37 33 32 32 32 30 24 22 23 24 28 32 31 34 33 31 30 29 29 28 27
35 31 29 26 28 28 23 22 31 27 24 25 37 34 41 41 24 27 25 33 47 47 43 41 38 36 34 34 31 30 27 26 26 25 23 25 27 34 35 35 34 34 34 34
30 29 30 29 28 28 21 24 29 26 25 16 25 30 30 39 29 28 33 28 33 44 45 44 41 38 43 43 41 32 32 32 32 33 34 36 38 37 35 35 36 37 38 38
30 31 29 29 28 26 22 25 24 23 23 17 18 24 23 24 37 29 26 29 32 36 37 35 44 42 45 42 40 39 36 37 39 40 39 38 39 41 44 46 44 43 44 47
33 30 29 29 28 26 24 24 25 24 20 17 17 17 17 25 22 17 30 34 33 33 32 34 45 40 51 45 44 40 39 37 37 39 42 44 45 48 50 51 49 50 52 52
29 29 27 28 30 27 22 27 26 24 20 19 16 14 21 19 21 25 22 30 33 34 32 32 34 34 36 36 36 35 35 37 39 42 43 42 41 43 50 56 58 60 60 58
24 24 24 27 31 30 25 28 28 25 20 19 19 11 15 19 19 25 26 26 24 27 30 30 32 31 30 30 32 34 36 37 39 40 42 44 44 45 47 48 50 50 53 55
20 23 22 27 29 34 29 31 29 27 26 18 19 17 20 22 25 19 21 24 28 25 20 23 23 24 27 32 35 36 37 39 42 44 46 48 48 48 48 47 47 47 49 51
19 20 20 22 27 29 27 29 35 31 31 28 24 37 20 22 28 30 26 28 24 25 26 25 25 28 33 36 39 43 45 44 45 46 45 45 46 47 47 47 47 48 49 50
21 22 19 24 17 13 16 27 30 33 32 37 38 31 28 28 27 27 26 30 28 27 30 31 33 34 37 39 43 47 45 42 41 41 42 43 44 46 46 48 50 52 54 56
14 17 20 21 16 12 12 19 29 28 33 30 33 41 36 27 28 30 31 32 34 35 37 39 40 43 46 48 49 45 41 39 40 42 43 43 44 47 48 51 53 55 57 60

GFSCGP_500_spd_078.txt.gz
Wind_Speed
39 40 37 34 37 38 34 34 34 34 35 45 45 43 40 46 41 43 40 39 40 35 37 38 33 31 30 29 20 16 18 16 14 15 18 20 21 26 26 25 23 23 23 28
38 37 36 37 36 34 34 34 34 35 36 46 43 40 44 47 38 44 41 37 34 31 35 36 31 35 32 30 18 15 15 15 12 13 17 23 27 28 28 24 21 21 22 27
37 34 32 34 33 33 33 33 32 36 39 37 43 44 45 40 37 42 38 36 35 33 30 29 34 33 31 26 14 16 15 13 10 11 18 19 17 19 18 19 16 12 21 27
37 33 32 32 31 32 32 30 32 37 38 38 43 48 36 34 37 40 37 40 35 32 28 30 30 30 28 25 12 15 15 13 8 12 13 13 14 12 11 6 13 16 16 20
35 33 33 31 30 31 29 30 31 37 31 37 42 42 30 29 30 30 35 36 31 30 29 27 27 20 24 19 12 15 14 13 10 8 8 11 11 9 7 3 9 11 12 17
34 33 31 30 31 30 31 29 29 32 29 37 32 31 22 18 24 31 33 34 32 30 31 28 29 27 23 20 13 15 14 13 11 7 7 8 9 7 3 3 4 8 11 13
33 34 32 31 30 30 27 25 28 30 27 29 23 25 25 24 25 34 38 36 32 31 30 31 31 32 28 22 15 16 15 14 13 10 6 6 6 8 5 2 4 6 10 14
33 33 32 31 31 28 24 25 24 26 26 26 20 24 20 18 29 36 40 36 33 31 30 29 27 31 29 23 19 16 16 16 16 14 9 6 4 5 7 6 6 6 5 7
34 32 32 32 30 28 22 22 23 22 25 26 22 23 27 17 32 40 38 36 38 35 30 25 27 28 26 24 21 18 18 19 18 16 13 8 7 5 7 8 8 8 8 6
36 32 32 30 28 24 22 21 21 21 24 24 19 21 25 20 34 37 35 31 34 30 32 30 29 31 30 27 25 21 17 20 19 19 15 12 10 8 8 8 8 8 8 9
37 34 32 28 26 24 22 22 21 19 21 20 18 15 17 21 39 41 35 30 34 34 35 33 28 30 30 31 27 21 19 23 23 20 16 15 13 12 10 9 10 11 11 11
36 32 31 25 29 26 23 21 22 19 19 14 15 13 16 16 26 37 32 31 31 31 31 23 28 31 34 31 25 20 23 22 21 20 18 18 17 17 16 14 11 9 11 15
31 34 30 27 27 29 23 21 19 19 22 20 17 12 18 10 13 29 36 32 30 29 29 31 33 33 32 28 24 21 22 20 19 21 21 21 21 20 18 17 16 15 14 13
33 32 29 27 26 28 25 23 20 14 18 20 20 17 24 20 18 15 32 42 41 37 37 36 31 31 28 26 25 23 24 22 22 24 24 24 22 22 20 19 19 19 19 19
20 29 30 25 21 23 26 24 24 21 20 25 19 23 29 28 20 17 20 22 32 40 41 39 34 34 28 28 27 26 25 26 29 30 29 29 27 27 27 25 24 23 23 24
45 37 29 26 25 24 23 22 24 26 27 25 24 26 31 35 27 16 28 27 26 36 39 41 36 33 30 33 33 31 30 32 30 32 34 29 30 24 28 31 29 29 29 29
25 37 33 29 26 24 23 24 25 25 27 26 28 27 35 34 33 23 19 16 34 35 41 39 39 38 36 38 35 32 34 34 29 20 22 16 16 27 25 29 33 33 34 33
24 24 31 31 27 26 23 24 23 23 26 29 24 23 35 31 34 29 19 21 24 29 48 46 42 43 39 36 37 35 33 33 29 27 27 28 26 26 28 30 30 32 37 38
26 28 31 31 30 29 21 24 21 20 21 21 20 16 22 28 29 25 29 29 27 23 29 46 44 45 47 44 42 40 40 40 38 37 33 32 31 33 33 34 34 35 37 41
32 33 33 34 34 27 21 23 22 18 16 17 19 16 16 19 16 18 24 27 24 23 33 30 34 58 52 51 48 43 46 46 47 46 42 35 35 35 34 35 35 40 43 46
33 33 35 34 31 23 20 23 23 20 18 18 18 17 18 21 18 17 20 27 29 29 32 32 39 39 32 39 55 50 55 52 45 46 42 32 32 34 35 35 36 37 38 42
27 28 29 27 26 22 20 22 23 21 21 19 19 17 11 10 13 17 27 29 29 31 37 38 37 36 35 40 46 41 36 36 34 33 33 33 35 35 37 40 42 43 41 44
18 20 22 22 22 20 20 20 22 22 21 21 18 20 10 9 11 23 23 23 24 22 22 24 28 31 31 29 28 27 26 27 29 31 33 36 39 42 43 45 44 43 41 41
11 15 19 21 19 18 20 22 24 23 23 24 21 16 26 28 28 28 26 26 19 19 23 21 23 27 25 22 22 23 26 28 30 32 34 38 42 42 41 41 41 41 42 42
11 17 17 19 22 20 13 18 26 27 25 25 28 27 22 21 24 29 29 27 25 25 25 21 23 23 24 25 27 29 31 34 37 40 45 45 40 39 41 42 42 42 43 44
8 16 19 21 17 16 14 17 21 23 24 21 28 33 30 26 22 22 23 23 21 20 21 23 27 29 30 31 33 35 38 38 38 39 40 41 42 43 44 45 47 48 49 50

GFSCGP_500_spd_084.txt.gz
Wind_Speed
37 41 44 38 43 40 41 42 40 38 39 38 38 38 38 36 31 31 27 26 29 32 30 32 37 36 36 31 25 22 24 24 23 26 26 23 23 21 19 21 24 27 30 28
36 38 37 39 37 38 40 33 35 36 38 38 37 37 37 35 30 28 30 31 33 34 33 32 37 36 32 29 27 23 21 24 25 26 24 23 21 21 23 25 28 29 30 29
34 36 40 38 36 36 37 36 35 38 34 36 39 36 36 30 29 29 31 33 35 34 34 33 36 35 33 28 28 24 24 26 23 26 23 22 20 20 24 23 27 27 26 24
34 32 32 44 42 41 40 33 33 33 32 32 34 34 32 26 30 32 33 35 37 39 38 34 37 37 33 31 32 29 27 26 22 26 24 20 17 20 19 17 18 13 15 18
33 32 34 33 27 34 33 30 32 32 31 32 24 32 31 28 28 31 34 35 39 41 40 38 40 38 35 36 33 30 29 26 24 27 23 19 18 16 14 11 10 6 10 11
36 33 33 34 34 34 34 32 34 33 29 30 24 29 26 26 25 31 30 33 33 33 37 38 39 36 34 38 32 29 27 26 26 27 22 20 17 13 10 7 9 7 4 3
35 35 33 37 34 38 36 27 29 29 30 27 26 28 23 22 27 26 25 21 19 23 32 33 33 35 36 37 25 26 24 28 26 29 22 22 15 11 8 6 5 4 4 6
33 34 36 29 29 27 26 25 26 27 26 28 26 25 26 22 22 21 19 15 16 19 28 28 29 34 35 26 24 27 28 27 27 27 23 22 15 11 7 6 4 4 2 3
33 36 36 32 29 26 27 26 26 26 27 28 24 24 23 21 21 21 26 27 20 18 28 31 33 34 32 30 29 30 28 27 25 27 23 22 16 11 8 6 2 1 1 1
32 33 33 31 30 27 27 26 24 25 25 25 20 21 22 18 24 28 28 22 23 25 27 34 36 36 39 33 31 31 29 28 24 24 23 22 18 13 8 6 3 0 1 1
31 32 28 23 25 26 23 24 24 25 25 21 21 19 19 18 21 29 27 21 25 31 31 34 36 39 41 36 33 36 33 31 25 23 24 22 19 16 11 8 7 5 2 3
33 31 30 27 22 23 25 21 23 24 22 21 21 19 18 19 19 26 28 25 30 35 36 40 43 45 35 36 38 39 36 36 27 23 23 22 20 18 14 12 12 11 7 5
34 35 29 26 32 29 23 22 23 22 23 20 20 16 18 18 22 16 21 23 33 38 40 42 43 38 31 30 38 38 39 37 28 24 23 22 21 20 19 18 18 16 14 12
29 31 29 27 26 25 23 23 24 23 22 21 18 16 22 25 22 22 17 21 32 40 43 42 40 33 35 35 39 41 41 39 26 25 23 22 23 24 24 23 21 20 19 18
33 32 30 25 23 24 23 22 22 23 25 24 23 17 21 22 26 29 23 19 33 39 43 42 41 39 41 35 43 42 42 38 23 22 24 26 26 27 27 25 24 22 21 22
19 26 24 25 29 28 25 24 24 23 24 24 24 24 22 24 25 25 24 14 27 35 39 42 42 40 38 39 41 46 42 36 32 34 31 28 27 25 25 26 27 26 26 25
19 28 24 29 39 30 26 21 17 18 23 22 23 23 24 26 25 21 19 16 21 28 34 39 38 39 40 36 43 44 41 42 40 39 32 31 28 26 21 28 31 29 28 24
14 22 36 31 22 27 21 20 16 16 20 18 18 22 24 23 21 18 14 17 10 23 31 33 35 35 31 36 44 44 43 43 44 41 36 34 30 28 24 19 26 26 29 30
10 10 18 17 24 19 15 12 12 15 17 14 14 16 21 25 23 15 16 13 14 15 24 36 42 42 39 37 36 40 44 46 43 39 35 31 33 35 31 31 29 26 26 27
14 13 13 16 14 13 14 15 15 15 17 16 14 16 17 20 17 16 16 17 16 15 17 15 42 46 49 46 42 39 49 44 39 40 41 45 47 45 35 24 28 30 29 31
12 12 9 7 7 7 11 14 12 17 19 17 16 17 19 19 17 20 22 20 21 21 20 21 24 45 56 46 47 47 41 45 45 45 47 36 37 43 35 30 32 40 38 36
25 17 11 9 7 9 9 11 13 16 20 20 17 18 19 19 17 21 23 23 21 23 27 25 25 25 25 40 53 43 47 45 46 49 52 54 47 52 49 47 44 46 51 43
20 19 20 17 13 11 12 14 16 16 18 20 18 18 19 23 20 15 20 23 21 21 23 25 29 30 31 30 29 32 54 63 52 55 55 57 58 60 62 52 48 46 41 38
17 18 16 16 16 16 18 20 22 17 20 20 19 18 18 17 18 26 16 15 18 21 23 22 24 27 29 30 32 34 40 41 41 39 38 36 39 36 28 31 32 30 30 30
11 15 18 18 20 21 20 26 24 21 22 20 17 17 12 10 3 11 19 21 22 22 23 21 21 22 25 26 26 26 27 28 27 25 23 23 24 26 26 27 28 31 34 37
4 6 10 14 22 26 28 27 21 15 14 12 15 15 16 10 9 12 10 11 16 19 24 24 26 27 26 25 24 22 17 15 17 19 21 24 26 28 28 30 33 35 37 39

GFSCGP_500_spd_087.txt.gz
Wind_Speed
35 37 38 38 44 46 55 51 49 46 45 45 48 55 48 46 44 40 38 39 36 35 34 32 32 31 35 32 32 35 31 27 25 24 26 24 24 24 23 24 21 24 24 25
36 37 34 37 40 41 40 38 43 37 39 44 44 53 50 40 43 36 36 38 37 35 36 34 32 36 35 33 35 36 30 28 22 25 23 22 24 22 23 23 22 25 28 32
35 35 39 31 36 39 34 34 35 42 40 38 36 40 35 42 37 33 35 35 34 36 34 32 34 39 35 35 34 33 29 29 25 27 22 21 22 23 23 22 24 27 29 33
39 40 40 34 36 35 40 29 34 31 34 33 31 37 34 35 31 32 33 34 34 34 34 35 38 39 38 35 32 33 32 31 28 27 22 21 21 24 21 21 24 24 26 24
35 39 38 41 34 38 39 38 35 34 36 35 29 33 27 24 27 34 33 34 32 32 35 37 40 41 41 37 36 34 34 34 29 29 24 21 20 22 19 22 20 20 17 16
37 36 38 35 36 37 33 34 34 30 30 36 25 31 19 17 29 27 33 32 34 34 34 37 40 42 47 46 41 36 36 36 31 31 27 21 21 20 18 21 19 13 14 13
39 38 39 35 35 37 35 31 29 26 30 32 22 26 19 26 22 27 30 28 28 30 32 34 38 37 42 49 37 34 38 38 37 34 27 21 22 19 20 18 16 9 10 11
30 25 31 35 33 32 29 35 33 22 17 14 25 29 19 30 25 25 26 24 27 25 24 24 26 32 37 35 37 36 40 39 34 34 25 22 22 19 19 15 13 10 8 7
27 24 33 40 31 32 28 35 24 30 24 25 22 10 23 24 20 23 26 26 24 20 20 17 21 26 30 34 32 38 37 37 35 31 25 23 22 21 20 13 11 9 8 8
30 32 25 35 27 28 28 23 22 26 21 23 15 15 25 23 20 23 27 29 27 28 25 21 22 25 31 31 34 35 36 36 31 29 23 23 23 23 22 14 10 9 8 7
31 33 26 29 26 25 24 25 24 25 23 19 14 16 25 25 22 23 27 32 31 27 27 28 31 28 31 32 36 36 37 31 30 26 21 22 23 24 23 17 13 10 10 10
28 33 35 32 26 23 24 23 22 28 24 24 21 20 16 19 21 24 26 30 34 28 28 30 31 35 35 39 42 43 33 30 31 29 24 21 22 24 23 19 17 14 12 10
31 31 31 27 27 30 19 21 21 21 23 19 20 19 14 22 23 19 23 24 26 28 31 32 33 37 41 47 48 43 36 35 34 29 24 22 20 23 23 23 20 19 17 15
38 35 32 26 26 27 30 28 23 24 22 20 22 23 24 27 19 22 24 22 21 27 31 37 39 41 41 42 40 31 32 37 39 34 29 23 21 22 25 26 25 24 22 20
38 20 34 28 24 22 29 24 29 27 25 24 20 22 23 27 23 23 26 26 23 23 31 41 42 43 44 48 44 37 29 41 39 36 29 24 24 26 27 30 28 26 25 23
23 17 23 29 32 31 26 25 19 19 22 25 25 22 27 21 21 19 20 27 32 23 28 42 45 44 46 48 42 34 34 41 40 35 34 30 30 27 27 30 30 28 28 27
19 15 13 39 30 27 25 21 21 22 25 23 21 21 24 25 25 19 16 18 21 13 26 39 44 45 44 39 35 35 38 44 42 39 37 37 35 31 28 30 30 30 31 33
12 13 8 28 24 29 29 29 26 25 21 19 20 20 19 23 23 16 14 16 12 21 18 34 40 44 44 42 43 42 40 39 46 44 40 42 39 36 34 33 34 34 29 26
14 17 12 23 22 31 32 30 26 21 17 17 16 18 17 20 19 19 16 14 11 8 11 33 36 38 44 46 42 42 39 43 47 45 44 45 44 41 40 40 38 34 30 26
14 15 13 24 26 17 15 18 15 15 17 14 14 15 16 17 17 17 17 15 16 16 16 13 42 46 51 36 41 40 46 46 49 49 48 49 44 43 41 39 43 36 38 35
15 16 16 14 16 18 18 13 14 14 15 14 16 16 17 18 18 16 19 22 17 16 15 19 15 16 43 38 39 41 35 39 48 55 53 59 47 43 40 42 50 48 55 46
15 15 15 17 13 14 14 13 13 11 11 14 16 16 17 18 19 18 20 23 23 22 24 23 24 23 25 39 48 48 49 49 49 48 47 64 41 50 47 45 55 52 48 40
22 19 17 18 17 11 10 10 7 8 10 16 18 18 19 18 20 20 19 20 23 26 24 23 25 25 23 23 27 37 55 62 61 55 53 48 48 51 59 61 53 47 55 56
21 21 20 16 14 11 9 8 9 10 13 16 18 17 17 18 19 20 22 23 18 20 25 23 21 25 26 28 28 29 26 28 47 60 59 64 62 62 58 60 59 60 65 65
14 21 22 24 20 16 11 11 11 13 15 18 19 17 17 17 16 12 10 13 15 12 14 16 18 19 21 24 26 27 30 31 29 34 35 37 34 39 41 38 45 47 41 36
10 15 19 20 19 18 19 19 19 20 19 20 19 18 16 13 10 8 7 10 12 14 15 17 19 23 27 24 23 21 23 24 24 27 26 25 25 25 24 24 27 27 28 29

GFSCGP_500_spd_090.txt.gz
Wind_Speed
31 34 35 35 39 40 38 38 43 47 47 41 45 48 47 41 50 58 41 40 44 45 44 42 42 40 37 38 40 36 25 29 32 32 28 27 27 24 23 25 22 22 23 25
32 34 32 36 38 39 36 41 41 43 43 48 48 50 48 42 41 45 42 41 43 43 43 43 42 39 38 39 43 30 26 31 29 30 25 29 26 20 22 24 20 21 24 26
31 33 36 35 34 34 36 40 37 39 39 42 44 45 36 30 29 37 46 39 41 42 43 43 42 42 40 43 43 32 28 30 29 26 30 29 23 20 20 21 18 22 24 28
34 32 33 36 37 39 39 39 40 39 39 40 31 43 27 20 14 11 23 38 37 42 44 42 41 42 39 41 40 35 32 32 30 26 33 26 23 18 20 19 19 22 25 28
33 36 36 37 36 39 40 39 36 39 41 37 30 37 34 16 16 17 35 40 41 37 38 38 40 40 39 40 41 37 36 32 31 28 33 27 22 19 18 18 19 21 24 25
38 36 38 39 41 38 38 38 37 37 35 40 34 32 29 17 21 35 35 26 32 34 36 37 39 39 40 42 42 39 41 33 32 30 33 30 22 18 16 18 19 21 22 23
38 40 38 37 41 39 39 35 33 32 27 23 13 20 18 23 29 32 22 26 29 30 32 33 36 38 39 40 41 45 42 37 33 31 32 30 24 19 17 19 18 20 20 19
37 35 25 31 35 34 31 30 28 26 23 22 24 20 17 30 30 28 31 29 27 27 30 31 33 35 37 34 40 44 30 40 35 33 32 31 24 20 18 18 17 20 18 18
37 32 34 31 35 36 23 27 20 25 25 29 22 17 25 11 29 33 35 28 30 25 26 27 27 26 26 33 41 23 25 37 36 36 37 32 21 22 18 20 16 21 18 17
35 42 35 26 30 25 19 22 27 26 27 26 23 24 18 21 22 24 23 27 28 26 23 24 22 20 23 25 20 23 33 35 36 37 35 32 25 20 19 22 18 21 18 16
42 37 30 35 25 20 19 22 20 23 20 20 14 21 26 21 29 34 27 24 25 24 22 26 23 21 20 21 24 27 34 36 40 41 34 30 21 21 21 22 20 21 18 16
42 38 37 34 35 16 18 21 21 24 22 23 22 22 19 4 9 17 23 22 23 23 23 26 25 26 27 25 27 30 32 32 39 37 32 27 22 20 22 21 22 21 19 17
37 40 34 29 36 30 20 21 24 21 27 28 23 28 28 23 17 20 20 21 21 20 24 26 27 27 34 29 30 30 34 37 36 31 30 27 24 20 21 21 22 22 22 19
32 34 34 32 35 37 19 22 26 28 23 25 25 20 15 13 16 12 15 18 20 20 17 23 27 28 33 34 32 36 41 39 39 34 31 28 26 20 21 21 21 23 23 21
27 32 41 32 29 33 31 20 28 25 23 23 25 26 25 22 20 17 18 18 22 23 21 22 25 30 35 37 38 42 47 46 39 35 32 31 28 22 21 24 24 25 26 26
24 26 40 34 32 33 17 27 28 32 29 28 23 20 25 23 25 22 16 16 20 24 23 25 26 33 38 38 42 45 42 31 39 38 31 33 32 27 26 27 27 26 28 28
19 22 33 30 40 34 10 15 28 18 11 20 23 26 22 24 23 22 19 17 16 16 19 26 24 31 41 42 42 33 36 40 30 27 37 35 33 32 30 30 29 28 29 30
19 22 17 23 31 26 16 24 18 18 16 14 18 19 21 23 20 19 17 16 13 13 15 19 24 28 42 48 44 44 42 38 37 35 32 37 38 36 35 35 34 31 29 32
19 10 11 6 15 32 27 25 22 22 19 17 18 19 21 21 17 17 17 17 14 13 11 18 17 32 36 45 45 41 45 37 35 35 36 38 44 42 40 40 39 37 35 35
9 10 13 6 19 20 22 24 23 26 25 17 18 18 18 18 17 15 14 14 14 15 15 16 11 26 34 46 43 42 40 42 41 41 39 39 47 47 46 44 43 42 41 41
5 7 17 15 16 17 17 23 27 25 21 20 19 18 18 18 17 15 14 14 16 18 17 16 14 11 32 37 37 41 43 47 44 44 47 50 47 45 46 47 46 45 45 41
8 14 13 11 13 17 19 13 15 16 12 11 13 15 17 18 17 17 15 16 17 17 19 20 19 19 17 27 46 47 47 55 40 46 50 57 44 48 50 58 65 52 49 43
15 17 13 16 15 15 16 15 12 9 7 8 12 12 15 17 17 15 15 16 16 16 18 19 20 21 19 21 16 22 24 38 48 50 52 56 55 55 55 56 63 64 61 53
19 20 14 16 17 16 17 15 13 8 6 4 11 14 14 14 16 15 13 13 16 17 17 16 18 19 17 16 17 17 21 19 29 34 41 52 48 50 47 59 67 51 55 65
14 21 22 18 17 17 15 14 9 5 7 8 8 12 14 13 14 14 13 11 13 12 10 9 9 9 10 11 13 17 20 23 27 29 30 31 35 57 64 64 71 66 65 56
11 9 19 19 18 18 17 14 11 12 12 15 16 15 13 11 11 12 7 5 7 8 7 8 11 11 13 15 16 17 10 12 14 20 26 30 33 34 32 33 35 37 38 37

GFSCGP_500_spd_093.txt.gz
Wind_Speed
33 35 30 28 31 32 37 39 39 40 40 45 46 49 45 45 46 50 45 54 47 51 48 49 46 46 46 42 41 42 39 38 36 35 37 34 27 29 29 24 26 25 26 23
31 32 26 30 31 33 34 37 37 38 40 43 40 42 41 43 46 46 36 42 46 48 42 39 41 39 40 39 39 45 41 40 35 35 38 35 29 30 26 24 23 24 24 24
31 26 29 30 31 33 31 36 38 40 42 42 43 42 39 38 40 42 41 43 37 40 32 49 43 33 36 38 38 43 43 40 36 36 39 36 36 28 24 24 21 22 21 22
30 28 31 32 33 33 30 33 36 40 43 43 41 46 36 34 30 25 21 19 26 34 40 37 43 36 39 41 41 39 42 37 34 37 36 39 34 26 24 23 20 20 20 22
31 32 31 31 29 33 39 40 39 40 41 43 40 41 33 22 19 25 26 31 26 27 36 32 35 37 42 42 41 39 41 39 36 39 38 40 33 26 24 22 19 19 21 23
33 34 34 33 33 35 36 39 42 41 39 42 26 30 28 19 17 31 32 29 28 20 21 32 31 35 35 36 35 35 39 40 38 39 38 40 32 29 26 21 18 20 21 22
35 33 32 31 33 33 32 35 37 39 39 38 24 25 9 13 20 27 28 29 22 17 14 29 30 32 34 33 34 37 38 42 40 39 41 38 32 32 27 23 18 20 21 20
41 37 29 33 33 30 31 31 31 33 29 27 23 24 18 19 17 12 22 32 24 23 20 25 26 30 32 33 33 34 41 43 37 40 42 37 34 32 28 24 18 21 20 18
45 44 36 31 33 31 29 32 19 33 27 26 22 20 24 26 18 13 25 26 22 24 20 23 29 29 30 31 34 42 42 43 36 36 42 36 35 31 28 23 19 21 18 17
49 49 39 31 33 32 32 26 25 29 27 31 18 17 28 28 24 11 23 25 30 24 25 24 26 28 28 31 31 29 33 39 32 33 39 40 36 33 28 25 20 21 18 17
52 54 49 37 36 30 28 36 25 25 29 29 17 13 21 21 17 14 24 23 22 24 23 22 25 30 27 26 24 23 26 27 26 29 40 42 37 31 29 23 21 20 20 17
37 44 46 42 35 34 40 32 24 25 21 23 21 21 20 11 13 1 9 14 25 19 19 22 27 29 26 24 21 22 27 33 29 30 39 39 34 33 27 23 21 20 22 18
24 31 35 24 31 36 38 41 36 25 23 21 23 20 15 19 13 8 15 13 19 16 17 17 23 27 29 26 25 25 27 29 31 31 35 37 33 34 27 21 19 20 22 18
19 21 24 22 22 38 43 45 31 25 30 20 22 25 31 12 19 10 10 10 14 13 14 14 18 24 26 24 27 28 27 27 30 31 32 34 38 30 30 23 19 17 22 19
23 22 24 24 33 31 41 40 35 31 26 27 34 23 27 14 13 17 12 9 13 16 15 15 15 21 27 27 27 32 30 31 32 31 33 36 35 30 31 25 20 19 22 23
26 26 24 21 31 36 35 36 37 16 27 23 27 29 15 23 25 20 21 17 15 16 17 17 17 18 23 25 29 34 32 32 33 36 37 35 32 33 35 30 25 23 24 24
25 23 23 15 30 27 26 27 28 3 25 28 24 28 23 14 18 16 15 15 17 16 15 16 16 19 19 26 33 34 36 39 38 40 42 40 39 37 39 33 31 30 27 27
16 19 9 12 27 13 22 14 16 18 20 12 9 14 17 19 17 17 18 18 16 17 15 16 15 20 24 21 33 38 39 40 37 35 36 30 46 38 30 32 34 34 33 30
6 9 8 11 11 9 17 26 23 16 13 7 7 10 11 13 12 15 16 18 18 18 16 15 13 17 15 22 34 40 42 41 38 38 36 31 35 40 39 35 35 36 36 35
9 6 9 12 6 15 25 26 19 11 12 11 10 10 12 13 13 13 15 17 18 18 20 17 13 14 13 31 26 30 43 43 40 40 38 32 35 40 38 40 40 40 40 39
7 5 6 12 6 12 14 18 16 16 14 16 15 13 13 15 14 15 16 17 16 16 18 17 14 9 10 19 29 30 40 37 47 42 37 41 41 40 40 45 45 46 46 44
8 10 13 16 4 9 16 13 16 17 15 14 15 15 15 17 18 18 17 18 17 16 14 13 14 14 11 11 26 28 32 45 34 39 37 41 44 48 41 55 56 55 52 51
4 15 12 8 12 11 8 9 4 8 9 9 8 11 12 14 17 17 17 15 16 16 14 11 10 12 13 13 15 22 32 26 45 39 40 45 56 54 51 48 50 52 51 54
9 19 15 15 9 12 13 13 13 11 9 7 8 11 12 12 12 13 15 15 13 13 12 12 12 12 12 12 14 16 17 15 14 17 22 31 40 48 50 55 57 60 63 66
18 12 19 10 16 15 15 15 13 12 9 6 6 11 13 16 14 12 10 10 12 13 12 12 10 8 6 6 4 3 5 8 11 15 18 22 25 30 35 41 41 46 45 49
6 13 18 17 12 19 16 16 14 12 11 9 9 7 9 12 13 13 11 10 9 7 7 8 9 8 7 3 1 5 4 10 8 9 14 18 21 24 27 27 30 34 36 39

GFSCGP_500_spd_096.txt.gz
Wind_Speed
38 39 30 32 35 35 37 35 31 28 35 41 38 42 32 38 43 45 47 50 47 45 48 44 47 49 50 52 52 52 51 44 42 38 35 40 37 35 35 39 37 31 25 24
34 33 28 33 34 35 34 31 30 28 33 42 41 39 35 38 41 41 41 41 43 43 45 40 44 43 49 49 42 49 49 47 41 37 36 42 41 35 38 40 34 28 25 25
34 28 31 33 34 33 30 34 33 33 37 39 43 37 35 35 38 38 39 40 40 41 42 39 46 48 46 42 41 42 45 44 40 36 37 37 41 36 38 37 29 28 26 26
34 30 32 33 32 32 30 35 35 35 37 39 40 48 33 34 37 35 36 37 39 39 44 42 40 50 48 43 41 41 43 40 39 36 34 37 38 33 36 33 33 27 28 28
30 31 34 33 30 34 31 36 36 37 38 42 35 49 39 38 28 30 34 34 32 29 34 34 35 40 47 38 37 37 41 36 37 35 33 36 37 35 35 37 32 27 31 29
31 34 36 33 33 36 35 37 38 38 40 42 31 39 39 23 28 28 30 25 28 27 30 21 23 35 29 29 32 37 38 34 33 38 35 35 37 37 37 37 30 29 32 32
31 32 34 37 35 36 37 37 37 37 32 36 28 36 28 24 28 24 34 31 32 25 31 18 19 26 29 32 32 32 34 37 37 39 37 39 39 38 37 38 33 32 31 31
32 31 34 35 37 39 33 33 34 34 31 28 25 26 21 26 29 30 31 28 29 34 22 21 14 26 29 30 32 33 32 34 36 32 35 36 39 38 39 39 35 33 32 31
37 35 38 38 37 38 35 33 30 29 29 32 24 23 25 28 29 31 34 22 28 24 27 22 18 25 26 29 32 33 31 33 40 38 41 37 40 40 41 38 36 35 32 30
39 40 41 41 39 35 38 33 30 28 32 34 29 25 27 25 26 21 26 7 29 18 19 21 19 23 22 26 29 29 30 34 37 37 38 36 38 41 43 37 36 36 31 29
41 44 46 44 42 40 38 33 34 34 35 33 32 29 29 29 16 14 12 21 18 21 23 24 24 20 27 27 30 33 32 32 29 32 49 44 40 45 42 40 38 32 29 30
37 38 42 38 33 36 43 44 39 30 37 36 31 28 22 20 12 9 20 5 18 16 18 24 25 23 28 28 27 28 26 28 30 25 30 28 41 48 43 40 36 31 29 28
28 33 36 29 26 30 46 49 47 41 29 37 35 28 23 13 14 13 13 4 6 20 24 20 27 23 25 27 28 28 25 26 27 30 24 26 38 34 40 38 33 28 28 27
31 30 29 28 21 22 23 48 51 48 45 34 31 25 24 23 19 8 10 9 9 12 19 17 19 21 28 29 32 31 28 25 24 26 29 28 29 34 36 37 32 26 26 26
32 30 28 24 20 23 30 42 45 48 36 29 19 31 23 19 22 22 7 3 3 11 14 14 20 20 24 29 33 35 31 29 25 25 27 28 31 33 36 38 31 31 30 27
33 29 26 20 21 28 36 41 36 38 37 18 22 30 28 20 24 23 15 14 12 11 13 14 13 18 17 24 31 34 31 29 27 27 28 29 30 35 38 38 35 36 29 31
30 22 22 14 24 23 31 25 27 33 33 15 17 30 27 29 24 18 19 11 10 11 16 14 14 15 19 20 25 31 29 28 31 29 31 33 34 37 38 32 35 39 36 28
15 15 16 8 6 9 21 18 18 24 38 23 27 23 21 20 15 14 14 13 11 11 14 16 15 15 17 18 19 23 26 29 30 29 30 33 33 37 35 29 40 42 43 38
7 5 9 16 22 27 25 18 17 22 20 10 14 9 9 11 11 12 12 12 11 10 11 13 14 15 18 18 21 20 23 28 32 35 30 37 38 38 39 36 34 30 36 39
4 4 10 16 13 3 16 26 22 22 10 7 8 4 5 6 8 8 7 9 12 12 12 14 16 15 16 16 21 25 28 33 35 43 35 42 34 34 27 32 41 42 37 38
3 9 12 3 4 3 27 21 18 11 9 7 8 7 4 5 7 7 9 10 11 13 14 17 19 18 16 17 21 22 31 28 29 30 38 42 43 41 39 33 32 40 46 43
7 14 5 6 12 6 24 22 14 11 8 10 12 12 9 9 10 10 12 14 14 15 16 17 16 15 18 18 20 24 27 31 35 42 40 48 44 36 40 41 37 43 41 42
12 8 2 3 8 13 11 7 4 10 9 9 9 8 8 8 9 11 13 15 15 16 19 18 16 14 15 18 18 18 21 30 32 32 36 38 36 48 45 42 48 45 42 47
14 14 5 5 5 4 6 9 9 12 14 12 9 6 6 7 7 8 8 10 14 16 17 18 17 17 15 15 18 21 18 18 22 29 30 32 44 44 38 41 43 48 50 55
9 13 11 8 7 7 8 12 13 12 12 11 8 5 5 6 9 10 10 9 11 13 15 16 16 16 12 13 13 15 13 14 15 19 18 20 24 30 33 38 37 34 36 41
2 9 11 9 5 12 11 12 11 12 11 8 7 6 6 10 10 14 14 12 12 14 14 14 13 11 11 10 11 7 3 7 8 7 8 10 13 17 19 22 25 27 29 35

GFSCGP_500_spd_099.txt.gz
Wind_Speed
48 50 40 40 44 46 45 43 41 37 39 41 41 42 41 37 40 40 39 40 42 44 45 46 48 49 51 51 51 54 56 52 51 49 47 44 42 39 41 39 39 34 36 30
45 41 33 41 40 39 39 35 34 35 37 43 42 40 37 37 36 38 41 43 47 49 49 52 50 52 56 54 51 53 53 52 49 49 47 44 39 39 41 40 43 38 35 30
46 35 38 37 37 38 34 37 35 38 38 41 42 42 39 34 36 42 46 49 51 50 48 48 48 48 56 54 55 55 55 53 51 48 48 43 43 42 43 39 40 37 31 32
40 36 34 35 35 34 36 36 38 38 41 41 41 46 36 36 41 47 51 53 49 48 48 46 46 53 56 49 53 52 51 52 51 49 47 44 42 39 35 37 37 39 35 31
37 35 35 35 34 36 35 40 39 41 42 42 34 51 37 39 44 49 44 45 44 46 46 46 48 46 47 44 51 50 51 46 45 41 42 44 42 40 38 39 40 40 35 27
32 33 32 32 34 36 36 38 39 39 39 41 30 44 42 38 40 41 35 35 38 40 40 37 32 33 32 37 42 50 43 44 41 42 38 44 42 41 40 40 42 40 32 27
32 32 35 36 35 36 37 38 38 39 41 41 34 44 44 37 37 36 36 35 35 35 38 33 29 30 28 35 33 38 46 36 34 36 34 42 42 45 45 43 45 36 32 30
32 34 34 35 37 36 35 37 38 43 43 39 36 42 35 35 33 32 33 34 36 34 38 38 23 28 23 28 32 33 44 44 35 34 39 43 47 46 43 46 39 35 35 35
31 31 33 34 37 39 40 40 39 43 43 43 41 35 34 31 32 27 26 27 35 36 30 30 26 29 20 24 26 29 33 40 42 43 43 42 43 46 44 41 38 35 37 38
30 32 34 37 39 41 42 45 41 42 40 40 36 33 34 30 27 27 25 22 23 27 28 25 27 25 20 22 31 28 35 34 37 39 40 39 43 45 42 39 41 39 41 40
32 35 36 40 41 44 44 48 49 49 38 37 35 33 29 24 24 29 26 12 16 19 20 19 23 23 22 26 21 26 29 33 33 36 39 37 42 47 43 42 43 42 43 38
34 37 38 41 43 46 44 42 44 52 49 38 37 33 23 21 19 16 17 11 14 14 19 19 20 23 22 23 27 25 28 28 32 33 33 30 34 45 40 42 44 44 41 38
36 39 40 41 42 40 40 39 41 48 55 43 36 20 32 24 23 13 11 16 12 13 14 16 13 20 25 21 25 26 27 28 32 29 27 23 26 36 48 45 43 43 41 35
36 37 38 38 35 35 33 35 38 42 53 50 50 29 28 26 18 24 12 14 9 8 14 18 19 20 23 20 24 25 24 22 22 22 22 21 24 29 36 46 37 43 40 37
37 36 35 32 32 33 33 33 32 40 40 56 46 38 23 18 25 20 13 5 4 5 7 11 14 16 17 20 27 27 25 25 25 22 21 22 24 25 31 40 34 40 40 38
37 36 34 32 31 30 35 32 29 40 38 52 47 37 18 19 19 13 12 15 9 6 7 7 10 12 20 20 23 29 28 27 26 26 24 22 24 26 32 30 34 39 41 38
32 34 33 28 23 29 30 24 22 28 32 39 34 30 19 17 24 22 17 13 3 7 9 10 8 8 13 18 19 22 28 27 28 24 24 21 23 24 28 29 32 37 38 38
25 22 20 13 20 14 6 6 9 7 16 22 30 25 20 23 29 20 11 7 6 8 8 9 11 12 12 13 18 22 22 26 25 21 17 20 20 24 24 30 35 38 38 39
12 12 11 11 18 9 7 12 9 10 8 15 18 21 21 25 26 18 14 12 9 8 8 9 11 12 12 17 17 19 20 20 22 21 22 28 19 29 28 32 34 36 35 36
4 3 5 11 7 5 3 24 12 13 22 12 15 19 17 16 11 9 10 9 8 9 10 9 12 14 15 15 20 18 23 21 23 27 28 29 37 39 37 30 30 32 33 39
4 11 6 2 3 2 12 26 23 25 17 12 10 10 10 9 7 6 8 9 8 7 8 9 11 14 17 17 18 18 22 27 24 26 27 32 32 34 30 33 28 35 33 30
6 7 5 4 8 8 17 23 16 17 10 7 6 6 7 4 4 7 8 9 10 12 10 10 11 12 15 16 17 21 20 25 28 31 29 36 36 42 36 35 40 37 44 41
7 3 4 4 5 8 14 11 9 10 10 7 6 8 8 9 9 8 8 9 11 13 15 14 12 13 15 15 17 20 24 22 24 31 36 38 40 40 34 38 42 41 42 36
12 7 5 7 5 10 9 7 8 14 13 12 9 7 6 6 7 5 6 8 10 13 14 15 15 14 14 16 18 19 21 22 21 21 25 33 32 33 34 38 43 41 46 48
14 14 11 7 6 8 9 9 10 14 13 11 10 9 6 4 3 4 5 6 7 9 12 13 15 14 15 17 18 19 19 21 21 21 23 25 25 27 28 32 36 38 44 45
4 8 3 5 5 4 6 9 10 10 12 11 10 7 5 4 4 8 10 11 12 10 11 13 14 13 13 15 17 17 20 18 15 13 14 15 14 13 16 18 21 22 25 28

GFSCGP_500_spd_102.txt.gz
Wind_Speed
40 42 42 41 46 48 49 49 48 46 46 49 47 49 47 45 45 41 39 41 44 49 49 49 50 52 54 55 55 54 55 57 55 54 55 52 48 45 45 45 42 42 42 39
50 49 45 47 48 48 49 46 42 42 42 49 46 43 41 37 36 39 40 42 48 49 49 49 48 48 49 50 52 53 55 56 55 54 53 52 48 46 44 48 46 44 41 37
51 50 48 48 46 47 43 43 42 43 41 42 42 41 34 35 36 37 41 48 51 51 51 50 50 51 52 51 51 53 55 56 55 54 56 52 51 50 50 52 47 45 38 38
49 46 45 43 41 41 42 41 40 39 40 38 37 41 34 33 36 39 45 51 53 53 54 53 53 54 55 56 55 58 58 58 55 56 57 54 50 48 47 48 45 46 39 40
46 45 43 40 37 38 35 35 35 37 38 37 41 41 31 39 36 41 49 52 55 56 54 57 59 59 61 59 57 58 60 60 57 56 57 56 51 46 47 48 45 47 39 38
42 40 38 37 36 36 34 35 36 37 39 40 40 44 33 36 40 42 46 50 52 53 54 56 56 57 57 54 53 53 54 57 56 54 53 52 48 50 49 48 47 47 43 45
40 36 35 33 34 34 35 36 39 40 40 37 39 44 37 37 38 40 44 50 53 52 50 50 50 46 42 46 43 45 48 49 51 45 48 47 41 46 48 45 49 48 45 46
33 33 34 34 33 35 37 37 38 42 42 40 40 43 40 39 38 41 44 47 48 48 41 42 41 35 36 30 33 30 36 45 42 48 54 47 42 34 40 44 51 50 48 48
31 31 33 33 35 35 37 37 40 42 43 44 41 42 41 41 41 40 43 43 44 37 33 35 34 34 34 27 29 30 38 37 38 40 39 42 43 50 42 49 57 54 53 45
30 30 32 33 36 38 40 41 41 43 43 46 43 46 47 45 41 38 38 37 37 34 29 22 22 26 26 26 24 23 29 28 41 43 44 40 45 43 44 49 52 51 47 44
26 31 34 33 36 38 39 42 44 44 45 48 49 49 48 40 38 37 34 33 33 32 26 21 21 16 22 22 19 23 31 28 24 36 49 39 41 41 39 47 53 52 46 45
29 33 34 37 38 39 40 41 44 47 48 50 51 50 44 42 39 28 25 21 25 25 22 16 18 15 24 22 20 23 22 22 27 30 46 44 45 46 45 43 50 51 48 48
29 32 35 39 40 40 42 46 48 48 48 48 49 46 39 38 36 32 24 20 19 20 18 12 13 9 15 22 21 23 24 17 18 22 29 34 35 40 42 43 51 49 51 47
34 35 35 38 41 44 44 43 43 46 46 41 43 37 34 34 23 19 15 14 13 19 11 12 14 13 12 13 23 17 18 18 16 21 25 25 24 16 30 29 27 55 54 48
36 35 37 40 43 44 46 44 37 43 43 43 33 35 31 39 22 16 17 18 13 7 4 5 6 7 11 13 16 17 16 16 16 13 19 16 14 14 18 18 37 43 48 44
36 38 40 41 41 43 43 37 39 40 39 42 38 28 30 38 30 18 15 12 11 13 2 2 5 8 9 10 13 12 19 17 17 15 15 17 16 15 15 19 21 45 34 37
39 39 40 39 36 39 33 26 30 30 33 36 31 14 23 32 36 17 12 18 11 5 1 5 6 6 7 9 10 13 12 16 17 18 19 22 19 17 19 20 27 37 31 35
38 35 37 33 30 26 15 12 11 4 5 9 7 6 17 23 14 11 20 10 8 6 6 6 4 6 8 10 8 10 14 12 19 24 23 23 20 23 19 21 25 34 27 30
26 24 21 20 19 6 8 5 7 8 4 7 9 5 14 22 15 12 24 15 9 8 6 6 6 6 8 12 11 13 10 15 15 18 20 22 27 26 30 27 28 35 31 32
8 6 7 2 10 3 4 7 17 10 6 11 9 9 15 17 17 15 11 10 11 9 8 9 9 9 9 12 13 13 11 11 14 19 21 27 25 21 27 37 39 31 33 34
5 8 7 4 7 4 5 17 16 11 15 17 14 17 19 16 14 11 10 8 7 7 7 7 7 8 10 12 15 15 13 10 14 19 25 29 24 24 24 20 27 25 31 31
9 7 5 8 2 3 8 17 12 15 16 17 15 14 14 12 8 7 6 5 4 5 6 6 7 9 10 11 13 16 15 16 13 15 24 26 25 26 31 27 28 31 27 29
5 7 1 5 5 10 12 15 17 19 15 12 9 7 7 5 3 2 1 2 4 7 8 8 8 9 11 13 13 14 18 17 17 19 19 23 27 26 30 29 34 33 39 31
5 3 4 4 6 9 13 14 16 17 14 11 9 8 9 8 5 2 3 4 7 8 8 8 10 11 12 12 13 15 16 18 18 19 19 20 20 22 31 35 35 38 41 43
8 8 7 5 6 11 12 10 10 11 11 11 11 10 8 7 6 2 2 2 5 7 8 8 8 8 9 10 13 14 15 17 18 20 20 20 21 21 23 28 33 33 39 40
5 2 4 3 5 7 8 8 9 9 9 10 10 10 9 7 3 2 4 4 5 6 8 10 10 11 12 11 10 13 15 16 17 18 16 15 16 17 19 21 24 27 29 30

GFSCGP_500_spd_105.txt.gz
Wind_Speed
57 57 56 48 48 49 48 46 44 42 44 46 44 44 44 46 47 45 44 46 47 46 46 47 48 49 50 52 54 57 60 62 62 60 60 61 60 49 46 43 43 45 44 43
58 56 53 54 54 51 50 49 48 47 45 48 45 41 41 40 39 41 42 40 40 42 43 43 43 45 47 49 50 53 55 58 60 60 60 62 61 53 48 45 46 47 48 45
55 54 53 54 54 54 53 51 48 47 45 47 49 46 38 34 34 36 37 38 40 41 42 44 46 47 48 48 48 51 54 55 54 55 57 58 59 58 54 49 45 46 48 47
56 54 51 51 51 51 49 46 47 44 45 42 42 48 44 33 32 33 35 39 41 43 45 48 49 51 52 52 53 55 56 55 54 56 58 57 52 53 53 47 46 48 46 48
49 52 51 49 45 45 43 43 40 40 40 41 40 39 41 40 34 33 34 39 43 45 48 51 53 54 54 55 56 58 58 59 57 57 59 59 55 52 55 49 46 50 50 50
50 50 46 42 42 41 38 37 36 35 36 41 38 36 33 37 39 36 36 38 42 45 48 50 51 51 51 54 56 57 59 60 61 60 59 60 58 53 56 50 47 48 49 50
48 44 42 41 39 36 31 30 33 36 36 38 38 36 27 36 36 38 39 41 44 46 47 48 49 51 52 54 54 50 53 56 59 57 56 59 56 51 54 51 47 47 50 47
45 41 39 35 33 30 30 32 35 37 37 36 36 34 33 36 36 37 39 41 45 46 49 49 49 48 43 42 38 39 42 46 47 49 51 53 51 50 52 49 48 48 48 47
34 32 29 28 29 30 31 31 31 32 34 37 37 36 36 36 38 39 41 43 43 46 51 52 47 41 39 44 39 37 34 35 39 38 43 44 44 50 50 46 51 44 47 43
21 24 26 25 27 30 29 29 31 34 37 40 38 40 39 37 39 40 42 42 39 43 48 45 42 41 39 29 28 27 30 28 31 31 35 43 46 49 49 50 45 49 51 55
24 28 24 25 27 28 31 34 35 37 39 40 40 40 40 43 44 44 44 44 38 37 41 40 42 31 23 20 22 22 21 22 23 32 32 40 48 56 54 49 49 44 48 53
16 23 27 29 30 30 33 35 37 39 39 41 43 42 47 47 45 45 43 41 34 30 32 30 27 24 25 21 19 20 18 19 24 29 29 40 42 38 36 44 54 48 46 45
22 29 28 29 30 32 35 36 38 40 44 45 48 47 49 49 45 42 41 36 27 31 23 24 23 15 19 15 21 13 15 21 16 15 19 27 35 38 39 41 42 44 40 42
25 27 29 31 34 35 35 38 42 45 48 47 51 46 41 39 38 34 36 26 24 17 17 19 15 10 6 6 11 19 15 15 18 15 13 25 36 41 36 37 40 41 45 48
26 28 31 34 36 37 39 42 43 45 45 51 46 43 30 33 31 28 26 23 24 14 12 12 6 6 3 4 8 11 20 12 13 11 10 15 18 25 30 34 40 42 44 42
30 33 35 36 37 39 41 42 42 42 41 45 43 35 31 28 28 24 27 21 18 13 13 7 3 3 3 5 3 6 11 15 12 12 7 13 20 19 15 12 19 24 38 37
35 37 39 40 39 41 42 37 37 36 32 34 36 32 28 24 19 27 28 15 14 10 11 4 4 4 5 3 5 6 7 7 16 13 14 12 12 12 13 13 11 11 25 42
38 41 44 42 39 38 32 28 26 20 19 22 24 20 19 15 13 25 15 18 11 10 4 5 4 4 4 4 4 3 5 7 12 18 17 16 16 16 14 12 11 16 22 24
45 44 39 32 26 24 17 11 14 12 4 7 15 21 20 15 12 18 10 9 10 8 5 4 3 3 4 4 3 2 4 8 10 15 18 18 20 17 18 14 26 28 23 33
7 7 8 9 7 8 15 13 12 13 13 9 11 13 16 14 9 13 11 16 12 7 5 4 3 4 4 4 5 4 2 3 8 12 16 22 23 16 21 21 19 27 28 33
6 4 7 8 4 9 13 12 12 10 5 6 12 12 13 15 12 11 12 11 9 7 4 3 3 2 3 4 6 6 4 3 4 9 12 20 22 21 20 19 17 30 25 33
4 6 2 6 2 6 5 7 2 3 6 14 17 19 21 20 17 12 10 10 9 6 5 3 3 4 4 5 5 8 8 6 5 8 8 16 20 22 21 26 20 20 28 31
6 4 1 5 7 7 6 5 4 11 17 19 18 18 17 15 13 11 8 8 8 6 4 2 4 6 6 7 8 8 9 12 11 9 9 12 13 14 20 26 26 26 30 28
1 2 4 7 8 10 10 13 12 11 13 14 11 13 13 12 11 10 8 6 4 2 2 4 5 7 8 10 11 11 11 10 13 14 14 15 14 15 15 18 24 28 33 35
8 9 10 10 7 11 13 12 12 13 13 12 12 12 11 11 11 10 8 6 5 4 5 6 5 4 7 8 10 12 13 14 13 13 15 17 17 16 18 19 20 23 27 30
8 8 6 7 9 13 14 13 13 11 10 11 12 12 11 12 10 8 7 6 5 6 6 8 10 13 13 11 10 11 11 13 15 15 16 16 16 17 18 19 20 21 22 23

GFSCGP_500_spd_108.txt.gz
Wind_Speed
63 66 66 63 61 59 61 59 56 54 50 51 49 49 47 45 43 42 42 43 42 44 45 46 47 48 49 50 51 53 56 57 59 60 60 59 58 56 56 56 49 49 51 52
66 64 62 66 64 64 61 60 57 56 53 52 50 48 48 46 45 44 42 43 42 42 43 43 44 45 44 44 45 46 47 50 53 56 57 58 58 58 57 56 56 50 52 54
63 57 58 59 57 56 56 57 56 55 54 53 53 53 50 47 45 43 41 42 42 41 41 41 42 42 42 42 43 44 46 48 49 51 54 57 57 57 56 57 56 52 48 50
60 55 55 54 53 52 52 52 51 51 50 48 52 50 54 46 40 37 38 40 40 42 42 43 43 43 44 45 45 46 48 50 52 54 55 55 57 56 54 56 53 50 49 47
51 52 53 54 51 50 48 50 49 48 47 47 45 47 43 47 38 35 36 38 41 43 44 44 45 45 47 47 49 50 52 53 55 58 60 59 57 56 56 57 54 49 49 48
50 54 52 51 51 48 45 43 43 43 44 46 43 41 36 43 43 38 36 35 37 40 42 44 46 49 49 49 50 50 51 52 54 58 61 62 61 59 59 58 54 51 49 46
45 49 48 49 49 46 39 36 34 37 41 41 41 38 33 41 39 37 34 32 35 38 40 42 44 46 48 49 49 50 53 54 58 60 62 63 59 58 60 59 56 51 51 48
39 44 42 44 43 37 34 32 27 23 23 24 39 38 40 38 35 35 35 37 37 38 39 41 44 47 48 49 51 53 55 58 53 55 58 59 57 52 53 58 56 51 53 49
39 42 48 43 41 42 39 32 34 32 35 38 36 33 33 33 33 33 36 37 38 39 42 44 45 47 48 51 51 51 48 47 42 43 41 41 42 44 46 48 49 49 51 48
38 35 31 35 35 36 33 30 28 32 32 30 28 30 32 32 32 34 37 38 40 42 44 46 48 48 50 51 46 43 43 37 37 39 40 37 37 39 43 46 49 48 49 49
27 32 33 32 30 28 25 26 27 26 28 32 33 30 35 34 36 38 39 42 45 47 47 48 48 50 48 42 39 39 34 32 32 31 29 29 34 35 44 43 46 50 50 50
33 34 32 27 21 21 21 23 26 31 32 32 35 35 38 38 39 42 45 47 48 49 48 47 48 42 38 35 34 27 27 14 23 23 18 21 29 39 35 40 43 51 52 52
30 28 23 20 21 22 25 27 29 30 32 34 34 39 41 41 43 46 50 50 50 50 48 44 37 31 32 29 25 25 19 22 19 18 21 23 25 30 36 43 46 51 49 50
26 21 19 22 26 23 27 29 30 32 36 36 41 40 43 47 48 50 49 51 50 45 39 30 31 30 24 18 16 15 19 15 14 14 9 13 19 22 37 41 46 55 56 48
20 17 20 25 27 27 30 32 33 37 38 44 41 46 44 46 46 44 45 44 38 32 26 27 26 23 16 11 5 10 11 16 13 12 8 10 11 22 24 30 26 33 36 41
18 21 24 27 29 32 34 34 36 39 42 47 47 47 44 43 41 39 35 30 27 27 20 24 18 11 8 3 5 7 9 13 15 13 14 19 17 18 25 24 32 28 31 37
24 26 29 33 31 35 38 36 38 42 44 44 42 37 40 37 33 27 26 24 26 20 9 16 9 3 3 5 5 7 9 12 15 14 18 12 9 14 20 21 22 27 28 29
29 31 35 38 37 41 40 40 39 38 35 29 25 29 33 30 24 23 16 17 25 7 8 9 3 3 4 6 5 4 7 8 9 17 18 15 8 15 15 15 15 14 14 21
35 39 42 40 39 36 34 28 27 21 17 11 11 16 20 12 15 16 13 23 11 10 9 8 3 4 5 4 5 3 4 6 9 11 18 18 15 14 12 13 17 16 14 15
28 24 17 11 12 15 14 12 13 13 12 18 13 12 15 5 12 13 14 9 8 14 8 6 4 5 4 4 4 3 4 5 6 12 12 16 20 17 18 18 17 22 18 18
4 4 3 4 5 7 11 11 11 10 13 10 14 10 9 9 9 7 11 16 17 10 8 7 5 4 3 4 5 4 2 2 2 3 12 13 16 17 19 19 21 24 23 17
4 5 3 6 7 10 10 5 3 5 4 7 9 11 12 12 15 14 15 14 11 9 7 7 5 3 3 3 4 5 4 3 2 3 5 10 13 19 19 21 25 17 17 27
6 5 4 1 3 2 7 7 1 3 7 11 11 15 17 17 15 13 12 9 8 6 5 4 3 2 2 3 5 6 6 7 6 3 4 7 10 11 11 15 19 22 20 18
4 5 5 8 6 8 8 6 6 12 13 14 13 17 15 15 13 11 10 9 8 6 5 3 3 3 4 7 8 10 11 11 13 12 10 7 8 11 13 15 16 19 24 26
5 6 8 9 7 8 10 9 11 15 13 14 14 13 12 14 14 13 12 12 11 10 7 5 4 1 2 5 8 11 13 14 16 16 16 17 16 13 13 15 17 20 20 21
7 8 9 9 6 12 12 14 15 17 15 14 15 14 15 14 14 13 12 11 11 10 10 9 8 6 6 7 7 8 10 13 16 18 20 21 21 21 21 18 18 18 20 22

GFSCGP_500_spd_111.txt.gz
Wind_Speed
74 75 73 71 68 67 67 68 67 67 65 70 64 60 57 55 55 51 47 47 44 46 47 47 45 46 46 46 47 49 51 53 54 56 56 57 57 57 56 55 52 51 50 47
75 79 73 65 66 69 68 71 68 65 67 67 66 63 59 56 53 51 47 47 49 47 47 47 47 44 44 45 46 47 49 51 54 56 58 57 56 56 55 53 54 54 51 47
68 70 67 70 65 64 66 64 63 60 59 62 63 60 56 53 54 52 52 48 52 49 47 47 46 45 44 44 45 46 46 46 49 51 52 53 53 53 52 52 51 51 49 48
59 55 50 49 55 51 58 53 56 54 52 56 43 42 28 45 53 51 49 50 52 46 45 45 44 43 43 43 44 45 45 45 47 47 48 49 49 49 50 52 52 51 52 52
51 51 52 56 49 50 52 51 54 48 48 47 47 43 46 35 30 54 48 48 43 43 42 43 44 44 44 44 44 45 45 47 49 48 50 51 52 54 54 56 56 54 54 52
41 48 48 45 47 49 54 51 52 51 49 51 44 37 38 27 34 36 54 40 39 40 42 43 44 44 44 45 45 45 47 49 50 51 53 55 56 58 59 60 61 61 60 57
39 42 43 42 43 46 50 58 42 34 39 45 36 26 29 31 36 40 43 34 35 38 40 41 41 42 43 44 46 47 48 49 51 53 55 56 58 59 61 61 62 62 62 61
31 37 42 42 42 38 39 31 31 25 24 19 21 28 30 40 41 43 41 39 35 36 37 38 40 41 43 43 44 45 46 48 52 55 57 59 62 64 64 64 65 64 63 61
33 31 29 31 35 35 30 23 21 27 29 26 21 14 28 33 37 40 39 37 36 35 35 37 39 40 42 43 44 45 47 50 54 58 61 63 63 60 60 61 66 68 66 62
25 25 31 37 39 39 36 37 35 39 39 34 29 28 22 34 34 32 31 32 34 36 36 38 39 41 43 45 46 48 49 52 57 58 54 50 51 51 53 48 50 56 59 62
30 29 36 36 33 33 34 37 41 43 37 27 24 18 30 32 35 35 31 32 35 38 40 41 44 45 47 48 49 49 51 54 51 45 45 38 41 43 44 43 47 49 53 57
31 29 30 32 42 30 30 32 32 34 31 31 29 26 31 31 38 40 38 39 41 42 43 45 47 49 49 51 51 51 52 43 44 41 38 32 30 31 38 37 46 49 48 48
24 34 33 38 40 40 37 33 31 27 22 23 26 24 32 34 37 38 41 42 44 46 47 50 52 53 52 53 52 49 42 39 28 30 22 22 27 23 24 24 29 44 48 47
27 30 35 35 31 34 24 19 18 22 25 24 31 32 35 38 40 42 46 42 46 51 52 53 55 53 49 45 39 37 35 31 27 19 15 21 22 20 17 22 20 26 41 42
29 31 34 33 33 27 21 21 25 29 28 33 31 34 36 37 44 50 48 51 51 49 49 48 45 35 36 32 32 32 26 24 23 25 19 16 22 21 14 20 25 27 32 36
30 32 26 21 24 23 25 29 29 31 32 36 37 38 38 44 47 50 51 50 45 43 37 35 26 24 26 27 21 10 16 17 18 20 19 19 15 16 21 17 20 23 30 38
24 21 20 21 26 29 34 34 33 35 38 39 40 39 45 47 50 45 44 38 33 28 27 19 12 9 11 9 7 6 9 13 14 17 19 18 20 14 11 14 16 19 29 23
22 24 27 30 31 35 39 41 37 40 41 42 39 36 36 36 37 37 33 27 24 20 13 11 6 6 6 8 8 7 8 10 13 13 18 12 14 8 6 20 12 17 23 28
25 29 32 35 38 41 43 40 40 38 35 28 21 17 21 26 29 16 16 14 14 17 13 6 4 3 8 7 7 7 5 7 9 8 10 18 20 12 8 17 11 20 21 19
27 29 29 26 22 20 20 17 15 12 12 10 13 18 18 15 6 10 12 11 13 14 16 4 3 8 7 6 6 7 5 5 7 11 14 12 12 16 11 9 11 16 10 8
14 9 9 6 5 6 9 9 9 12 10 11 12 14 16 13 7 9 9 9 19 17 10 5 8 8 8 6 5 3 2 3 4 4 6 10 10 11 11 15 13 17 16 18
7 4 3 6 10 14 16 13 9 6 7 7 8 13 12 11 12 13 19 23 18 12 9 8 9 9 8 8 7 5 4 4 4 5 7 10 10 5 9 14 13 14 16 16
7 7 7 6 6 7 7 5 5 3 3 5 7 7 10 16 20 19 14 13 13 12 11 9 9 8 7 7 8 8 7 7 7 7 7 7 7 9 10 10 10 12 14 16
8 10 12 10 7 2 7 4 5 1 7 8 13 13 12 14 15 16 15 15 14 12 11 10 9 8 7 7 7 8 10 11 12 12 13 13 12 11 11 10 11 12 13 17
7 5 7 10 8 7 5 4 7 3 11 13 9 12 11 13 14 14 14 13 12 11 10 9 9 7 6 5 6 8 10 12 14 16 18 19 20 19 19 19 17 17 17 16
5 4 4 6 10 8 8 10 10 6 9 10 13 12 13 13 14 13 11 11 10 9 10 9 7 5 5 7 8 10 12 13 14 16 17 17 19 24 26 25 23 24 23 21

GFSCGP_500_spd_117.txt.gz
Wind_Speed
50 49 48 49 53 56 59 62 65 66 67 72 72 69 63 59 59 67 69 71 71 52 58 63 60 60 59 56 43 47 47 46 45 44 46 49 51 52 53 53 52 49 46 50
46 46 51 55 57 60 64 67 69 71 71 71 75 78 77 57 59 58 60 62 59 56 56 57 64 60 62 59 43 48 47 45 46 45 46 48 50 50 51 52 52 52 51 50
50 52 56 58 60 64 66 70 71 71 71 77 71 75 74 66 55 51 59 60 51 49 51 53 64 60 56 50 45 50 47 46 45 46 46 46 48 49 50 51 52 52 52 51
57 56 56 56 59 53 62 54 48 48 57 59 53 63 46 45 40 33 33 39 44 50 54 53 52 49 42 41 49 50 50 47 46 46 47 47 47 48 48 48 49 50 52 51
54 56 56 58 54 49 52 45 45 42 41 42 42 52 44 40 40 36 48 43 45 55 53 50 41 35 31 39 45 44 45 45 45 46 46 47 48 48 48 48 49 50 52 52
52 48 49 45 41 42 41 41 39 43 43 47 40 43 34 30 33 42 41 43 41 49 53 50 41 33 35 38 41 42 43 45 46 47 46 46 47 47 48 49 50 51 52 52
43 40 36 35 37 38 36 36 37 39 44 41 36 39 29 30 29 33 43 44 43 43 54 54 53 37 42 40 41 43 45 45 46 46 46 46 47 48 48 50 51 51 51 53
35 32 28 27 30 28 30 35 36 34 31 24 21 25 33 32 33 27 43 39 46 50 47 50 54 42 39 40 42 44 45 45 46 46 46 46 47 47 48 49 50 51 52 53
29 30 31 26 25 30 31 32 31 31 27 25 22 21 30 32 25 27 24 30 36 42 49 46 45 38 38 39 43 47 46 44 43 42 42 44 44 45 46 48 50 52 54 56
28 29 28 26 27 30 33 32 34 31 28 26 26 18 30 26 24 22 36 27 25 30 27 33 38 43 50 51 51 48 45 44 43 43 43 44 45 48 50 53 55 58 60 62
29 31 29 26 28 29 32 33 33 32 31 31 33 28 27 37 40 33 32 29 29 30 42 44 45 46 44 46 40 39 41 43 44 45 46 48 50 53 56 57 59 62 64 66
36 37 35 31 36 33 32 34 33 32 34 33 34 31 31 39 44 50 53 44 35 44 39 33 39 43 39 36 38 39 42 43 45 47 49 51 53 55 57 60 61 62 54 49
34 38 37 37 40 34 35 33 33 36 37 36 36 37 32 38 44 48 47 54 48 39 31 41 46 41 39 40 40 40 42 45 49 52 55 57 61 61 57 53 49 42 37 37
40 38 39 44 40 33 36 34 35 37 38 32 33 31 34 39 38 42 50 50 45 42 34 38 39 42 44 44 43 44 48 51 53 55 55 51 46 43 39 38 37 36 31 38
38 40 45 46 34 33 37 38 36 34 35 39 34 33 24 35 46 47 44 38 34 36 38 39 40 41 42 44 46 49 51 51 40 28 25 24 24 23 28 25 21 26 35 29
40 44 44 32 23 28 36 32 34 36 38 40 31 28 31 36 41 39 33 36 40 43 44 45 45 45 46 47 48 45 30 20 17 17 14 15 14 20 19 30 35 31 27 29
44 42 34 28 31 30 33 30 33 33 33 34 36 37 36 41 41 39 40 41 45 45 48 49 48 46 41 33 20 14 14 16 16 12 14 13 6 5 11 15 17 21 22 20
40 31 28 24 25 30 30 31 29 29 34 39 43 43 45 45 44 43 46 44 45 46 45 44 41 29 18 14 13 11 14 13 9 8 11 15 10 8 11 18 13 12 14 17
30 27 25 27 26 25 29 31 33 35 40 42 39 43 43 43 42 40 36 28 29 33 30 22 13 10 9 10 8 8 5 2 6 6 6 5 2 5 9 9 11 6 7 17
24 22 22 24 28 34 30 33 31 29 23 18 20 22 20 20 21 20 19 18 15 11 8 8 7 7 8 7 6 4 7 8 7 8 11 9 7 4 3 5 2 4 4 2
19 22 26 31 33 30 20 16 15 19 19 18 21 22 19 17 17 16 15 11 8 9 7 7 7 7 8 7 10 14 13 13 15 17 17 17 16 14 14 10 8 6 4 4
25 24 23 22 18 10 10 14 17 18 18 18 18 19 19 17 11 11 12 9 10 9 8 8 10 10 9 12 11 12 14 13 12 15 17 17 15 16 17 18 20 16 12 8
19 18 17 15 9 10 13 13 14 14 16 17 15 15 15 15 14 12 7 9 10 10 10 10 9 7 11 13 12 12 13 12 13 14 16 16 16 17 16 17 17 16 17 18
15 13 8 8 11 13 13 11 12 13 14 10 8 4 5 5 9 8 10 10 12 11 11 12 10 13 13 12 11 12 12 13 13 15 15 16 17 19 19 20 20 20 19 17
12 10 8 14 15 14 12 10 11 12 7 6 4 1 7 7 11 9 10 12 14 14 15 14 13 12 12 12 12 13 13 13 14 15 16 18 19 21 22 23 24 23 22 20
9 9 9 10 8 8 9 9 8 7 2 4 4 5 9 11 11 13 15 16 15 16 14 12 12 11 9 7 7 9 10 11 13 16 19 22 23 24 26 28 28 28 26 24

GFSCGP_500_spd_120.txt.gz
Wind_Speed
55 52 48 48 49 50 52 54 53 51 58 60 63 61 60 61 63 63 65 64 60 62 57 75 70 66 65 63 53 48 47 47 51 53 52 50 50 50 51 52 51 50 48 45
43 44 48 48 49 50 53 55 56 55 62 66 67 66 66 65 66 61 40 51 51 52 61 65 60 66 71 69 65 59 48 48 47 53 53 51 50 49 49 51 50 49 49 49
42 44 44 46 50 53 54 59 59 63 66 66 67 69 69 66 59 52 35 43 62 60 56 57 56 60 65 63 56 50 46 45 45 51 49 50 50 51 51 50 51 51 51 51
46 39 43 47 52 51 54 52 59 63 63 65 62 63 64 55 41 39 40 42 46 57 62 62 64 55 55 54 48 45 43 40 44 50 50 49 49 49 50 50 50 52 53 52
43 45 49 50 48 50 54 49 50 51 46 41 52 47 46 40 39 41 39 38 46 51 50 53 53 56 48 49 46 45 46 46 43 51 50 50 50 50 50 51 51 51 53 54
43 47 50 49 49 45 46 43 41 39 37 39 33 42 34 39 39 36 40 42 39 39 43 46 51 48 49 52 52 48 43 41 43 47 48 49 50 50 50 51 51 52 54 55
41 41 43 46 45 35 31 31 35 35 36 36 38 39 39 32 35 35 36 39 38 38 41 35 38 43 49 52 52 45 43 41 46 46 45 48 50 51 52 52 52 52 53 55
42 40 36 34 30 29 29 28 28 33 35 33 34 32 29 29 29 31 38 33 31 49 38 36 35 47 59 53 51 53 46 46 44 45 46 49 51 52 52 52 52 52 53 54
35 35 33 26 23 24 26 28 32 37 38 37 34 31 32 35 30 24 18 26 22 25 38 33 37 47 53 53 59 58 56 55 45 43 47 52 54 52 52 51 51 51 52 53
31 31 21 21 21 19 23 27 30 35 37 41 38 35 32 34 29 30 30 26 33 28 21 24 26 27 43 48 47 47 50 49 50 57 57 53 50 49 47 47 49 50 51 52
33 29 24 22 27 28 30 34 35 34 38 40 40 38 37 37 36 33 37 39 40 36 36 33 35 39 30 31 39 45 46 50 55 54 49 45 44 44 45 47 49 50 52 54
38 37 27 29 31 32 33 34 38 39 39 40 39 40 36 34 38 40 35 41 45 42 40 39 38 38 39 41 40 42 47 47 44 36 41 43 46 49 51 53 54 54 54 56
24 29 32 36 34 35 37 39 42 37 43 43 39 39 35 38 37 39 42 42 43 44 40 40 36 40 43 44 46 51 51 46 41 42 45 48 51 53 55 56 58 61 62 63
34 33 34 38 41 44 45 44 41 38 42 36 40 36 35 38 40 41 40 44 41 41 37 31 34 40 48 49 47 46 43 44 47 48 51 53 54 57 60 61 63 64 65 63
29 30 33 35 37 40 46 47 34 39 36 40 35 38 36 38 43 43 42 39 39 40 40 42 41 39 44 45 46 44 44 45 46 48 50 52 42 31 27 25 26 29 29 34
29 33 31 33 37 43 49 41 32 30 29 35 38 38 36 41 39 38 38 38 36 35 35 42 40 39 40 40 41 42 43 43 44 41 29 27 21 20 18 21 20 17 29 28
32 34 37 40 40 42 44 35 28 29 32 34 36 37 38 37 37 38 39 40 41 42 43 44 45 44 43 42 42 40 37 30 23 22 23 24 19 22 17 9 10 17 14 16
34 36 39 41 40 39 32 31 29 30 32 33 34 37 39 42 45 47 48 49 49 49 48 49 48 47 44 40 33 23 19 16 12 14 14 17 17 20 12 8 12 12 14 13
33 36 39 38 33 33 30 25 26 28 33 36 39 42 44 45 44 43 45 45 44 44 41 40 39 37 27 15 13 12 10 7 5 3 3 4 5 3 6 7 10 10 9 9
33 36 36 34 30 30 22 27 31 35 30 31 33 30 26 25 26 28 26 21 18 20 25 23 16 10 10 8 9 8 7 5 6 9 13 16 17 15 14 12 8 8 4 3
34 32 28 25 27 27 26 27 25 24 24 25 27 26 25 25 23 21 19 17 14 11 11 9 10 9 7 7 9 11 17 16 14 15 17 18 19 18 18 21 22 18 10 8
30 26 22 25 28 24 22 18 18 19 21 21 21 21 22 21 19 19 15 15 11 10 10 9 9 7 7 9 10 17 18 17 12 12 15 16 17 17 18 18 19 18 19 22
22 22 25 23 20 19 16 15 16 16 15 17 19 19 19 17 14 14 14 11 9 9 9 8 5 6 9 14 16 15 16 13 11 12 14 17 17 18 19 21 20 20 19 17
21 21 19 20 15 13 13 15 15 14 16 17 13 11 11 7 6 5 7 7 8 9 9 10 12 14 16 16 16 13 12 11 12 13 14 15 16 16 18 18 20 21 21 20
19 16 16 13 13 15 15 15 12 12 13 11 9 8 2 2 7 9 7 8 10 12 14 17 16 14 14 14 14 13 11 9 7 9 12 15 17 19 20 21 23 24 23 24
14 11 12 10 12 12 13 11 9 9 10 7 5 4 5 5 5 7 9 12 14 16 16 14 13 14 13 11 9 7 3 2 5 8 12 18 20 22 24 25 26 26 25 23

GFSCGP_500_spd_123.txt.gz
Wind_Speed
50 51 47 43 46 51 53 52 51 51 51 51 50 49 52 55 60 62 64 67 69 69 71 72 73 75 77 77 74 68 61 57 56 56 59 59 54 54 55 56 55 56 58 51
43 44 46 46 46 49 47 48 50 51 54 56 55 52 55 60 63 67 71 71 72 71 65 68 72 71 72 71 69 61 52 52 52 53 53 56 55 54 56 57 56 56 59 55
46 48 45 43 45 45 44 48 47 53 56 57 59 57 57 58 63 67 68 69 66 60 55 55 56 61 62 60 58 60 57 51 44 47 52 58 54 57 58 56 56 58 58 55
43 34 36 42 45 41 46 44 48 51 56 57 59 61 56 61 63 58 53 48 45 44 44 42 47 57 66 60 57 60 56 49 47 45 54 51 50 56 59 56 55 57 59 58
41 39 39 43 40 45 47 48 50 52 55 56 52 47 54 60 55 49 46 44 44 41 42 43 45 51 62 56 63 53 53 47 45 46 43 40 45 54 59 57 56 56 57 60
41 43 44 44 43 42 44 45 46 48 50 54 46 41 47 39 40 40 41 42 39 39 39 40 43 43 41 43 45 50 50 47 43 37 38 41 46 54 59 55 56 56 56 56
43 41 41 42 44 40 39 36 39 41 38 39 36 38 37 33 36 38 38 36 35 37 34 38 37 38 41 41 43 46 51 53 47 46 41 44 47 48 51 54 56 55 55 57
41 38 38 39 40 36 34 31 30 32 36 34 36 40 39 37 38 40 39 37 34 30 29 29 39 42 45 37 38 36 45 45 50 47 44 42 39 37 38 41 50 55 56 57
41 41 36 31 33 30 27 28 29 32 35 36 35 37 37 36 37 36 37 35 27 22 19 24 16 30 26 44 40 43 59 51 44 49 46 43 46 48 46 47 55 59 54 56
40 40 37 31 23 24 24 27 25 28 33 40 39 41 41 37 38 38 38 34 36 41 34 31 28 33 18 18 23 28 30 37 52 54 54 55 50 51 54 57 55 53 51 52
40 36 35 32 25 25 30 29 30 31 35 38 39 42 46 44 41 38 36 37 39 38 42 46 49 43 36 35 33 34 28 27 34 35 41 43 46 48 46 42 42 44 46 49
36 33 32 32 34 35 33 31 32 35 38 41 45 50 47 44 41 38 40 40 39 41 44 46 46 41 39 37 41 34 36 41 38 40 44 48 49 46 44 44 44 43 44 47
37 39 38 34 32 31 35 36 36 38 39 45 48 53 40 41 37 40 40 41 37 37 40 42 44 38 33 35 39 39 45 49 45 41 39 41 43 47 48 48 49 50 51 50
37 40 40 38 36 37 38 37 36 36 41 45 53 43 39 42 39 40 39 40 41 40 39 37 34 33 34 36 34 36 38 40 40 42 40 39 43 48 51 53 57 57 58 61
36 38 36 37 37 36 33 32 35 38 43 50 47 44 43 38 40 42 42 42 43 41 38 33 32 32 34 33 32 35 35 34 38 39 40 46 51 54 55 52 45 43 38 37
37 36 34 32 32 34 34 35 39 41 44 45 38 37 34 35 37 40 42 43 42 42 40 37 36 36 37 36 37 39 36 35 37 40 43 44 45 41 33 29 31 30 31 29
41 32 36 36 34 34 37 37 41 41 41 37 36 34 37 41 39 39 40 41 42 43 44 45 44 43 43 43 42 41 39 37 37 36 36 33 32 32 27 24 28 20 17 21
37 31 33 39 37 39 39 41 39 35 33 33 33 36 39 39 40 42 43 46 47 48 49 49 48 48 47 45 42 39 35 32 27 22 22 16 15 17 18 17 11 12 14 11
35 36 35 36 39 39 40 37 36 34 32 29 32 37 40 42 41 38 39 36 35 35 37 38 36 34 33 31 25 19 14 13 14 12 5 6 9 10 11 12 11 6 8 9
37 35 34 36 38 39 37 30 28 30 28 33 34 32 32 31 30 29 28 27 24 20 20 21 22 21 17 10 10 10 9 10 10 10 11 9 12 16 18 17 12 16 14 13
34 33 34 35 37 37 27 27 31 32 27 27 27 27 27 26 26 25 25 25 25 22 20 17 10 8 8 9 7 8 9 12 18 16 14 13 13 14 15 17 18 18 20 25
34 34 34 33 34 30 27 27 25 26 24 24 23 20 22 22 23 24 22 19 18 19 14 11 8 6 6 5 6 8 19 20 19 14 12 12 12 13 15 16 17 21 21 18
34 32 32 29 26 26 24 23 22 19 20 20 20 23 24 21 19 17 15 16 16 13 10 6 7 7 6 6 9 18 18 17 16 12 10 9 10 12 13 15 18 20 20 20
30 34 27 23 21 24 23 18 17 19 19 18 20 19 16 17 14 11 11 12 8 5 6 7 8 9 10 11 17 18 17 14 13 9 6 7 9 11 14 16 19 20 20 20
28 24 20 21 19 18 16 16 18 20 17 17 17 13 11 9 6 7 8 5 5 7 8 8 13 13 13 15 14 14 14 12 6 2 2 6 10 14 17 21 23 24 22 20
19 18 18 18 14 13 13 15 16 15 14 14 12 10 10 3 6 9 6 7 9 9 11 15 16 14 14 13 14 13 9 5 4 6 8 10 14 17 22 25 27 28 26 24

GFSCGP_500_spd_126.txt.gz
Wind_Speed
43 46 46 47 52 54 56 57 52 48 48 48 48 48 50 51 51 52 54 57 59 61 61 63 65 68 70 72 73 74 74 75 73 67 67 64 61 61 60 60 64 66 61 57
43 44 48 50 50 49 48 50 51 48 48 49 48 49 51 52 54 56 58 60 62 64 65 67 68 69 71 73 73 70 68 68 59 56 55 52 58 60 63 62 62 66 67 63
45 44 42 43 46 49 50 52 50 50 49 48 49 49 52 52 55 58 60 61 62 64 65 66 63 62 58 54 53 52 54 55 56 54 51 52 53 59 61 62 63 63 66 67
43 39 40 43 44 42 45 43 46 47 48 49 50 52 54 54 54 53 55 58 59 58 54 55 54 50 47 45 48 58 62 63 57 56 56 54 54 54 53 56 53 60 64 68
40 38 41 42 41 46 44 44 45 47 48 50 53 51 54 56 55 54 56 56 54 48 46 45 45 45 44 44 47 46 49 56 62 61 59 46 47 47 50 51 45 48 56 64
41 44 43 42 44 43 44 45 45 46 46 49 45 48 50 51 50 47 42 41 42 40 39 38 35 38 40 42 39 40 40 41 42 43 40 46 41 44 40 36 40 39 45 49
44 43 41 41 42 39 39 41 43 44 44 45 48 50 48 42 40 37 37 38 41 43 45 40 38 31 35 33 35 38 35 37 41 41 37 43 44 42 38 39 35 37 44 47
41 40 36 38 38 38 36 34 36 39 42 43 40 44 39 36 33 37 38 40 41 42 41 35 28 29 29 36 34 42 41 35 36 41 36 41 46 42 41 41 35 33 35 39
41 39 35 33 32 33 33 32 31 35 35 39 42 38 35 33 33 34 35 39 39 42 39 36 34 36 32 26 22 24 30 39 43 44 42 44 46 44 44 38 40 40 41 43
41 41 36 34 30 30 27 30 31 30 34 38 37 38 38 38 38 39 44 39 37 39 37 36 39 39 38 41 36 35 29 23 27 35 38 37 35 41 49 36 40 42 48 48
39 41 39 37 33 28 29 32 30 32 35 37 40 40 40 39 40 44 45 42 39 38 36 37 38 40 42 42 44 47 47 37 33 37 32 28 28 31 33 38 45 50 49 40
39 39 40 32 29 31 31 31 34 35 36 37 40 37 39 41 40 44 36 34 37 34 35 37 37 39 41 41 43 43 43 44 43 42 41 39 35 36 43 46 46 42 44 44
39 38 37 38 34 38 35 33 31 31 36 39 41 39 39 41 47 46 36 39 39 36 38 37 38 39 41 42 40 41 43 41 42 42 42 46 43 44 42 43 40 42 45 48
39 38 40 41 42 41 40 36 37 38 40 37 39 38 41 45 49 44 38 41 38 40 41 40 40 40 35 34 34 36 37 35 35 34 33 32 32 34 36 40 41 44 48 53
37 42 41 42 40 38 39 39 40 41 38 38 37 41 45 46 45 39 41 40 40 40 42 42 40 35 32 30 29 31 30 29 30 30 30 28 30 34 35 39 43 46 43 39
39 38 39 39 36 38 38 38 37 36 37 39 40 44 45 45 39 36 37 40 42 41 39 39 39 39 38 37 36 34 32 30 31 29 29 28 31 32 34 35 33 31 32 38
41 39 36 37 41 38 41 33 34 35 39 41 43 46 46 40 38 38 39 40 41 41 43 44 44 45 44 42 41 39 37 35 32 28 25 25 21 21 22 22 25 29 29 28
40 37 38 42 36 37 36 36 38 37 38 41 45 43 39 36 35 36 37 41 41 38 37 36 36 39 39 38 35 33 31 29 25 19 12 9 8 7 6 5 4 5 12 18
36 38 39 42 41 36 35 40 40 40 40 41 39 36 35 36 37 35 36 34 32 29 27 26 26 30 29 27 26 23 19 16 13 7 4 5 8 8 6 6 7 7 8 7
37 38 39 39 40 36 39 39 37 40 40 34 33 32 33 30 30 32 29 28 26 26 27 25 25 26 25 18 13 10 9 9 7 6 10 14 8 9 14 14 15 16 18 10
35 33 37 38 38 38 37 37 38 38 35 31 30 27 25 26 25 25 26 28 28 27 24 23 21 19 11 8 7 7 7 6 11 21 20 13 8 8 8 9 10 13 14 16
34 34 34 33 34 35 36 36 36 34 29 28 26 21 20 21 25 27 26 23 21 19 19 17 18 16 9 8 8 8 8 17 23 21 15 11 8 7 6 7 10 12 15 16
37 33 31 31 35 37 35 34 31 28 27 22 20 21 20 24 23 22 22 21 19 16 16 15 12 8 8 7 5 6 16 22 18 12 12 10 6 2 2 6 12 15 16 15
30 32 32 32 32 33 31 28 27 24 22 19 21 20 23 22 20 20 18 16 13 11 10 8 6 7 7 5 6 16 21 20 14 11 8 5 3 3 6 12 16 18 20 22
33 29 27 28 31 30 25 24 20 19 19 20 19 19 20 17 16 15 10 6 6 7 7 6 6 9 8 7 12 17 12 11 9 7 4 5 9 10 12 15 18 21 23 24
27 26 29 25 25 20 20 16 15 16 16 15 17 18 15 13 14 9 8 8 7 6 6 6 10 12 10 11 14 10 10 7 5 5 7 11 15 17 19 20 22 25 26 26

GFSCGP_500_spd_132.txt.gz
Wind_Speed
34 34 37 39 40 41 43 43 45 45 45 45 46 47 49 51 50 47 47 48 47 47 47 48 49 51 51 51 52 54 55 57 59 61 62 64 66 68 69 67 67 67 68 69
33 34 37 40 42 41 41 44 43 45 47 46 47 46 45 45 47 49 49 49 49 48 48 50 51 52 53 54 56 57 59 60 61 63 66 67 68 69 69 70 68 63 60 63
35 39 38 41 41 41 44 44 45 45 47 47 46 46 46 45 45 46 46 48 49 50 52 53 54 55 55 54 55 57 58 60 61 62 60 58 58 58 59 63 64 60 58 57
42 43 43 44 45 45 45 45 46 47 48 49 49 49 49 48 50 51 50 49 49 51 52 51 51 53 55 55 54 54 56 55 56 55 53 53 54 53 53 53 55 58 60 59
44 43 44 43 43 44 44 44 46 47 49 51 52 52 52 51 53 52 51 51 50 49 48 49 50 51 51 52 52 53 53 53 52 51 48 46 48 49 49 49 51 53 55 55
44 44 41 41 41 42 45 46 48 51 51 53 52 52 49 52 54 51 49 49 48 47 45 45 45 43 44 45 46 47 47 49 48 47 46 47 47 46 48 47 48 49 50 53
43 43 43 43 45 45 47 49 48 51 52 50 52 52 49 51 49 47 45 42 41 41 40 39 40 41 43 44 46 46 49 48 45 43 44 46 44 44 49 49 44 41 44 45
38 39 43 42 42 44 45 45 46 46 46 45 53 51 50 47 45 44 39 36 35 36 38 39 42 43 44 45 47 50 49 49 44 40 41 42 40 42 40 41 43 39 40 41
42 40 40 41 44 44 44 41 40 42 43 46 48 47 50 43 40 36 33 32 33 36 39 41 41 43 45 46 46 45 45 45 42 41 39 39 37 40 34 27 30 32 34 36
41 43 42 43 40 40 38 38 37 35 34 33 34 36 38 44 39 29 32 33 36 37 39 39 39 42 46 46 46 43 42 41 41 41 42 43 38 40 43 43 41 34 32 34
38 41 43 46 42 36 37 34 34 37 39 40 36 34 38 44 40 35 35 36 36 39 39 40 42 44 47 44 43 44 42 41 41 41 39 41 41 41 41 39 37 38 37 37
39 40 41 41 39 39 36 33 32 37 35 37 37 31 38 37 37 38 40 40 39 38 39 41 44 45 46 40 39 40 41 40 39 40 39 38 39 40 41 38 36 35 40 41
41 42 41 39 38 33 34 35 36 37 39 38 41 37 39 38 36 36 40 42 43 43 44 45 46 47 44 38 38 38 39 38 37 36 36 35 32 33 36 33 33 34 37 41
40 37 37 37 35 34 31 30 35 39 40 37 39 40 37 39 39 38 43 46 45 43 45 47 47 45 38 37 38 40 39 34 31 31 30 28 27 27 28 29 29 29 31 31
40 39 40 40 39 38 39 40 37 40 39 45 40 40 37 36 39 39 41 41 42 44 45 47 44 40 38 39 40 40 38 38 35 33 31 30 28 26 26 28 29 31 33 33
37 35 36 35 36 39 42 40 40 43 43 46 42 39 33 38 38 38 39 41 43 45 45 42 39 37 38 40 42 42 40 39 37 34 31 29 29 27 26 26 27 26 24 24
36 37 38 37 39 41 42 33 39 42 44 41 40 36 39 40 40 42 41 43 43 43 39 37 38 40 41 40 39 38 36 35 34 32 31 29 27 25 24 22 19 18 23 23
37 38 41 41 40 44 37 36 37 41 39 38 37 31 34 39 39 41 42 43 42 38 37 37 36 36 35 33 32 32 33 33 31 28 30 29 26 22 19 19 18 20 22 19
38 40 42 45 45 45 38 39 36 37 37 38 38 39 36 36 38 38 39 40 38 36 34 31 29 28 29 31 32 32 33 32 31 28 29 25 21 21 24 21 16 11 9 6
44 44 44 40 43 43 32 36 35 35 33 33 32 34 37 37 37 35 35 34 33 31 27 29 31 30 28 28 27 25 24 25 22 18 19 19 20 25 22 17 10 3 3 7
37 36 37 35 37 33 32 35 35 35 31 31 32 31 32 35 34 31 30 30 26 26 29 29 30 27 23 24 23 22 22 18 16 15 12 18 22 20 11 8 8 7 6 7
36 34 32 34 34 29 27 29 30 30 28 29 28 30 33 33 30 28 27 25 25 27 26 29 27 22 20 20 21 18 16 16 14 11 17 24 13 12 9 8 8 8 9 10
31 31 34 33 33 24 25 23 29 31 29 28 30 31 32 29 27 24 23 24 23 23 27 23 18 18 19 17 14 14 14 11 6 14 19 12 11 7 6 6 7 8 11 12
25 27 32 34 30 29 26 24 29 33 33 30 31 32 28 25 23 22 21 21 19 21 17 14 15 17 14 12 12 12 10 2 12 19 14 10 5 6 5 5 8 12 13 14
23 23 27 28 33 33 28 31 32 30 29 29 30 25 23 22 20 19 19 16 17 14 14 15 14 13 11 10 8 8 2 7 19 14 9 6 2 4 6 10 12 14 16 17
28 26 29 29 22 28 27 31 29 27 28 24 20 20 19 17 17 17 15 16 13 12 14 15 12 11 9 8 8 6 6 13 9 6 4 3 4 9 11 14 18 17 18 18

GFSCGP_500_spd_135.txt.gz
Wind_Speed
41 37 34 35 36 32 32 34 37 40 43 45 44 42 45 46 50 50 50 49 47 47 48 48 48 47 47 47 48 48 49 50 51 53 54 55 56 56 57 57 58 59 61 62
43 39 39 40 34 35 34 35 37 40 44 47 47 45 47 46 52 47 48 49 48 47 47 47 47 48 48 48 49 51 52 53 53 53 53 54 56 58 58 59 60 60 61 61
41 41 43 38 37 37 37 40 41 43 47 48 49 48 49 52 48 48 48 50 51 52 52 51 52 51 51 51 51 52 51 51 51 51 51 52 54 54 54 53 54 55 57 59
42 41 42 42 42 42 44 46 48 47 49 52 53 53 49 52 55 55 56 54 53 53 54 54 53 52 52 51 51 51 50 51 50 50 51 50 51 50 50 50 50 52 55 58
45 47 45 46 46 49 48 50 50 52 53 53 53 53 48 55 56 59 58 58 55 54 53 52 51 51 51 50 49 48 46 46 47 48 49 50 50 48 48 47 48 49 50 52
46 48 46 47 50 51 52 52 53 53 52 53 53 50 53 31 49 51 58 51 52 51 49 48 48 48 47 46 45 44 44 45 46 47 48 49 50 50 49 47 48 48 51 51
50 51 51 51 53 53 53 52 52 46 40 46 34 47 52 37 49 53 54 53 50 48 47 43 42 42 42 41 42 42 42 43 45 48 49 50 52 50 47 47 48 51 46 46
50 45 51 54 53 51 55 53 52 39 36 33 29 44 39 43 41 50 47 44 43 43 39 40 39 38 40 40 39 39 41 43 45 48 48 47 46 45 46 47 44 45 45 47
42 40 47 52 49 47 43 47 43 40 51 44 52 46 45 49 49 50 45 41 39 38 36 36 38 38 39 39 38 40 41 44 45 47 46 45 43 42 44 48 46 43 43 38
43 47 43 39 52 50 43 42 41 40 34 34 29 30 27 39 40 43 38 28 35 36 36 37 38 39 39 39 39 41 43 47 47 47 45 44 42 42 41 43 45 43 43 46
46 50 47 33 42 40 30 40 38 35 40 40 36 33 30 40 37 44 48 44 38 37 39 39 40 39 39 40 42 43 46 49 47 45 42 41 41 41 41 41 43 43 43 42
41 43 44 38 31 27 32 29 31 38 39 38 41 37 31 43 40 42 42 41 45 44 39 40 39 41 44 45 47 47 48 49 45 42 41 40 39 39 38 37 37 36 34 36
42 42 40 40 37 35 32 34 36 37 40 37 45 40 35 37 39 44 41 46 46 49 45 44 42 42 43 45 47 48 50 47 42 41 39 36 35 33 33 31 29 30 30 31
39 38 38 38 34 27 30 31 34 33 35 32 37 38 43 38 41 36 32 44 44 44 44 42 41 42 44 45 47 48 46 43 42 41 38 35 35 33 32 31 29 30 31 30
42 39 38 38 37 37 36 37 36 38 41 46 43 47 42 43 39 35 38 46 49 44 42 41 42 44 45 46 43 41 41 41 41 41 42 38 35 34 34 33 32 31 30 30
41 39 40 40 38 40 40 35 32 34 35 40 40 44 42 42 42 45 48 47 47 46 45 44 45 44 44 41 41 42 44 44 42 41 41 40 38 36 34 34 33 30 28 27
41 35 36 33 33 35 36 25 31 35 36 38 40 39 36 38 43 47 33 41 47 44 44 45 46 44 43 43 42 42 40 38 34 34 35 35 34 33 34 33 31 27 26 27
41 39 36 36 37 43 33 30 37 41 38 37 42 42 36 38 42 43 39 39 40 42 43 43 44 42 40 39 38 34 32 34 36 36 36 37 35 32 33 29 25 25 26 26
38 38 38 41 42 43 41 35 38 40 37 36 40 36 35 44 42 44 43 41 42 42 42 41 38 37 35 34 34 35 35 33 33 33 33 37 34 32 26 24 28 26 23 19
39 38 40 42 46 48 36 34 39 40 38 33 33 34 38 36 39 40 35 39 40 40 38 36 33 31 34 35 36 32 28 28 27 30 27 22 21 22 20 23 25 18 10 8
38 40 42 40 42 39 28 32 37 34 24 29 31 32 33 33 34 35 34 36 37 35 33 31 31 33 34 33 30 25 24 26 26 23 22 22 14 15 23 19 12 6 8 11
40 40 39 39 39 39 34 32 31 28 28 25 26 26 24 27 31 32 34 34 31 30 30 30 32 31 32 29 25 25 27 25 21 23 22 15 15 22 17 9 5 7 9 12
31 34 37 39 38 33 36 32 31 24 25 25 30 33 31 33 33 34 34 29 27 27 28 28 29 25 21 20 22 24 21 20 20 21 11 9 17 14 10 7 6 8 11 12
25 26 29 31 30 34 38 34 32 33 30 28 30 32 32 33 35 32 25 25 25 25 25 25 22 19 18 19 19 18 19 17 15 7 5 14 14 11 6 5 5 7 8 9
23 28 25 28 27 32 31 34 36 38 31 29 31 31 33 35 31 24 24 23 23 23 22 19 17 18 18 17 16 16 13 11 6 3 13 11 9 7 3 3 8 10 12 13
21 24 30 30 29 30 31 32 31 31 36 31 31 33 33 23 22 21 20 20 22 21 19 17 18 17 16 14 13 11 10 7 2 13 13 10 5 4 4 7 9 12 15 16